.

MPMG - Transparência

Contracheque - Remuneração de todos os servidores ativos - Pós Resolução CNMP 200/2019

Período: 2023 - Novembro

Ordem Matrícula Nome Cargo Efetivo Lotação Rendimentos Descontos Rendimento Líquido Total *14 Data de Referência
Remuneração básica Remuneração eventual ou Temporária Outras Remunerações Temporárias *7 Verbas Indenizatórias *8 Total de Rendimentos Brutos *9 Obrigatórios Legais Outros Descontos Eventuais Total de descontos *13
Remuneração do Cargo Efetivo *1 Outras Verbas Remuneratórias *2 Função de Confiança ou Cargo em Comissão *3 Gratificação Natalina *4 Férias 1/3 Constitucional *5 Abono de Permanência *6 Contribuição Previdenciária *10 Imposto de Renda *11 Retenção por Teto Constitucional *12
1 498900 ABDON MARCIO BARBOSA DA SILVA OFICIAL DO MP ABRE CAMPO - COMARCA; ABRE CAMPO-PJ-01PJ 7.506,70 1.501,34 0,00 0,00 0,00 0,00 825,73 2.105,00 11.938,77 1.222,23 1.204,00 0,00 155,91 2.582,14 9.356,63 30/11/2023
2 177800 ADALBERTO MENEZES FARIA SAMORA OFICIAL DO MP BELO HORIZONTE - COMARCA; DIRET DE PLANOS PROJETOS E PROGRAMAS INST 22.191,68 8.876,67 0,00 0,00 0,00 0,00 2.739,47 2.105,00 35.912,82 4.751,88 6.247,79 0,00 0,00 10.999,67 24.913,15 30/11/2023
3 306400 ADALBERTO MOREIRA GONCALVES ANALISTA DO MP BELO HORIZONTE - COMARCA; BH-24PJ JUIZO REG BARREIRO-SECRETARIA 23.070,31 6.921,09 0,00 0,00 0,00 0,00 1.586,69 2.105,00 33.683,09 4.579,57 6.103,29 0,00 0,00 10.682,86 23.000,23 30/11/2023
4 179300 ADENISE AUXILIADORA SOUZA SAD OFICIAL DO MP BARBACENA - COMARCA; BARBACENA-PJ-06PJ 21.346,53 8.538,61 0,00 0,00 0,00 0,00 10.335,28 3.348,92 43.569,34 5.455,08 7.263,04 0,00 0,00 12.718,12 30.851,22 30/11/2023
5 272200 ADILSON BATISTA ORNELAS OFICIAL DO MP LAVRAS - COMARCA; LAVRAS-PJ-SECRETARIA 7.506,70 2.252,01 0,00 0,00 0,00 0,00 894,55 2.105,00 12.758,26 1.342,34 1.377,40 0,00 168,91 2.888,65 9.869,61 30/11/2023
6 380100 ADILSON GONCALVES DE MELO JUNIOR ANALISTA DO MP ARAXÁ - COMARCA; ARAXA-PJ-05PJ 17.005,40 5.101,62 0,00 0,00 0,00 0,00 1.811,61 2.105,00 26.023,63 3.318,07 4.177,73 0,00 0,00 7.495,80 18.527,83 30/11/2023
7 148800 ADILSON JANUARIO OFICIAL DO MP BELO HORIZONTE - COMARCA; BH-22PJ PES COM DEF E IDOSOS-SECRETARIA 23.070,31 18.456,25 0,00 0,00 0,00 5.795,34 3.751,86 2.105,00 53.178,76 5.795,34 9.400,14 3.936,60 0,00 19.132,08 34.046,68 30/11/2023
8 322601 ADMILSON SILVEIRA ANALISTA DO MP SAO JOAO DO PARAISO COMARCA; SAO JOAO DO PARAISO-PJ-UNPJ 12.343,61 2.468,72 0,00 0,00 0,00 0,00 1.379,29 3.055,00 19.246,62 2.150,92 2.596,93 0,00 235,01 4.982,86 14.263,76 30/11/2023
9 333700 ADRIANA ABRITTA TEIXEIRA OFICIAL DO MP BELO HORIZONTE - COMARCA; DIRET DE PESSOAL DO MINISTERIO PUBLICO - DPMP 12.343,61 3.703,08 0,00 0,00 0,00 0,00 1.470,95 2.105,00 19.622,64 2.348,42 2.882,06 0,00 277,74 5.508,22 14.114,42 30/11/2023
10 468500 ADRIANA APARECIDA FIRMINO ANALISTA DO MP CARATINGA - COMARCA; CARATINGA-PJ-04PJ 12.343,61 2.468,72 0,00 0,00 0,00 0,00 1.357,80 2.105,00 18.275,13 2.150,92 2.544,79 0,00 256,38 4.952,09 13.323,04 30/11/2023
11 326100 ADRIANA AUGUSTA AMARAL BELO OFICIAL DO MP BARBACENA - COMARCA; BARBACENA-PJ-05PJ 12.343,61 3.703,08 0,00 0,00 0,00 0,00 1.470,95 2.105,00 19.622,64 2.348,42 2.777,79 0,00 277,74 5.403,95 14.218,69 30/11/2023
12 605700 ADRIANA COSTA LIRA OFICIAL DO MP BELO HORIZONTE - COMARCA; CAO-EDUCACAO 7.506,70 750,67 4.020,58 0,00 0,00 0,00 1.125,48 2.105,00 15.508,43 1.102,13 2.188,39 0,00 142,92 3.433,44 12.074,99 30/11/2023
13 541100 ADRIANA CRISTINA DE OLIVEIRA OFICIAL DO MP EXTREMA - COMARCA; EXTREMA-PJ-01PJ 7.506,70 1.501,34 0,00 0,00 0,00 0,00 907,62 2.105,00 12.020,66 1.222,23 1.204,00 0,00 142,92 2.569,15 9.451,51 30/11/2023
14 254800 ADRIANA DAS GRACAS FERNANDES ANALISTA DO MP UBERABA - COMARCA; UBERABA-PJ-07PJ 23.070,31 18.456,25 0,00 0,00 0,00 0,00 3.250,70 2.105,00 46.882,26 5.795,34 7.763,70 3.936,60 155,34 17.650,98 29.231,28 30/11/2023
15 217400 ADRIANA DE CARVALHO CATAO BRAGA ASSESSOR ADMINISTRATIVO III BELO HORIZONTE - COMARCA; DIV FISCAL ADM CONT TERCEIRIZACAO 0,00 4.343,56 10.858,90 0,00 0,00 0,00 0,00 2.105,00 17.307,46 876,95 3.467,06 0,00 0,00 4.344,01 12.963,45 30/11/2023
16 434600 ADRIANA FERREIRA DA SILVA ANALISTA DO MP BELO HORIZONTE - COMARCA; BH-14PJ DEFESA CONSUMIDOR-GAB 112PJ 18.130,77 3.626,15 0,00 0,00 0,00 0,00 1.931,50 2.105,00 25.793,42 3.262,06 4.201,13 0,00 0,00 7.463,19 18.330,23 30/11/2023
17 499800 ADRIANA FERREIRA TIAGO OFICIAL DO MP SALINAS - COMARCA; SALINAS-PJ-02PJ 10.516,49 2.103,30 0,00 0,00 0,00 0,00 426,79 3.055,00 16.101,58 1.800,11 1.970,03 0,00 253,83 4.023,97 12.077,61 30/11/2023
18 543400 ADRIANA GUIMARAES NUNES DE PAULA ANALISTA DO MP PATROCÍNIO - COMARCA; PATROCINIO-PJ-01PJ 12.343,61 2.468,72 0,00 0,00 0,00 0,00 0,00 3.055,00 17.867,33 982,16 2.715,54 0,00 0,00 3.697,70 14.169,63 30/11/2023
19 471500 ADRIANA HORTA DE CARVALHO RODRIGUES DE SOUSA ANALISTA DO MP BELO HORIZONTE - COMARCA; GRUPO ESP PROM JUST DEF PROB ADM PAT PUB 12.343,61 2.468,72 0,00 0,00 0,00 0,00 0,00 2.105,00 16.917,33 2.150,92 2.544,79 0,00 256,38 4.952,09 11.965,24 30/11/2023
20 86400 ADRIANA MOREIRA CALDEIRA BRANT OFICIAL DO MP BELO HORIZONTE - COMARCA; BH-21PJ TUTELA FUNDACOES-SECRETARIA 22.191,68 17.753,35 0,00 0,00 0,00 7.583,90 0,00 2.105,00 49.633,93 5.795,34 9.452,28 2.355,07 1.788,56 19.391,25 30.242,68 30/11/2023
21 480700 ADRIANA MOREIRA DE AVELLAR CEZILIO OFICIAL DO MP BELO HORIZONTE - COMARCA; BH-12PJ JUIZO CRIMINAL-SECRETARIA 7.506,70 1.501,34 4.020,58 0,00 0,00 0,00 825,74 2.105,00 15.959,36 1.222,23 2.257,52 0,00 155,91 3.635,66 12.323,70 30/11/2023
22 326000 ADRIANA PEREIRA CARNEIRO RESENDE OFICIAL DO MP BELO HORIZONTE - COMARCA; BH-25PJ DEFESA DA EDUCACAO-SECRETARIA 12.343,61 3.703,08 0,00 0,00 0,00 0,00 882,57 2.105,00 19.034,26 2.348,42 2.882,06 0,00 277,74 5.508,22 13.526,04 30/11/2023
23 502200 ADRIANA PETRUCCI DAVINA OFICIAL DO MP PATROCÍNIO - COMARCA; PATROCINIO-PJ-01PJ 10.858,90 2.171,78 0,00 0,00 0,00 0,00 1.156,82 3.055,00 17.242,50 1.865,86 2.142,24 0,00 261,16 4.269,26 12.973,24 30/11/2023
24 201900 ADRIANA REIS PIMENTA OFICIAL DO MP TEÓFILO OTONI - COMARCA; TEOFILO OTONI-PJ-03PJ 21.346,53 10.673,27 0,00 0,00 0,00 0,00 9.681,32 3.348,92 45.050,04 5.697,11 7.716,75 0,00 0,00 13.413,86 31.636,18 30/11/2023
25 278700 ADRIANA RODRIGUES PINTO COELHO AMARAL ANALISTA DO MP BELO HORIZONTE - COMARCA; CGMP-DIR ESTAGIO PROBATORIO E ORIENT 23.070,31 9.228,12 0,00 0,00 0,00 0,00 2.749,20 2.105,00 37.152,63 4.948,70 6.399,53 0,00 860,66 12.208,89 24.943,74 30/11/2023
26 468000 ADRIANA SANTOS DE SANTANA MOREIRA ANALISTA DO MP GOVERNADOR VALADARES - COMARCA; GAECO REGIONAL DE GOVERNADOR VALADARES 12.343,61 4.937,44 0,00 0,00 0,00 0,00 1.584,09 2.105,00 20.970,14 2.545,92 3.062,93 0,00 299,11 5.907,96 15.062,18 30/11/2023
27 194700 ADRIANA TSUKIDE OFICIAL DO MP UBERABA - COMARCA; COORD REG BACIAS PARANAIBA BAIXO RIO GRANDE 21.346,53 8.538,61 0,00 0,00 0,00 0,00 11.791,88 2.105,00 43.782,02 5.694,69 7.661,11 0,00 0,00 13.355,80 30.426,22 30/11/2023
28 465500 ADRIANO CASSIANO MATOS ANALISTA DO MP ARAXÁ - COMARCA; ARAXA-PJ-02PJ 12.343,61 2.468,72 0,00 0,00 0,00 0,00 1.504,68 2.105,00 18.422,01 2.150,92 2.596,93 0,00 256,38 5.004,23 13.417,78 30/11/2023
29 500500 ADRIANO DE ALMEIDA SILVA OFICIAL DO MP UBERABA - COMARCA; UBERABA-PJ-12PJ 10.858,90 2.171,78 0,00 0,00 0,00 0,00 1.156,82 3.055,00 17.242,50 1.865,86 1.597,74 0,00 261,16 3.724,76 13.517,74 30/11/2023
30 187200 ADRIANO DE FREITAS MARON OFICIAL DO MP PONTE NOVA - COMARCA; PONTE NOVA-PJ-03PJ 18.130,77 16.317,70 0,00 0,00 1.259,25 7.902,18 17.378,37 4.214,21 65.202,48 7.165,48 12.153,50 0,00 489,19 19.808,17 45.394,31 30/11/2023
31 477900 ADRIANO FERREIRA DE ALMEIDA OFICIAL DO MP TAIOBEIRAS - COMARCA; TAIOBEIRAS-PJ-UNPJ 10.858,90 3.257,67 0,00 0,00 0,00 0,00 1.156,82 2.548,04 17.821,43 2.039,60 2.331,93 0,00 0,00 4.371,53 13.449,90 30/11/2023
32 269101 ADRIANO PEREIRA SILVA ANALISTA DO MP BELO HORIZONTE - COMARCA; GABINETE DE PROCURADOR DE JUSTIÇA - SALA 913 12.343,61 3.703,08 0,00 0,00 0,00 0,00 1.357,79 2.105,00 19.509,48 2.348,42 2.725,65 0,00 256,38 5.330,45 14.179,03 30/11/2023
33 414200 ADRIANO RODRIGUES FERNANDES ANALISTA DO MP CARANDAÍ - COMARCA; CARANDAI-PJ-UNPJ 12.343,61 3.703,08 0,00 0,00 0,00 0,00 2.592,15 2.105,00 20.743,84 2.545,92 3.010,79 0,00 256,38 5.813,09 14.930,75 30/11/2023
34 536700 ADRIELLE COSTA MARIA MOURAO FIGUEIREDO OFICIAL DO MP SERRO - COMARCA; SERRO-PJ-SECRETARIA 7.506,70 1.501,34 0,00 0,00 0,00 0,00 0,00 -548,22 8.459,82 1.222,23 1.256,14 0,00 473,22 2.951,59 5.508,23 30/11/2023
35 514300 ADRIENE DAMASCENO BRAGA ANALISTA DO MP ALFENAS - COMARCA; ALFENAS-PJ-03PJ 12.343,61 2.468,72 0,00 0,00 0,00 0,00 1.357,79 2.105,00 18.275,12 2.150,92 2.596,93 0,00 256,38 5.004,23 13.270,89 30/11/2023
36 254600 ADRIENE DOMINGUES COSTA ANALISTA DO MP BELO HORIZONTE - COMARCA; SUPER DE GESTAO DE PESSOAS-LOTACAO TEMPORARIA 23.070,31 9.228,12 0,00 0,00 0,00 0,00 0,00 0,00 32.298,43 4.948,70 6.276,06 0,00 1.309,65 12.534,41 19.764,02 30/11/2023
37 252001 ADRIENE GOMES BARRETO ANALISTA DO MP BELO HORIZONTE - COMARCA; BH-19PJ SAUDE-SECRETARIA 047PJ 20.533,67 10.266,84 0,00 0,00 0,00 0,00 2.574,12 2.105,00 35.479,63 4.709,03 6.251,25 0,00 141,62 11.101,90 24.377,73 30/11/2023
38 714800 ADSON GUSTAVO DE OLIVEIRA ASSESSOR PROCURADOR JUSTICA BELO HORIZONTE - COMARCA; GABINETE DE PROCURADOR DE JUSTIÇA - SALA 803 0,00 0,00 8.810,89 0,00 0,00 0,00 807,66 2.105,00 11.723,55 876,95 1.709,37 0,00 0,00 2.586,32 9.137,23 30/11/2023
39 724600 AECIO BRAS SILVA JUNIOR ASSESSOR PROMOTOR JUSTICA BAMBUÍ - COMARCA; BAMBUI-PJ-UNPJ 0,00 0,00 8.810,89 0,00 0,00 0,00 0,00 2.105,00 10.915,89 876,95 1.709,37 0,00 0,00 2.586,32 8.329,57 30/11/2023
40 302500 AGENOR JOSE DA SILVA JUNIOR ANALISTA DO MP JUIZ DE FORA - COMARCA; JUIZ DE FORA-PJ-07PJ 23.070,31 6.921,09 0,00 0,00 0,00 0,00 2.644,50 3.055,00 35.690,90 4.579,57 5.946,88 0,00 0,00 10.526,45 25.164,45 30/11/2023
41 357500 AILSON WAGNER DE ALENCAR SILVA OFICIAL DO MP BELO HORIZONTE - COMARCA; BH-12PJ JUIZO CRIMINAL-SECRETARIA 15.447,01 7.723,51 0,00 0,00 0,00 0,00 3.464,57 2.105,00 28.740,09 3.735,38 4.643,63 0,00 307,11 8.686,12 20.053,97 30/11/2023
42 366400 AILTON ALEXSSANDRO ALVES OFICIAL DO MP PARÁ DE MINAS - COMARCA; PARA DE MINAS-PJ-05PJ 12.343,61 4.937,44 0,00 0,00 0,00 0,00 0,00 2.105,00 19.386,05 2.545,92 3.143,23 0,00 376,86 6.066,01 13.320,04 30/11/2023
43 318900 AILTON DE CASTRO RIBEIRO JUNIOR OFICIAL DO MP CANDEIAS - COMARCA; CANDEIAS-PJ-UNPJ 12.343,61 3.703,08 0,00 0,00 0,00 0,00 1.470,95 2.105,00 19.622,64 2.348,42 2.725,65 0,00 277,74 5.351,81 14.270,83 30/11/2023
44 464400 ALAN MONTEIRO GASPAR ANALISTA DO MP SETE LAGOAS - COMARCA; SETE LAGOAS-PJ-08PJ 12.343,61 2.468,72 0,00 0,00 0,00 0,00 0,00 2.105,00 16.917,33 2.150,92 2.596,93 0,00 256,38 5.004,23 11.913,10 30/11/2023
45 492000 ALANA DE CASTRO FREITAS OFICIAL DO MP BELO HORIZONTE - COMARCA; SECRETARIA DO PROCON-MG 8.264,07 1.652,81 0,00 0,00 0,00 0,00 1.272,67 6.071,75 17.261,30 1.367,65 1.452,75 0,00 209,47 3.029,87 14.231,43 30/11/2023
46 306700 ALANA MARCIA DE OLIVEIRA OFICIAL DO MP BELO HORIZONTE - COMARCA; DIRETORIA DE ADMINISTRACAO FINANCEIRA 12.343,61 3.703,08 0,00 0,00 0,00 0,00 1.470,95 2.105,00 19.622,64 2.348,42 2.882,06 0,00 277,74 5.508,22 14.114,42 30/11/2023
47 324500 ALANMAR COUTINHO COSTA OFICIAL DO MP LEOPOLDINA - COMARCA; LEOPOLDINA-PJ-02PJ 12.343,61 3.703,08 0,00 0,00 0,00 0,00 1.470,95 2.105,00 19.622,64 2.348,42 2.777,79 0,00 277,74 5.403,95 14.218,69 30/11/2023
48 407300 ALBERTO LUIZ SOARES DE OLIVEIRA ANALISTA DO MP BELO HORIZONTE - COMARCA; DIRETORIA DE PROJETOS DE EDIFICACOES 18.130,77 5.439,23 0,00 0,00 0,00 0,00 0,00 2.105,00 25.675,00 3.552,15 4.619,95 0,00 0,00 8.172,10 17.502,90 30/11/2023
49 118200 ALBERTO PEREIRA DA COSTA OFICIAL DO MP DORES DO INDAIÁ - COMARCA; DORES DO INDAIA-PJ-UNPJ 23.070,31 20.763,28 0,00 0,00 0,00 5.795,34 3.751,86 2.105,00 55.485,79 5.795,34 9.400,14 6.243,63 0,00 21.439,11 34.046,68 30/11/2023
50 282400 ALCILENE MARISE DE ARAUJO ANALISTA DO MP BELO HORIZONTE - COMARCA; BH-23PJ INF-FISC MED SOC FEC 23.070,31 9.228,12 0,00 0,00 0,00 0,00 2.307,03 2.105,00 36.710,46 5.317,82 7.022,55 0,00 343,47 12.683,84 24.026,62 30/11/2023
51 396400 ALCIONE DE FREITAS E SILVA ANALISTA DO MP BELO HORIZONTE - COMARCA; ASSESS JUR DO CONS SUPERIOR DO MINISTERIO PUB 20.533,67 10.266,84 0,00 0,00 0,00 0,00 0,00 2.105,00 32.905,51 4.709,03 6.253,85 0,00 132,18 11.095,06 21.810,45 30/11/2023
52 657400 ALCIONE MARIA FERREIRA ASSESSOR PROCURADOR JUSTICA BELO HORIZONTE - COMARCA; GABINETE DE PROCURADOR DE JUSTICA - SALA 313 0,00 0,00 8.810,89 0,00 0,00 0,00 0,00 3.055,00 11.865,89 876,95 1.709,37 0,00 0,00 2.586,32 9.279,57 30/11/2023
53 161600 ALCIONE NERY SOUZA ASSESSOR ADMINISTRATIVO III BELO HORIZONTE - COMARCA; BH-18PJ DIREITOS HUMANOS-SECRETARIA 0,00 5.429,45 10.858,90 0,00 0,00 0,00 0,00 2.105,00 18.393,35 876,95 3.765,68 0,00 0,00 4.642,63 13.750,72 30/11/2023
54 376000 ALDA GOMES LANA OFICIAL DO MP BELO HORIZONTE - COMARCA; BH-18PJ VIOLENCIA DOMESTICA-SECRETARIA 12.343,61 3.703,08 0,00 0,00 0,00 0,00 1.357,80 2.105,00 19.509,49 2.348,42 2.829,93 0,00 0,00 5.178,35 14.331,14 30/11/2023
55 148000 ALDA MARTINS SIMOES OFICIAL DO MP BELO HORIZONTE - COMARCA; BH-23PJ CIVEL- FISC ENT AB POL 23.070,31 16.149,22 0,00 0,00 0,00 0,00 0,00 2.105,00 41.324,53 5.795,34 7.693,84 1.629,57 598,97 15.717,72 25.606,81 30/11/2023
56 318400 ALDO CREPALDI JUNIOR OFICIAL DO MP BELO HORIZONTE - COMARCA; DIVISAO DE MATERIAIS 12.343,61 3.703,08 0,00 0,00 0,00 0,00 1.470,95 2.105,00 19.622,64 2.348,42 2.829,93 0,00 277,74 5.456,09 14.166,55 30/11/2023
57 604500 ALENIZE APARECIDA RODRIGUES HENRIQUE OFICIAL DO MP RIO NOVO - COMARCA; RIO NOVO-PJ-SECRETARIA 7.506,70 1.501,34 0,00 0,00 0,00 0,00 750,67 2.105,00 11.863,71 1.342,34 1.396,25 0,00 250,90 2.989,49 8.874,22 30/11/2023
58 197900 ALESSA DE SOUSA E SILVA OFICIAL DO MP OLIVEIRA - COMARCA; OLIVEIRA-PJ-02PJ 22.191,68 8.876,67 0,00 0,00 0,00 0,00 3.309,07 8.852,40 43.229,82 4.751,88 6.247,79 0,00 0,00 10.999,67 32.230,15 30/11/2023
59 428500 ALESSANDRA ALVES DINIZ OFICIAL DO MP BELO HORIZONTE - COMARCA; CENTRAL DE APOIO TECNICO-SECRETARIA 10.858,90 5.429,45 0,00 0,00 0,00 0,00 1.377,15 2.105,00 19.770,50 2.387,08 2.937,89 0,00 260,03 5.585,00 14.185,50 30/11/2023
60 286801 ALESSANDRA BOTELHO JUNQUEIRA DE MENEZES ANALISTA DO MP PASSOS - COMARCA; PASSOS-PJ-05PJ 18.720,84 7.488,34 0,00 0,00 0,00 0,00 0,00 3.055,00 29.264,18 3.974,42 5.021,05 0,00 0,00 8.995,47 20.268,71 30/11/2023
61 307000 ALESSANDRA CRISTINA SANTOS MENDES ANALISTA DO MP BELO HORIZONTE - COMARCA; BH-18PJ VIOLENCIA DOMESTICA-SECRETARIA 21.346,53 6.403,96 0,00 0,00 0,00 0,00 2.446,94 2.105,00 32.302,43 4.221,03 5.533,50 0,00 0,00 9.754,53 22.547,90 30/11/2023
62 264400 ALESSANDRA DE SOUZA SANTOS ANALISTA DO MP BELO HORIZONTE - COMARCA; SECRETARIA DE ASSUNTOS INTERNACIONAIS 23.070,31 11.535,16 0,00 0,00 0,00 0,00 0,00 2.105,00 36.710,47 5.317,82 7.097,44 0,00 260,74 12.676,00 24.034,47 30/11/2023
63 441500 ALESSANDRA DRUMMOND DE FIGUEIREDO ROSSI ANALISTA DO MP BELO HORIZONTE - COMARCA; DIRETORIA DE PROJETOS DE EDIFICACOES 12.343,61 2.468,72 0,00 0,00 0,00 0,00 0,00 2.105,00 16.917,33 2.150,92 2.596,93 0,00 256,38 5.004,23 11.913,10 30/11/2023
64 524000 ALESSANDRA LUCIOLI DE BARROS ANALISTA DO MP BELO HORIZONTE - COMARCA; BH-19PJ SAUDE--SECRETARIA 12.343,61 2.468,72 0,00 0,00 0,00 0,00 1.357,81 2.105,00 18.275,14 2.150,92 2.544,79 0,00 256,38 4.952,09 13.323,05 30/11/2023
65 479900 ALESSANDRA MARA ANDRADE DE FARIA OFICIAL DO MP UBERABA - COMARCA; UBERABA-PJ-09PJ 10.858,90 2.171,78 0,00 0,00 0,00 0,00 1.156,81 2.105,00 16.292,49 1.865,86 2.185,37 0,00 0,00 4.051,23 12.241,26 30/11/2023
66 226700 ALESSANDRA MARA VASCONCELOS REZENDE OFICIAL DO MP CONSELHEIRO LAFAIETE - COMARCA; CONSELHEIRO LAFAIETE-PJ-07PJ 18.130,77 7.252,31 0,00 0,00 0,00 0,00 2.253,41 2.105,00 29.741,49 3.842,24 5.038,77 0,00 0,00 8.881,01 20.860,48 30/11/2023
67 196500 ALESSANDRA MARIA RIBEIRO LUCIANO OFICIAL DO MP RIO PARANAÍBA - COMARCA; RIO PARANAIBA-PJ-UNPJ 22.191,68 11.095,84 0,00 0,00 0,00 0,00 0,00 2.105,00 35.392,52 5.106,95 6.706,77 0,00 195,09 12.008,81 23.383,71 30/11/2023
68 651700 ALESSANDRA PROFIRIO SOUZA OFICIAL DO MP NOVA ERA - COMARCA; NOVA ERA-PJ-UNPJ 6.603,76 660,38 0,00 0,00 0,00 0,00 614,87 2.105,00 9.984,01 944,43 791,51 0,00 140,84 1.876,78 8.107,23 30/11/2023
69 384900 ALESSANDRA RODRIGUES ANALISTA DO MP VISCONDE DO RIO BRANCO - COMARCA; VISCONDE DO RIO BRANCO-PJ-03PJ 20.533,67 6.160,10 0,00 0,00 0,00 0,00 2.059,30 3.055,00 31.808,07 4.051,95 5.206,11 0,00 113,30 9.371,36 22.436,71 30/11/2023
70 390000 ALESSANDRA SPADANO MASSARA VASCONCELOS OFICIAL DO MP BETIM - COMARCA; BETIM-PJ-10PJ 12.343,61 3.703,08 0,00 0,00 0,00 0,00 0,00 2.105,00 18.151,69 2.348,42 2.822,34 0,00 217,17 5.387,93 12.763,76 30/11/2023
71 426500 ALESSANDRO CAMPOS DE PAIVA ANALISTA DO MP BELO HORIZONTE - COMARCA; DIR CRIACAO E MIDIAS 18.720,84 3.744,17 0,00 0,00 0,00 0,00 0,00 2.105,00 24.570,01 3.375,35 4.334,50 0,00 109,79 7.819,64 16.750,37 30/11/2023
72 623400 ALESSANDRO DE OLIVEIRA REZENDE ANALISTA DO MP BELO HORIZONTE - COMARCA; DIRET DE INFORMACAO E CONHECIMENTO-DINC/CEAF 12.343,61 1.234,36 0,00 0,00 0,00 0,00 607,05 2.105,00 16.290,02 1.953,42 2.311,79 0,00 220,43 4.485,64 11.804,38 30/11/2023
73 420600 ALESSANDRO SILVA OFICIAL DO MP VISCONDE DO RIO BRANCO - COMARCA; VISCONDE DO RIO BRANCO-PJ-02PJ 11.954,43 4.781,77 0,00 0,00 0,00 0,00 1.228,15 2.105,00 20.069,35 2.458,74 2.577,85 0,00 0,00 5.036,59 15.032,76 30/11/2023
74 375301 ALETHEIA PATRICIA ASSIS MORAIS MOREIRA ANALISTA DO MP ITABIRA - COMARCA; ITABIRA-PJ-02PJ 12.343,61 3.703,08 0,00 0,00 0,00 0,00 1.244,66 3.055,00 20.346,35 2.348,42 2.829,93 0,00 235,01 5.413,36 14.932,99 30/11/2023
75 382300 ALEX CARVALHO LIMA ANALISTA DO MP UBERLÂNDIA - COMARCA; UBERLANDIA-PJ-14PJ 20.533,67 6.160,10 0,00 0,00 0,00 0,00 2.059,30 3.055,00 31.808,07 4.051,95 5.310,38 0,00 113,30 9.475,63 22.332,44 30/11/2023
76 195201 ALEX DE CASTRO PEREIRA ANALISTA DO MP UBERABA - COMARCA; UBERABA-PJ-09PJ 23.070,31 9.228,12 0,00 0,00 0,00 0,00 2.960,70 2.105,00 37.364,13 4.948,70 6.503,08 0,00 484,14 11.935,92 25.428,21 30/11/2023
77 358900 ALEX DE PAULA LANZA ASSESSOR ADMINISTRATIVO IV BELO HORIZONTE - COMARCA; DIR CONTEUDO JORNALISTICO 0,00 0,00 14.488,22 0,00 0,00 0,00 0,00 3.055,00 17.543,22 876,95 3.270,64 0,00 0,00 4.147,59 13.395,63 30/11/2023
78 178400 ALEX RODRIGO SALDANHA GUIMARAES OFICIAL DO MP BELO HORIZONTE - COMARCA; DIRETORIA DE SISTEMAS DE INFORMACAO 7.506,70 3.002,68 0,00 0,00 0,00 0,00 0,00 2.105,00 12.614,38 1.462,45 1.602,95 0,00 181,90 3.247,30 9.367,08 30/11/2023
79 413500 ALEX VILELA OLIVEIRA ANALISTA DO MP GOVERNADOR VALADARES - COMARCA; COORD REG PJ DEF EDU DIR CRIANCA ADOL RIODOCE 18.720,84 5.616,25 0,00 0,00 0,00 0,00 4.312,66 6.972,42 35.622,17 3.974,42 5.229,60 0,00 0,00 9.204,02 26.418,15 30/11/2023
80 264300 ALEXANDRA FATIMA SARAIVA SOARES ANALISTA DO MP BELO HORIZONTE - COMARCA; CENTRAL DE APOIO TECN-SETOR DE MEIO AMBIENTE 23.070,31 9.228,12 0,00 0,00 0,00 0,00 0,00 2.105,00 34.403,43 4.948,70 6.407,84 0,00 1.279,03 12.635,57 21.767,86 30/11/2023
81 488000 ALEXANDRA LARA PAIS DE CARVALHO ANALISTA DO MP SABARÁ - COMARCA; SABARA-PJ-04PJ 12.343,61 2.468,72 0,00 0,00 0,00 0,00 1.357,79 2.105,00 18.275,12 2.150,92 2.440,52 0,00 256,38 4.847,82 13.427,30 30/11/2023
82 256300 ALEXANDRA SANTOS GOMES OFICIAL DO MP BELO HORIZONTE - COMARCA; DIRETORIA GESTAO COMPRAS LICITACOES 12.343,61 4.937,44 0,00 0,00 0,00 0,00 0,00 2.105,00 19.386,05 2.545,92 3.167,20 0,00 277,75 5.990,87 13.395,18 30/11/2023
83 403300 ALEXANDRE AUGUSTO RODRIGUES ANALISTA DO MP ÁGUAS FORMOSAS - COMARCA; AGUAS FORMOSAS-PJ-UNPJ 12.343,61 3.703,08 0,00 0,00 0,00 0,00 0,00 4.005,00 20.051,69 2.348,42 2.882,06 0,00 256,38 5.486,86 14.564,83 30/11/2023
84 640900 ALEXANDRE BARBOSA MASCARENHAS ANALISTA DO MP BETIM - COMARCA; BETIM-PJ-02PJ 9.699,77 969,98 0,00 0,00 0,00 0,00 0,00 2.105,00 12.774,75 982,16 1.452,90 0,00 0,00 2.435,06 10.339,69 30/11/2023
85 311700 ALEXANDRE BARCELOS RESENDE OFICIAL DO MP BELO HORIZONTE - COMARCA; BH-17PJ PATRIMONIO PUBLICO-SECRETARIA 11.212,54 3.363,76 0,00 0,00 0,00 0,00 0,00 3.055,00 17.631,30 2.113,16 2.522,82 0,00 307,84 4.943,82 12.687,48 30/11/2023
86 285600 ALEXANDRE CAMPOS DE OLIVEIRA OFICIAL DO MP UBERABA - COMARCA; COORD REG BACIAS PARANAIBA BAIXO RIO GRANDE 12.343,61 3.703,08 0,00 0,00 0,00 0,00 1.470,95 2.105,00 19.622,64 2.348,42 2.725,65 0,00 277,74 5.351,81 14.270,83 30/11/2023
87 509200 ALEXANDRE CAPUANO DE REZENDE ANALISTA DO MP BELO HORIZONTE - COMARCA; BH-07PJ 03 TRIBUNAL DO JURI-GAB 061PJ 12.343,61 2.468,72 0,00 0,00 0,00 0,00 0,00 2.105,00 16.917,33 2.150,92 2.544,79 0,00 256,38 4.952,09 11.965,24 30/11/2023
88 229400 ALEXANDRE CARLOS BOTREL SUPERINTENDENTE BELO HORIZONTE - COMARCA; SUPERINTENDENCIA DOS ORGAOS COLEGIADOS 28.013,39 11.205,36 0,00 158,11 0,00 0,00 3.250,70 2.105,00 44.732,56 3.974,42 8.359,31 1.628,79 486,95 14.449,47 30.283,09 30/11/2023
89 411900 ALEXANDRE CARVALHO SANTOS RIBEIRO ANALISTA DO MP OLIVEIRA - COMARCA; OLIVEIRA-PJ-02PJ 18.720,84 5.616,25 0,00 0,00 0,00 0,00 3.866,47 3.055,00 31.258,56 3.974,42 5.199,41 0,00 109,78 9.283,61 21.974,95 30/11/2023
90 641600 ALEXANDRE DA SILVA ASSUNCAO OFICIAL DO MP BELO HORIZONTE - COMARCA; SERVICO MEDICO-DEPTO PERIC MEDICA SAUDE OCUP 6.818,83 681,88 0,00 0,00 0,00 0,00 0,00 3.055,00 10.555,71 1.017,97 923,75 0,00 0,00 1.941,72 8.613,99 30/11/2023
91 201200 ALEXANDRE DE ALENCAR CORDEIRO OFICIAL DO MP ÁGUAS FORMOSAS - COMARCA; AGUAS FORMOSAS-PJ-UNPJ 7.506,70 5.254,69 0,00 0,00 0,00 0,00 1.032,17 2.105,00 15.898,56 1.822,77 2.123,16 0,00 194,90 4.140,83 11.757,73 30/11/2023
92 288200 ALEXANDRE DE VASCONCELOS COSTA KER ANALISTA DO MP BELO HORIZONTE - COMARCA; BH-03PJ EMPRESARIAL-SECRETARIA 23.070,31 6.921,09 0,00 0,00 0,00 0,00 2.644,51 2.105,00 34.740,91 4.579,57 6.051,16 0,00 0,00 10.630,73 24.110,18 30/11/2023
93 445000 ALEXANDRE DIOGENES OLIVEIRA ANALISTA DO MP SALINAS - COMARCA; SALINAS-PJ-02PJ 14.960,00 2.992,00 0,00 0,00 0,00 0,00 0,00 3.055,00 21.007,00 2.653,27 3.322,19 0,00 282,24 6.257,70 14.749,30 30/11/2023
94 463400 ALEXANDRE LEAL WINKELSTROTER ANALISTA DO MP TEÓFILO OTONI - COMARCA; TEOFILO OTONI-PJ-04PJ 12.343,61 3.209,34 0,00 0,00 0,00 0,00 543,12 2.105,00 18.201,07 2.269,42 2.768,01 0,00 256,38 5.293,81 12.907,26 30/11/2023
95 615700 ALEXANDRE LUIZ DE CASTRO MACIEL ANALISTA DO MP BELO HORIZONTE - COMARCA; BH-08PJ JUIZADO ESPECIAL-SECRETARIA 12.343,61 1.974,98 0,00 0,00 0,00 0,00 1.167,41 3.055,00 18.541,00 2.071,92 2.430,74 0,00 220,43 4.723,09 13.817,91 30/11/2023
96 356900 ALEXANDRE MOISES MENDONCA E ARAUJO OFICIAL DO MP UBERABA - COMARCA; UBERABA-PJ-13PJ 10.516,49 3.154,95 0,00 0,00 0,00 0,00 0,00 3.055,00 16.726,44 1.968,38 2.315,89 0,00 274,99 4.559,26 12.167,18 30/11/2023
97 633300 ALEXANDRE NONATO MARTINS OFICIAL DO MP IGARAPÉ - COMARCA; IGARAPE-PJ-02PJ 6.818,83 681,88 0,00 0,00 0,00 0,00 665,87 2.105,00 10.271,58 981,10 855,80 0,00 122,69 1.959,59 8.311,99 30/11/2023
98 469900 ALEXANDRE PEREIRA GUEDES ANALISTA DO MP CATAGUASES - COMARCA; CATAGUASES-PJ-03PJ 12.343,61 2.468,72 0,00 0,00 0,00 0,00 1.357,79 2.105,00 18.275,12 2.150,92 2.596,93 0,00 256,38 5.004,23 13.270,89 30/11/2023
99 208700 ALEXANDRE RESENDE FRAGA ANALISTA DO MP BELO HORIZONTE - COMARCA; BH-19PJ SAUDE-SECRETARIA 130PJ 23.070,31 9.228,12 0,00 0,00 0,00 0,00 2.250,12 7.272,75 41.821,30 4.948,70 6.207,50 0,00 1.477,63 12.633,83 29.187,47 30/11/2023
100 216401 ALEXANDRE RIBEIRO DE LIMA MAIORINO ANALISTA DO MP UBERABA - COMARCA; UBERABA-PJ-03PJ 23.070,31 9.228,12 0,00 0,00 0,00 0,00 2.847,93 2.105,00 37.251,36 4.948,70 6.584,08 0,00 0,00 11.532,78 25.718,58 30/11/2023
101 475100 ALEXANDRE TEOTONIO COSTA ANALISTA DO MP ARAGUARI - COMARCA; ARAGUARI-PJ-01PJ 12.343,61 2.468,72 0,00 0,00 0,00 0,00 1.357,81 2.105,00 18.275,14 2.150,92 2.492,65 0,00 256,38 4.899,95 13.375,19 30/11/2023
102 339000 ALEXANDRE VITOR CARDOSO OFICIAL DO MP BELO HORIZONTE - COMARCA; BH-23PJ INFRACIONAL-SEC EXP 7.506,70 2.252,01 0,00 0,00 0,00 0,00 894,55 2.105,00 12.758,26 1.342,34 1.273,13 0,00 168,91 2.784,38 9.973,88 30/11/2023
103 623100 ALEXSANDER BATISTA AGUIAR COORDENADOR II BELO HORIZONTE - COMARCA; DIRETORIA DE SUPORTE E MANUTENCAO 20.533,67 2.053,37 0,00 0,00 0,00 0,00 2.070,48 3.055,00 27.712,52 1.953,42 4.632,87 0,00 220,43 6.806,72 20.905,80 30/11/2023
104 513300 ALFSON MIRANDA BRAGA ANALISTA DO MP BELO HORIZONTE - COMARCA; BH-12PJ JUIZO CRIMINAL-GAB 087PJ 12.343,61 2.468,72 0,00 0,00 0,00 0,00 0,00 2.105,00 16.917,33 2.150,92 2.596,93 0,00 256,38 5.004,23 11.913,10 30/11/2023
105 618400 ALICE MAGALHAES MACEDO DE CARVALHO ANALISTA DO MP IPATINGA - COMARCA; IPATINGA-PJ-10PJ 12.343,61 1.234,36 0,00 0,00 0,00 0,00 1.167,40 3.055,00 17.800,37 1.953,42 2.311,79 0,00 220,43 4.485,64 13.314,73 30/11/2023
106 707000 ALICE MARIA RIBEIRO DINIZ ASSESSOR PROMOTOR JUSTICA BELO HORIZONTE - COMARCA; PROC JUST ATUACAO TRIBUNAIS SUPERIORES-GAB003 0,00 0,00 8.810,89 0,00 0,00 0,00 807,66 2.105,00 11.723,55 876,95 1.709,37 0,00 0,00 2.586,32 9.137,23 30/11/2023
107 471000 ALICE TITONELI MOREIRA ANALISTA DO MP MIRADOURO - COMARCA; MIRADOURO-PJ-UNPJ 12.343,61 2.468,72 0,00 0,00 0,00 0,00 0,00 3.055,00 17.867,33 2.150,92 2.492,65 0,00 256,38 4.899,95 12.967,38 30/11/2023
108 731600 ALICIA PAULA RODRIGUES DE LIMA ASSESSOR PROMOTOR JUSTICA TIROS - COMARCA; TIROS-PJ-UNPJ 0,00 0,00 8.810,89 0,00 2.936,96 0,00 0,00 2.105,00 13.852,85 876,95 2.517,04 0,00 0,00 3.393,99 10.458,86 30/11/2023
109 725800 ALINE ALBIERI FRANCISCO ASSESSOR PROMOTOR JUSTICA BELO HORIZONTE - COMARCA; CAO-ORDEM ECONOMICA E TRIBUTARIA-ASSESS TECN 0,00 0,00 8.810,89 0,00 0,00 0,00 0,00 2.105,00 10.915,89 876,95 1.709,37 0,00 0,00 2.586,32 8.329,57 30/11/2023
110 733200 ALINE APARECIDA DO PRADO TERRITO ASSESSOR ADMINISTRATIVO II BELO HORIZONTE - COMARCA; ESCRITORIO DE PROTECAO DE DADOS PESSOAIS 0,00 0,00 7.506,70 0,00 0,00 0,00 0,00 2.105,00 9.611,70 876,95 1.350,72 0,00 0,00 2.227,67 7.384,03 30/11/2023
111 622400 ALINE BALBINO PORTUGAL LOPES ANALISTA DO MP TRÊS PONTAS - COMARCA; TRES PONTAS-PJ-03PJ 12.343,61 1.234,36 0,00 0,00 0,00 0,00 1.167,40 3.055,00 17.800,37 1.953,42 2.311,79 0,00 220,43 4.485,64 13.314,73 30/11/2023
112 373000 ALINE BOTELHO RESENDE OFICIAL DO MP JUIZ DE FORA - COMARCA; JUIZ DE FORA-PJ-22PJ 12.343,61 3.703,08 0,00 0,00 0,00 0,00 0,00 2.105,00 18.151,69 2.348,42 2.882,06 0,00 248,30 5.478,78 12.672,91 30/11/2023
113 699800 ALINE CRISTINA DE OLIVEIRA AMARAL BARBOSA ASSESSOR PROCURADOR JUSTICA BELO HORIZONTE - COMARCA; GABINETE DE PROCURADOR DE JUSTIÇA - SALA 904 0,00 0,00 8.810,89 0,00 0,00 0,00 0,00 2.105,00 10.915,89 876,95 1.605,10 0,00 0,00 2.482,05 8.433,84 30/11/2023
114 407700 ALINE CRISTINA RODRIGUES PEREIRA COORDENADOR II BELO HORIZONTE - COMARCA; DIRETORIA DE PROJETOS DE EDIFICACOES 20.533,67 6.160,10 0,00 0,00 0,00 0,00 4.312,07 2.105,00 33.110,84 2.676,96 6.284,34 0,00 256,38 9.217,68 23.893,16 30/11/2023
115 193100 ALINE CRISTINA SENA OLIVEIRA OFICIAL DO MP UBERLÂNDIA - COMARCA; UBERLANDIA-PJ-03PJ 21.346,53 8.538,61 0,00 0,00 0,00 0,00 4.597,57 3.055,00 37.537,71 4.562,57 5.914,94 0,00 406,08 10.883,59 26.654,12 30/11/2023
116 554200 ALINE CRISTINA SILVA SOUZA OFICIAL DO MP TIROS - COMARCA; TIROS-PJ-UNPJ 7.506,70 1.501,34 0,00 0,00 0,00 0,00 0,00 2.105,00 11.113,04 1.222,23 1.256,14 0,00 142,92 2.621,29 8.491,75 30/11/2023
117 505500 ALINE DA CUNHA MARREIROS OLIVEIRA ANALISTA DO MP EUGENÓPOLIS - COMARCA; EUGENOPOLIS-PJ-UNPJ 12.343,61 2.468,72 0,00 0,00 0,00 0,00 0,00 4.005,00 18.817,33 2.150,92 2.544,79 0,00 256,38 4.952,09 13.865,24 30/11/2023
118 433500 ALINE DE MELO QUEIROZ OFICIAL DO MP BELO HORIZONTE - COMARCA; ASSESSORIA JURIDICA DO PROCON-MG 12.343,61 2.468,72 4.020,58 0,00 0,00 0,00 0,00 3.055,00 21.887,91 2.150,92 3.683,91 0,00 293,44 6.128,27 15.759,64 30/11/2023
119 691100 ALINE DE MELO SOUZA ASSESSOR PROCURADOR JUSTICA BELO HORIZONTE - COMARCA; GABINETE DE PROCURADOR DE JUSTIÇA - SALA 401 0,00 0,00 8.810,89 0,00 0,00 0,00 0,00 2.105,00 10.915,89 876,95 1.709,37 0,00 0,00 2.586,32 8.329,57 30/11/2023
120 542700 ALINE DE SOUSA ALBINO ANALISTA DO MP CONTAGEM - COMARCA; CONTAGEM-PJ-09PJ 12.343,61 2.468,72 0,00 0,00 0,00 0,00 1.244,65 2.105,00 18.161,98 2.150,92 2.596,93 0,00 235,01 4.982,86 13.179,12 30/11/2023
121 330000 ALINE DIORIO MAYRINK OFICIAL DO MP BELO HORIZONTE - COMARCA; SUPER DE GESTAO DE PESSOAS-LOTACAO TEMPORARIA 10.015,59 2.003,12 0,00 0,00 0,00 0,00 1.101,72 2.105,00 15.225,43 1.703,94 1.934,93 0,00 262,10 3.900,97 11.324,46 30/11/2023
122 499000 ALINE FERREIRA LOPES ANALISTA DO MP TEÓFILO OTONI - COMARCA; TEOFILO OTONI-PJ-09PJ 12.343,61 2.468,72 0,00 0,00 0,00 0,00 1.504,69 2.105,00 18.422,02 2.150,92 2.544,79 0,00 256,38 4.952,09 13.469,93 30/11/2023
123 405300 ALINE LAIA CARDOZO SUPERINTENDENTE BELO HORIZONTE - COMARCA; SUPERINTENDENCIA LOGISTICA SERVICOS 28.013,39 8.404,02 0,00 205,26 0,00 0,00 5.882,81 2.105,00 44.610,48 4.465,21 8.662,65 0,00 0,00 13.127,86 31.482,62 30/11/2023
124 278200 ALINE MARCIA FARIA BARBOSA FERNANDES OFICIAL DO MP BARBACENA - COMARCA; BARBACENA-PJ-SECRETARIA 10.516,49 4.206,60 0,00 0,00 0,00 0,00 2.207,54 2.105,00 19.035,63 2.304,91 2.697,47 0,00 274,99 5.277,37 13.758,26 30/11/2023
125 389000 ALINE NERI NOBRE ANALISTA DO MP MONTES CLAROS - COMARCA; COORD REG PJ DEF EDUC DIR CRIANCA ADOL NORTE 20.533,67 8.213,47 0,00 0,00 0,00 0,00 2.402,51 2.105,00 33.254,65 4.380,49 5.815,87 0,00 0,00 10.196,36 23.058,29 30/11/2023
126 294600 ALINE PATRICIA SILVA VIEIRA OFICIAL DO MP UBERLÂNDIA - COMARCA; UBERLANDIA-PJ-03PJ 15.447,01 4.634,10 0,00 0,00 0,00 0,00 3.716,80 2.105,00 25.902,91 2.993,93 4.014,25 0,00 285,18 7.293,36 18.609,55 30/11/2023
127 420000 ALINE RODRIGUES CAMOROPIN ANALISTA DO MP SABARÁ - COMARCA; SABARA-PJ-02PJ 18.720,84 3.744,17 0,00 0,00 0,00 0,00 1.994,38 2.105,00 26.564,39 3.375,35 4.334,51 0,00 109,78 7.819,64 18.744,75 30/11/2023
128 715800 ALINE SANTOS PEDROSA MAIA BARBOSA ASSESSOR PROCURADOR JUSTICA BELO HORIZONTE - COMARCA; GABINETE DE PROCURADOR DE JUSTIÇA - SALA 1010 0,00 0,00 8.810,89 0,00 0,00 0,00 0,00 2.105,00 10.915,89 876,95 1.709,37 0,00 0,00 2.586,32 8.329,57 30/11/2023
129 699600 ALINE SEPULVEDA ROSA PIRES ASSESSOR PROCURADOR JUSTICA BELO HORIZONTE - COMARCA; GABINETE DE PROCURADOR DE JUSTIÇA - SALA 905 0,00 0,00 8.810,89 0,00 0,00 0,00 0,00 2.105,00 10.915,89 876,95 1.709,37 0,00 0,00 2.586,32 8.329,57 30/11/2023
130 408300 ALINE SILVA ARAUJO DE PAULA ANALISTA DO MP SÃO SEBASTIÃO DO PARAÍSO - COMARCA; SAO SEBASTIAO DO PARAISO-PJ-02PJ 18.720,84 5.616,25 0,00 0,00 0,00 0,00 3.866,47 2.105,00 30.308,56 982,16 5.872,46 0,00 0,00 6.854,62 23.453,94 30/11/2023
131 734300 ALINE TAVARES GURGEL ASSESSOR ADMINISTRATIVO III BELO HORIZONTE - COMARCA; SECRETARIA-GERAL 0,00 0,00 10.858,90 0,00 0,00 0,00 0,00 2.105,00 12.963,90 876,95 2.272,58 0,00 0,00 3.149,53 9.814,37 30/11/2023
132 425400 ALINE TRINDADE DE FREITAS CAMPOS OFICIAL DO MP BELO HORIZONTE - COMARCA; PROMOT ESTADUAL DE DEF PATRI CULT E TUR DE MG 12.343,61 2.468,72 0,00 0,00 0,00 0,00 0,00 2.105,00 16.917,33 2.150,92 2.596,93 0,00 232,89 4.980,74 11.936,59 30/11/2023
133 753900 ALINI PEREIRA DE ALMEIDA ASSESSOR PROMOTOR JUSTICA CAMPOS GERAIS - COMARCA; CAMPOS GERAIS-PJ-01PJ 0,00 0,00 8.810,89 0,00 0,00 0,00 0,00 2.105,00 10.915,89 876,95 1.709,37 0,00 0,00 2.586,32 8.329,57 30/11/2023
134 517200 ALISSOM PEREIRA DA SILVA ANALISTA DO MP BORDA DA MATA - COMARCA; BORDA DA MATA-PJ-UNPJ 12.343,61 3.703,08 0,00 0,00 0,00 0,00 1.357,80 3.055,00 20.459,49 2.348,42 2.882,06 0,00 256,38 5.486,86 14.972,63 30/11/2023
135 442400 ALISSON LABRE ANALISTA DO MP VARGINHA - COMARCA; VARGINHA-PJ-03PJ 13.588,97 2.717,79 0,00 0,00 0,00 0,00 1.447,66 2.105,00 19.859,42 982,16 3.329,31 0,00 0,00 4.311,47 15.547,95 30/11/2023
136 643800 ALLAN PAUL FONSECA DE CASTRO OFICIAL DO MP CONTAGEM - COMARCA; CONTAGEM-PJ-SECRETARIA 7.270,07 727,01 2.918,39 0,00 0,00 0,00 0,00 3.055,00 13.970,47 982,16 1.846,70 0,00 0,00 2.828,86 11.141,61 30/11/2023
137 612900 ALLAN VINICIUS VIEIRA ARAUJO COORDENADOR II BELO HORIZONTE - COMARCA; DIRETORIA DE GESTAO DOCUMENTAL 20.533,67 2.053,37 0,00 0,00 0,00 0,00 2.070,48 2.105,00 26.762,52 1.102,13 5.023,39 0,00 142,92 6.268,44 20.494,08 30/11/2023
138 349000 ALLEC RODRIGUES VIEIRA OFICIAL DO MP CAPINÓPOLIS - COMARCA; CAO-CIVEL 12.343,61 3.703,08 0,00 0,00 0,00 0,00 1.470,95 2.105,00 19.622,64 2.348,42 2.882,06 0,00 277,74 5.508,22 14.114,42 30/11/2023
139 297300 ALLYSON SALIBA MONTEIRO LAIZO ANALISTA DO MP CONSELHEIRO LAFAIETE - COMARCA; CONSELHEIRO LAFAIETE-PJ-03PJ 23.070,31 6.921,09 0,00 0,00 0,00 0,00 2.749,21 3.055,00 35.795,61 4.579,57 6.009,37 0,00 843,35 11.432,29 24.363,32 30/11/2023
140 303700 ALMIR LOPES LOURES ANALISTA DO MP BELO HORIZONTE - COMARCA; CENTRAL DE APOIO TECN-SETOR DE MEIO AMBIENTE 23.070,31 6.921,09 0,00 0,00 0,00 0,00 3.046,62 2.105,00 35.143,02 4.579,57 6.009,37 0,00 594,18 11.183,12 23.959,90 30/11/2023
141 743900 ALMIR MOREIRA DOS SANTOS ANALISTA DO MP BELO HORIZONTE - COMARCA; DIRETORIA DE ADMINISTRACAO FINANCEIRA 7.040,78 0,00 0,00 0,00 0,00 0,00 0,00 2.105,00 9.145,78 909,81 696,78 0,00 0,00 1.606,59 7.539,19 30/11/2023
142 696600 ALOIZIO MARTINS JALES JUNIOR ASSESSOR PROMOTOR JUSTICA CAMPESTRE - COMARCA; CAMPESTRE-PJ-SECRETARIA 0,00 0,00 8.810,89 0,00 0,00 0,00 290,76 2.105,00 11.206,65 876,95 1.709,37 0,00 0,00 2.586,32 8.620,33 30/11/2023
143 515900 ALTAIR NEVES JUNIOR OFICIAL DO MP BELO HORIZONTE - COMARCA; BH-01PJ FAZENDA PUBLICA-SECRETARIA 10.516,49 2.103,30 0,00 0,00 0,00 0,00 1.066,97 2.105,00 15.791,76 1.800,11 2.074,30 0,00 253,83 4.128,24 11.663,52 30/11/2023
144 233300 ALVARINDO BATISTA ANALISTA DO MP BELO HORIZONTE - COMARCA; DIR CRIACAO E MIDIAS 23.070,31 9.228,12 0,00 0,00 0,00 0,00 0,00 3.055,00 35.353,43 4.948,70 6.584,08 0,00 0,00 11.532,78 23.820,65 30/11/2023
145 750400 ALVARO HENRIQUE FERREIRA DA SILVA OFICIAL DO MP COMARCA - JUATUBA; JUATUBA-PJ-UNPJ 4.570,25 0,00 0,00 0,00 0,00 0,00 0,00 2.105,00 6.675,25 526,88 257,78 0,00 0,00 784,66 5.890,59 30/11/2023
146 274100 ALYSSON CARVALHO VIDAL DE LACERDA OFICIAL DO MP MANHUAÇU - COMARCA; MANHUACU-PJ-01PJ 12.343,61 4.937,44 0,00 0,00 0,00 0,00 0,00 2.105,00 19.386,05 2.545,92 3.167,20 0,00 277,74 5.990,86 13.395,19 30/11/2023
147 621000 AMANDA BASTOS ALVES ANALISTA DO MP BELO HORIZONTE - COMARCA; BH-07PJ 02 TRIBUNAL DO JURI-GAB 066PJ 12.343,61 1.234,36 0,00 0,00 0,00 0,00 0,00 2.105,00 15.682,97 982,16 2.453,68 0,00 0,00 3.435,84 12.247,13 30/11/2023
148 521700 AMANDA CRISTINA AGUIAR MACHADO OFICIAL DO MP CONGONHAS - COMARCA; CONGONHAS-PJ-01PJ 7.506,70 1.501,34 0,00 0,00 0,00 0,00 0,00 2.105,00 11.113,04 1.222,23 1.204,00 0,00 155,91 2.582,14 8.530,90 30/11/2023
149 733500 AMANDA CRISTINA GONCALVES ASSESSOR ADMINISTRATIVO I PARACATU - COMARCA; COORD REG AP COM INCL MOB SOCIAIS NOROESTE MG 0,00 0,00 4.872,71 0,00 0,00 0,00 0,00 2.105,00 6.977,71 718,08 670,06 0,00 0,00 1.388,14 5.589,57 30/11/2023
150 713900 AMANDA DE ARAUJO CARVALHO ASSESSOR PROMOTOR JUSTICA ARAÇUAÍ - COMARCA; ARACUAI-PJ-01PJ 0,00 0,00 8.810,89 0,00 0,00 0,00 823,43 2.105,00 11.739,32 876,95 1.709,37 0,00 0,00 2.586,32 9.153,00 30/11/2023
151 613400 AMANDA DE ASSIS IUNES SANTOS ANALISTA DO MP CONGONHAS - COMARCA; CONGONHAS-PJ-01PJ 12.343,61 1.234,36 0,00 0,00 0,00 0,00 0,00 2.105,00 15.682,97 1.953,42 2.311,79 0,00 220,43 4.485,64 11.197,33 30/11/2023
152 695900 AMANDA DE OLIVEIRA ASSESSOR PROCURADOR JUSTICA BELO HORIZONTE - COMARCA; PROC JUST ATUACAO TRIBUNAIS SUPERIORES-GAB004 0,00 0,00 8.810,89 0,00 0,00 0,00 807,66 -1.066,92 8.551,63 876,95 1.709,37 0,00 290,76 2.877,08 5.674,55 30/11/2023
153 520800 AMANDA DE SOUZA MACHADO ANALISTA DO MP BAEPENDI - COMARCA; BAEPENDI-PJ-UNPJ 12.343,61 2.468,72 0,00 0,00 0,00 0,00 1.357,81 2.105,00 18.275,14 2.150,92 2.492,65 0,00 256,38 4.899,95 13.375,19 30/11/2023
154 663900 AMANDA DENISE GONCALVES DA SILVA ASSESSOR ADMINISTRATIVO I BELO HORIZONTE - COMARCA; SECRETARIA DO PROCON-MG 0,00 0,00 4.872,71 0,00 0,00 0,00 446,66 2.105,00 7.424,37 718,08 670,06 0,00 0,00 1.388,14 6.036,23 30/11/2023
155 754800 AMANDA MAGALHAES DE CARVALHO E SILVA ASSESSOR PROCURADOR JUSTICA BELO HORIZONTE - COMARCA; GABINETE DE PROCURADOR DE JUSTIÇA - SALA 1008 0,00 0,00 8.810,89 0,00 0,00 0,00 0,00 2.105,00 10.915,89 876,95 1.709,37 0,00 0,00 2.586,32 8.329,57 30/11/2023
156 543100 AMANDA VIEIRA FREITAS ANALISTA DO MP VARGINHA - COMARCA; COORD REG DEF ORDEM ECON TRIB VARGINHA 12.343,61 2.468,72 0,00 0,00 0,00 0,00 0,00 2.105,00 16.917,33 2.150,92 2.544,79 0,00 235,01 4.930,72 11.986,61 30/11/2023
157 434400 AMARILIS ASSIS SIMAO CURCIO ANALISTA DO MP BELO HORIZONTE - COMARCA; DIRETORIA GESTAO COMPRAS LICITACOES 12.343,61 3.703,08 0,00 0,00 0,00 0,00 0,00 2.105,00 18.151,69 2.348,42 2.882,06 0,00 256,38 5.486,86 12.664,83 30/11/2023
158 652000 AMAURI SILVA ALVES ASSESSOR ADMINISTRATIVO III BELO HORIZONTE - COMARCA; DIRETORIA GESTAO COMPRAS LICITACOES 10.858,90 1.085,89 0,00 0,00 0,00 0,00 0,00 2.105,00 14.049,79 944,43 2.140,14 0,00 0,00 3.084,57 10.965,22 30/11/2023
159 58000 AMELIA GUARIZE DE CASTRO OFICIAL DO MP JUIZ DE FORA - COMARCA; JUIZ DE FORA-PJ-SECRETARIA 8.264,07 9.090,49 0,00 286,08 0,00 2.557,68 1.811,98 2.105,00 24.115,30 2.557,68 3.887,54 0,00 286,08 6.731,30 17.384,00 30/11/2023
160 324301 AMERICA SUELI FERREIRA DA SILVA ANALISTA DO MP UBERLÂNDIA - COMARCA; UBERLANDIA-PJ-02PJ 12.343,61 3.703,08 0,00 0,00 0,00 0,00 1.357,80 2.105,00 19.509,49 2.348,42 2.829,93 0,00 256,38 5.434,73 14.074,76 30/11/2023
161 273300 AMUJACY DE BRITO ASSIZ OFICIAL DO MP BELO HORIZONTE - COMARCA; BH-12PJ JUIZO CRIMINAL-SECRETARIA 12.343,61 4.937,44 0,00 0,00 0,00 0,00 0,00 2.105,00 19.386,05 2.545,92 2.958,65 0,00 277,74 5.782,31 13.603,74 30/11/2023
162 482200 ANA ALICE LOPES ACHTSCHIN ANALISTA DO MP BELO HORIZONTE - COMARCA; PROC JUST ATUACAO TRIBUNAIS SUPERIORES-GAB005 15.447,01 3.089,40 0,00 0,00 0,00 0,00 1.645,61 2.105,00 22.287,02 2.746,77 3.457,19 0,00 0,00 6.203,96 16.083,06 30/11/2023
163 490400 ANA AMELIA PAULINO GARCIA OFICIAL DO MP CONTAGEM - COMARCA; CONTAGEM-PJ-SECRETARIA 10.858,90 2.171,78 0,00 0,00 0,00 0,00 0,00 3.055,00 16.085,68 1.865,86 2.090,10 0,00 358,29 4.314,25 11.771,43 30/11/2023
164 714900 ANA BEATRIZ LOBATO ALVES DE CARVALHO ASSESSOR PROCURADOR JUSTICA BELO HORIZONTE - COMARCA; GABINETE DE PROCURADOR DE JUSTIÇA - SALA 414 0,00 3.524,36 8.810,89 0,00 0,00 0,00 0,00 2.105,00 14.440,25 876,95 2.678,57 0,00 0,00 3.555,52 10.884,73 30/11/2023
165 279100 ANA CAROLINA ARAUJO PEREIRA ANALISTA DO MP BELO HORIZONTE - COMARCA; DIRETORIA DE PROJETOS DE EDIFICACOES 23.070,31 9.228,12 0,00 0,00 0,00 0,00 0,00 2.105,00 34.403,43 4.948,70 6.477,78 0,00 386,54 11.813,02 22.590,41 30/11/2023
166 653300 ANA CAROLINA CYRNE DINIZ ASSESSOR ADMINISTRATIVO III BELO HORIZONTE - COMARCA; CENTRAL DE APOIO TECNICO-SETOR CONTABIL 0,00 0,00 10.858,90 0,00 0,00 0,00 0,00 2.105,00 12.963,90 876,95 2.272,58 0,00 0,00 3.149,53 9.814,37 30/11/2023
167 359400 ANA CAROLINA DE ABREU FARIA ASSESSOR ADMINISTRATIVO IV BELO HORIZONTE - COMARCA; SUPERINTENDÊNCIA DE ENGENHARIA E ARQUITETURA 0,00 0,00 14.488,22 0,00 0,00 0,00 0,00 3.055,00 17.543,22 876,95 3.218,50 0,00 0,00 4.095,45 13.447,77 30/11/2023
168 408500 ANA CAROLINA DE CASTRO CARVALHO ANALISTA DO MP BARBACENA - COMARCA; BARBACENA - SECRETARIA DAS PJS CRIMINAIS 18.720,84 5.616,25 0,00 0,00 0,00 0,00 3.866,48 3.055,00 31.258,57 3.974,42 5.229,60 0,00 0,00 9.204,02 22.054,55 30/11/2023
169 688000 ANA CAROLINA DE OLIVEIRA PINTO ASSESSOR PROCURADOR JUSTICA BELO HORIZONTE - COMARCA; GABINETE DE PROCURADOR DE JUSTIÇA - SALA 1011 0,00 0,00 8.810,89 0,00 0,00 0,00 0,00 2.105,00 10.915,89 876,95 1.709,37 0,00 0,00 2.586,32 8.329,57 30/11/2023
170 420200 ANA CAROLINA FERNANDES SILVA ANALISTA DO MP BELO HORIZONTE - COMARCA; GABINETE DE PROCURADOR DE JUSTIÇA - SALA 704 18.130,77 3.626,15 0,00 0,00 0,00 0,00 558,43 8.196,94 30.512,29 3.262,06 4.116,16 0,00 308,97 7.687,19 22.825,10 30/11/2023
171 522100 ANA CAROLINA FERNANDINO VIDAL PEREIRA SANTOS OFICIAL DO MP BELO HORIZONTE - COMARCA; CAO-CRIANCAS E ADOLESCENTES-SECRETARIA 10.516,49 2.103,30 0,00 0,00 0,00 0,00 640,18 2.105,00 15.364,97 982,16 2.209,95 0,00 0,00 3.192,11 12.172,86 30/11/2023
172 716001 ANA CAROLINA FIGUEIREDO SILVA ASSESSOR ADMINISTRATIVO II BELO HORIZONTE - COMARCA; PROC JUST ATUACAO TRIBUNAIS SUPERIORES-GAB003 0,00 0,00 7.506,70 0,00 0,00 0,00 0,00 2.105,00 9.611,70 876,95 1.350,72 0,00 0,00 2.227,67 7.384,03 30/11/2023
173 502400 ANA CAROLINA GONCALVES FERNANDES ANALISTA DO MP IPATINGA - COMARCA; IPATINGA-PJ-01PJ 12.343,61 2.468,72 0,00 0,00 0,00 0,00 1.357,79 4.005,00 20.175,12 982,16 2.767,68 0,00 0,00 3.749,84 16.425,28 30/11/2023
174 529900 ANA CAROLINA GONCALVES PECANHA CHEQUER ANALISTA DO MP MANHUAÇU - COMARCA; MANHUACU-PJ-04PJ 12.343,61 2.468,72 0,00 0,00 0,00 0,00 0,00 4.005,00 18.817,33 2.150,92 2.596,93 0,00 235,01 4.982,86 13.834,47 30/11/2023
175 431900 ANA CAROLINA MOTTA GUATIMOSIM ANALISTA DO MP BELO HORIZONTE - COMARCA; ASSESSORIA JURIDICO-ADMINISTRATIVA 18.130,77 3.626,15 0,00 0,00 0,00 0,00 0,00 3.055,00 24.811,92 3.262,06 4.116,16 0,00 308,96 7.687,18 17.124,74 30/11/2023
176 490600 ANA CAROLINA XAVIER GODOY ANALISTA DO MP BELO HORIZONTE - COMARCA; BH-18PJ VIOLENCIA DOMESTICA-GAB 007PJ 12.343,61 2.468,72 0,00 0,00 0,00 0,00 1.357,81 4.005,00 20.175,14 2.150,92 2.492,65 0,00 256,38 4.899,95 15.275,19 30/11/2023
177 600300 ANA CAROLINE PEREIRA DINIZ ANALISTA DO MP BELO HORIZONTE - COMARCA; PROC JUST ESP ACOES COMP ORIG CRIMINAL-SEC 12.343,61 2.468,72 0,00 0,00 0,00 0,00 1.244,66 3.055,00 19.111,99 2.150,92 2.596,93 0,00 235,01 4.982,86 14.129,13 30/11/2023
178 615800 ANA CAROLINE PEREIRA OLIVEIRA OFICIAL DO MP ALFENAS - COMARCA; ALFENAS-PJ-06PJ 7.506,70 750,67 0,00 0,00 0,00 0,00 756,94 2.105,00 11.119,31 1.094,39 1.082,73 0,00 142,92 2.320,04 8.799,27 30/11/2023
179 324800 ANA CECILIA MENDES DA SILVA OFICIAL DO MP OURO FINO - COMARCA; OURO FINO-PJ-01PJ 12.343,61 4.937,44 0,00 0,00 0,00 0,00 0,00 2.105,00 19.386,05 2.545,92 3.115,06 0,00 299,11 5.960,09 13.425,96 30/11/2023
180 736000 ANA CLARA FERREIRA AMARAL ASSESSOR ADMINISTRATIVO I BELO HORIZONTE - COMARCA; PROCURADOR-GERAL DE JUSTICA- GABINETE 0,00 0,00 4.872,71 0,00 0,00 0,00 0,00 2.105,00 6.977,71 718,08 670,06 0,00 0,00 1.388,14 5.589,57 30/11/2023
181 704100 ANA CLARA MARTINS ALBUQUERQUE ASSESSOR DE CAO BELO HORIZONTE - COMARCA; CAO-CRIANCAS E ADOLESCENTES-ASS TECNICA 0,00 0,00 7.506,70 0,00 0,00 0,00 0,00 2.105,00 9.611,70 876,95 1.350,72 0,00 0,00 2.227,67 7.384,03 30/11/2023
182 698700 ANA CLARA SANTOS ALMEIDA ASSESSOR PROMOTOR JUSTICA SABINÓPOLIS - COMARCA; SABINOPOLIS-PJ-UNPJ 0,00 0,00 8.810,89 0,00 0,00 0,00 0,00 2.105,00 10.915,89 876,95 1.709,37 0,00 0,00 2.586,32 8.329,57 30/11/2023
183 756400 ANA CLARA SOARES PEREIRA BARBOSA ASSESSOR PROMOTOR JUSTICA CARMO DO PARANAÍBA - COMARCA; CARMO DO PARANAIBA-PJ-01PJ 0,00 0,00 8.810,89 0,00 0,00 0,00 4.405,45 3.528,18 16.744,52 876,95 3.145,87 0,00 0,00 4.022,82 12.721,70 30/11/2023
184 441300 ANA CLAUDIA ALKIMIM MIRANDA BOMTEMPO ANALISTA DO MP MONTES CLAROS - COMARCA; MONTES CLAROS-PJ-11PJ 18.130,77 3.626,15 0,00 0,00 0,00 0,00 0,00 2.105,00 23.861,92 3.262,06 4.011,89 0,00 308,96 7.582,91 16.279,01 30/11/2023
185 642500 ANA CLAUDIA DA COSTA NAVES OFICIAL DO MP MONTE CARMELO - COMARCA; MONTE CARMELO-PJ-02PJ 6.603,76 660,38 0,00 0,00 0,00 0,00 0,00 3.278,38 10.542,52 1.054,86 852,96 0,00 0,00 1.907,82 8.634,70 30/11/2023
186 604900 ANA CLAUDIA OLIVEIRA DE MIRANDA OFICIAL DO MP PONTE NOVA - COMARCA; PONTE NOVA-PJ-04PJ 7.506,70 750,67 0,00 0,00 0,00 0,00 0,00 2.105,00 10.362,37 1.102,13 997,30 0,00 250,90 2.350,33 8.012,04 30/11/2023
187 379300 ANA CRISTINA ALVES FLAVIO ANALISTA DO MP SÃO GOTARDO - COMARCA; SAO GOTARDO-PJ-01PJ 20.533,67 6.160,10 0,00 0,00 0,00 0,00 489,39 8.393,75 35.576,91 4.051,95 5.258,25 0,00 113,30 9.423,50 26.153,41 30/11/2023
188 461200 ANA CRISTINA ALVES PASCHOAL ANALISTA DO MP BELO HORIZONTE - COMARCA; BH-07PJ 03 TRIBUNAL DO JURI-GAB 064PJ 12.343,61 2.468,72 0,00 0,00 0,00 0,00 0,00 -857,47 13.954,86 2.150,92 2.544,79 0,00 527,94 5.223,65 8.731,21 30/11/2023
189 514100 ANA CRISTINA ARAUJO ASSUNCAO ANALISTA DO MP BELO HORIZONTE - COMARCA; ASSESS JUR DO CONS SUPERIOR DO MINISTERIO PUB 12.343,61 3.184,65 0,00 0,00 0,00 0,00 543,12 3.055,00 19.126,38 2.265,47 2.710,17 0,00 256,38 5.232,02 13.894,36 30/11/2023
190 113401 ANA CRISTINA BRAGA ALBUQUERQUE ASSESSOR ADM. ESPECIAL BELO HORIZONTE - COMARCA; DIRETORIA-GERAL 0,00 0,00 28.013,39 0,00 0,00 0,00 0,00 1.500,00 29.513,39 876,95 6.990,06 0,00 0,00 7.867,01 21.646,38 30/11/2023
191 233800 ANA CRISTINA BRAGA SOARES OFICIAL DO MP BELO HORIZONTE - COMARCA; DIRETORIA DE CONTABILIDADE 15.447,01 6.178,80 0,00 0,00 0,00 0,00 0,00 2.105,00 23.730,81 3.241,08 4.066,57 0,00 0,00 7.307,65 16.423,16 30/11/2023
192 186400 ANA CRISTINA DE AZEVEDO LOPES OFICIAL DO MP UBÁ - COMARCA; UBA-PJ-01PJ 21.346,53 8.538,61 0,00 0,00 0,00 0,00 10.335,27 3.348,92 43.569,33 5.455,08 7.367,31 0,00 0,00 12.822,39 30.746,94 30/11/2023
193 465100 ANA CRISTINA DE OLIVEIRA GUIMARAES ANALISTA DO MP ITAJUBA - COMARCA; ITAJUBA-PJ-05PJ 12.343,61 2.468,72 0,00 0,00 0,00 0,00 1.357,81 3.055,00 19.225,14 2.150,92 2.492,65 0,00 256,38 4.899,95 14.325,19 30/11/2023
194 500600 ANA CRISTINA LATADO SUDARIO ANALISTA DO MP UBERLÂNDIA - COMARCA; UBERLANDIA-PJ-09PJ 12.343,61 2.468,72 0,00 0,00 0,00 0,00 760,36 2.105,00 17.677,69 2.150,92 2.596,93 0,00 256,38 5.004,23 12.673,46 30/11/2023
195 331400 ANA CRISTINA RIBEIRO ALVES OFICIAL DO MP BAMBUÍ - COMARCA; BAMBUI-PJ-UNPJ 12.343,61 3.703,08 0,00 0,00 0,00 0,00 1.470,95 2.105,00 19.622,64 2.348,42 2.829,93 0,00 277,74 5.456,09 14.166,55 30/11/2023
196 249300 ANA ELOINA MARTINS OFICIAL DO MP BETIM - COMARCA; BETIM-PJ-02PJ 18.130,77 9.065,39 0,00 0,00 0,00 0,00 11.671,11 4.156,46 43.023,73 5.297,13 7.093,02 0,00 168,18 12.558,33 30.465,40 30/11/2023
197 257400 ANA FLAVIA CAMBRAIA ANALISTA DO MP BELO HORIZONTE - COMARCA; BH-19PJ SAUDE-SECRETARIA 150PJ 23.070,31 9.228,12 0,00 0,00 0,00 10.712,18 3.506,98 8.064,54 54.582,13 4.948,70 9.169,77 0,00 1.309,65 15.428,12 39.154,01 30/11/2023
198 248201 ANA FLAVIA DE MORAIS SOUZA ANALISTA DO MP DIVINÓPOLIS - COMARCA; DIVINOPOLIS-PJ-01PJ 15.447,01 6.178,80 0,00 0,00 0,00 0,00 1.782,72 3.055,00 26.463,53 3.241,08 3.988,14 0,00 285,18 7.514,40 18.949,13 30/11/2023
199 621100 ANA FLAVIA DINIZ TEODORO OFICIAL DO MP SANTA LUZIA - COMARCA; SANTA LUZIA-PJ-06PJ 7.506,70 750,67 0,00 0,00 0,00 0,00 503,29 2.105,00 10.865,66 1.102,13 1.082,73 0,00 142,92 2.327,78 8.537,88 30/11/2023
200 238600 ANA FLAVIA FRANCO OFICIAL DO MP BELO HORIZONTE - COMARCA; DIRETORIA DE PESSOAL ADMINISTRATIVO - DPAD 18.720,84 7.488,34 0,00 0,00 0,00 0,00 2.326,78 2.105,00 30.640,96 3.974,42 5.194,38 0,00 128,08 9.296,88 21.344,08 30/11/2023
201 402900 ANA FLAVIA PORTES DE CARVALHO ANALISTA DO MP BELO HORIZONTE - COMARCA; DIRET DE PLANOS PROJETOS E PROGRAMAS INST 20.533,67 6.160,10 0,00 0,00 0,00 0,00 2.059,29 2.105,00 30.858,06 4.051,95 5.258,25 0,00 113,29 9.423,49 21.434,57 30/11/2023
202 752300 ANA JUSSARA DA SILVA BIANCHETTI OFICIAL DO MP ALTO RIO DOCE - COMARCA; ALTO RIO DOCE-PJ-UNPJ 4.570,25 0,00 0,00 0,00 0,00 0,00 0,00 2.149,73 6.719,98 526,88 257,78 0,00 0,00 784,66 5.935,32 30/11/2023
203 382700 ANA KARENINA SALDANHA GONTIJO ANALISTA DO MP BELO HORIZONTE - COMARCA; ASSESS TECNICO-JUR JUNTO AS PROC. DE JUST 19.751,60 5.925,48 0,00 0,00 0,00 0,00 0,00 -976,25 24.700,83 3.889,28 5.030,63 0,00 559,01 9.478,92 15.221,91 30/11/2023
204 620500 ANA KARINE DE ANDRADE OLIVEIRA ANALISTA DO MP RIBEIRÃO DAS NEVES - COMARCA; RIBEIRAO NEVES-SEC PJ EXECUCAO PENAL 11.577,56 1.157,76 0,00 0,00 0,00 0,00 0,00 2.105,00 14.840,32 1.818,60 2.117,14 0,00 200,23 4.135,97 10.704,35 30/11/2023
205 462200 ANA LUCIA ANDRADE TOMICH OTTONI ANALISTA DO MP TEÓFILO OTONI - COMARCA; TEOFILO OTONI-PJ-07PJ 12.343,61 2.468,72 0,00 0,00 0,00 0,00 760,37 3.055,00 18.627,70 2.150,92 2.492,65 0,00 256,38 4.899,95 13.727,75 30/11/2023
206 504100 ANA LUCIA CATAO DE CARVALHO OFICIAL DO MP BELO HORIZONTE - COMARCA; DIR RELACOES INSTITUCIONAIS 10.858,90 2.171,78 4.020,58 0,00 0,00 0,00 1.156,81 2.105,00 20.313,07 1.865,86 3.195,77 0,00 358,28 5.419,91 14.893,16 30/11/2023
207 274700 ANA LUCIA DE ALENCAR BRAGATO OFICIAL DO MP UBERABA - COMARCA; UBERABA-PJ-07PJ 12.343,61 4.937,44 0,00 0,00 0,00 0,00 1.470,95 2.105,00 20.857,00 2.545,92 3.167,20 0,00 277,74 5.990,86 14.866,14 30/11/2023
208 509400 ANA LUCIA DORNELAS MALLOSTO ANALISTA DO MP JUIZ DE FORA - COMARCA; JUIZ DE FORA-PJ-25PJ 12.343,61 2.468,72 0,00 0,00 0,00 0,00 1.504,69 2.105,00 18.422,02 2.150,92 2.544,79 0,00 256,38 4.952,09 13.469,93 30/11/2023
209 302600 ANA LUCIA LOPES SANTOS OFICIAL DO MP BELO HORIZONTE - COMARCA; DIVISÃO DE FISCALIZAÇÃO DAS RELAÇÕES DE CONSU 12.343,61 3.703,08 0,00 0,00 0,00 0,00 3.405,01 2.105,00 21.556,70 2.348,42 3.317,13 0,00 277,74 5.943,29 15.613,41 30/11/2023
210 716700 ANA LUISA DE LANA COELHO ASSESSOR PROCURADOR JUSTICA BELO HORIZONTE - COMARCA; GABINETE DE PROCURADOR DE JUSTIÇA - SALA 612 0,00 0,00 8.810,89 0,00 0,00 0,00 0,00 2.105,00 10.915,89 876,95 1.709,37 0,00 0,00 2.586,32 8.329,57 30/11/2023
211 702000 ANA LUISA DE OLIVEIRA RIBEIRO ASSESSOR PROCURADOR JUSTICA BELO HORIZONTE - COMARCA; ASSESS TECNICO-JUR JUNTO AS PROC. DE JUST 0,00 0,00 8.810,89 0,00 0,00 0,00 0,00 2.105,00 10.915,89 876,95 1.709,37 0,00 0,00 2.586,32 8.329,57 30/11/2023
212 493400 ANA LUISA NOGUEIRA MOREIRA ANALISTA DO MP BELO HORIZONTE - COMARCA; BH-19PJ SAUDE-SECRETARIA 130PJ 12.343,61 2.468,72 0,00 0,00 0,00 0,00 1.357,79 2.105,00 18.275,12 2.150,92 2.596,93 0,00 256,38 5.004,23 13.270,89 30/11/2023
213 389300 ANA LUISA REUTER LIMA ANALISTA DO MP BELO HORIZONTE - COMARCA; DIRETORIA DE SISTEMAS DE INFORMACAO 20.533,67 6.160,10 5.538,92 0,00 0,00 0,00 0,00 2.105,00 34.337,69 4.051,95 6.833,59 0,00 113,30 10.998,84 23.338,85 30/11/2023
214 480600 ANA LUIZA FERNANDES FRAGA E GRECO COORDENADOR I BELO HORIZONTE - COMARCA; OUVIDORIA DO MPMG 16.469,17 3.293,83 0,00 0,00 0,00 0,00 1.811,62 2.105,00 23.679,62 1.800,11 4.054,83 0,00 195,11 6.050,05 17.629,57 30/11/2023
215 726800 ANA LUIZA GOMES PEREIRA ASSESSOR ADMINISTRATIVO I BELO HORIZONTE - COMARCA; OUVIDORIA DO MPMG 0,00 0,00 4.872,71 0,00 0,00 0,00 446,67 2.105,00 7.424,38 718,08 670,06 0,00 0,00 1.388,14 6.036,24 30/11/2023
216 733600 ANA LUIZA MACHADO RODRIGUES ASSESSOR PROMOTOR JUSTICA CARMO DA MATA - COMARCA; CARMO DA MATA-PJ-UNPJ 0,00 0,00 8.810,89 0,00 0,00 0,00 0,00 2.105,00 10.915,89 876,95 1.709,37 0,00 0,00 2.586,32 8.329,57 30/11/2023
217 517800 ANA LUIZA MAGALHAES CIRINO PIOTO DE MELO OFICIAL DO MP BELO HORIZONTE - COMARCA; DIVISAO DE MATERIAIS 7.506,70 750,67 0,00 0,00 0,00 0,00 0,00 4.005,00 12.262,37 1.102,13 1.072,32 0,00 161,72 2.336,17 9.926,20 30/11/2023
218 481400 ANA MARCIA CANDIDA FERREIRA OFICIAL DO MP BRUMADINHO - COMARCA; BRUMADINHO-PJ-02PJ 7.506,70 1.501,34 0,00 0,00 0,00 0,00 825,73 2.105,00 11.938,77 1.222,23 1.256,14 0,00 155,91 2.634,28 9.304,49 30/11/2023
219 754400 ANA MARIA ANDRADE LARA OFICIAL DO MP BOM SUCESSO - COMARCA; BOM SUCESSO-PJ-UNPJ 4.570,25 0,00 0,00 0,00 0,00 0,00 0,00 2.105,00 6.675,25 526,88 257,78 0,00 0,00 784,66 5.890,59 30/11/2023
220 643100 ANA MARIA LOPES MIRANDA ANALISTA DO MP BELO HORIZONTE - COMARCA; CAO-FUNDACOES 11.212,54 1.121,25 0,00 0,00 0,00 0,00 0,00 3.055,00 15.388,79 982,16 2.037,65 0,00 0,00 3.019,81 12.368,98 30/11/2023
221 556400 ANA MARIA OLIVEIRA SOUZA OFICIAL DO MP ITAPECERICA - COMARCA; ITAPECERICA-PJ-UNPJ 8.264,07 1.652,81 0,00 0,00 0,00 0,00 322,81 2.105,00 12.344,69 1.367,65 1.453,86 0,00 192,01 3.013,52 9.331,17 30/11/2023
222 409600 ANA OLIVIA FARIA ROSENBURG ANALISTA DO MP BELO HORIZONTE - COMARCA; DIRETORIA DO COLEGIO E DA CAMARA DE PJ 18.720,84 7.488,34 0,00 0,00 0,00 0,00 2.326,77 2.105,00 30.640,95 3.974,42 5.229,60 0,00 0,00 9.204,02 21.436,93 30/11/2023
223 461500 ANA PAULA ALVES CARVALHO ANALISTA DO MP UBERLÂNDIA - COMARCA; UBERLANDIA-PJ-25PJ 13.588,97 2.717,79 0,00 0,00 0,00 0,00 0,00 3.055,00 19.361,76 2.390,03 2.815,95 0,00 344,41 5.550,39 13.811,37 30/11/2023
224 523200 ANA PAULA ALVES DA SILVA OFICIAL DO MP GOVERNADOR VALADARES - COMARCA; GOVERNADOR VALADARES-PJ-10PJ 10.516,49 2.103,30 0,00 0,00 0,00 0,00 1.212,41 5.905,00 19.737,20 982,16 2.105,67 0,00 0,00 3.087,83 16.649,37 30/11/2023
225 381200 ANA PAULA BARROS PEREIRA RIGHI ANALISTA DO MP BELO HORIZONTE - COMARCA; DIRETORIA DO COLEGIO E DA CAMARA DE PJ 20.533,67 6.160,10 0,00 0,00 0,00 0,00 1.724,97 8.393,75 36.812,49 982,16 5.737,88 0,00 0,00 6.720,04 30.092,45 30/11/2023
226 696400 ANA PAULA CARVALHO SILVA ASSESSOR PROMOTOR JUSTICA PERDÕES - COMARCA; PERDOES-PJ-UNPJ 0,00 0,00 8.810,89 0,00 0,00 0,00 484,60 3.055,00 12.350,49 876,95 1.657,24 0,00 0,00 2.534,19 9.816,30 30/11/2023
227 700900 ANA PAULA CRAVO SALOME ASSESSOR ADMINISTRATIVO I BELO HORIZONTE - COMARCA; PROCURADOR-GERAL DE JUSTIÇA 0,00 0,00 4.872,71 0,00 0,00 0,00 232,26 2.105,00 7.209,97 718,08 670,06 0,00 0,00 1.388,14 5.821,83 30/11/2023
228 227200 ANA PAULA DA SILVA CAMPOLINA ANALISTA DO MP BELO HORIZONTE - COMARCA; DIRETORIA DE ORCAMENTO-DIOR/SPC 23.070,31 11.535,16 0,00 0,00 0,00 0,00 3.172,16 2.105,00 39.882,63 5.317,82 6.742,70 0,00 1.550,72 13.611,24 26.271,39 30/11/2023
229 278500 ANA PAULA DIAS CAPANEMA OFICIAL DO MP BELO HORIZONTE - COMARCA; DIRETORIA DE SEGURANCA 13.588,97 5.435,59 0,00 0,00 0,00 0,00 1.568,30 2.105,00 22.697,86 2.824,88 3.569,95 0,00 278,04 6.672,87 16.024,99 30/11/2023
230 327300 ANA PAULA GARCIA MAXIMO OFICIAL DO MP UNAÍ - COMARCA; UNAI-PJ-01PJ 15.949,86 7.974,93 0,00 0,00 0,00 0,00 2.123,96 2.105,00 28.153,75 3.608,91 4.515,50 0,00 109,09 8.233,50 19.920,25 30/11/2023
231 738700 ANA PAULA GOMES ANTUNES ASSESSOR PROMOTOR JUSTICA CORAÇÃO DE JESUS - COMARCA; CORACAO DE JESUS-PJ-UNPJ 0,00 0,00 8.810,89 0,00 0,00 0,00 0,00 2.105,00 10.915,89 876,95 1.709,37 0,00 0,00 2.586,32 8.329,57 30/11/2023
232 270000 ANA PAULA GOULART CRUZ DE MAGALHAES ANALISTA DO MP BELO HORIZONTE - COMARCA; ASSESSORIA ESPECIAL DO PGJ 23.070,31 9.228,12 0,00 0,00 0,00 0,00 2.749,21 2.105,00 37.152,64 4.948,70 6.542,29 0,00 860,65 12.351,64 24.801,00 30/11/2023
233 262100 ANA PAULA KOMATSUZAKI ABIJAUDI ANALISTA DO MP BELO HORIZONTE - COMARCA; BH-17PJ PATRIMONIO PUBLICO-SECRETARIA 23.070,31 11.535,16 0,00 0,00 0,00 0,00 0,00 2.105,00 36.710,47 5.317,82 6.666,63 0,00 1.448,13 13.432,58 23.277,89 30/11/2023
234 278900 ANA PAULA MOREIRA GURGEL ANALISTA DO MP BELO HORIZONTE - COMARCA; ASSESSORIA JURIDICO-ADMINISTRATIVA 23.070,31 11.535,16 8.404,02 0,00 0,00 0,00 3.250,70 2.105,00 48.365,19 5.317,82 7.989,88 5.419,53 0,00 18.727,23 29.637,96 30/11/2023
235 745500 ANA PAULA OLIVEIRA MENDES OFICIAL DO MP TARUMIRIM - COMARCA; TARUMIRIM-PJ-UNPJ 4.570,25 0,00 0,00 0,00 0,00 0,00 0,00 2.105,00 6.675,25 526,88 257,78 0,00 0,00 784,66 5.890,59 30/11/2023
236 425701 ANA PAULA ROCHA ANALISTA DO MP BELO HORIZONTE - COMARCA; ASSESSORIA DE COMUNICACAO INTEGRADA 12.343,61 2.468,72 0,00 0,00 0,00 0,00 0,00 3.055,00 17.867,33 2.150,92 2.596,93 0,00 235,01 4.982,86 12.884,47 30/11/2023
237 395601 ANA PAULA SALGE OLIVEIRA ANALISTA DO MP UBERABA - COMARCA; UBERABA-PJ-15PJ 12.343,61 4.937,44 0,00 0,00 0,00 0,00 1.470,96 2.105,00 20.857,01 2.545,92 3.167,20 0,00 277,74 5.990,86 14.866,15 30/11/2023
238 473200 ANA PAULA SCOTTON BRASIL ANALISTA DO MP JUIZ DE FORA - COMARCA; JUIZ DE FORA-PJ-17PJ 12.220,17 2.468,72 0,00 0,00 0,00 0,00 1.357,79 2.105,00 18.151,68 2.150,92 2.562,98 0,00 256,38 4.970,28 13.181,40 30/11/2023
239 633600 ANA PAULA SILVA FERNANDES OFICIAL DO MP CATAGUASES - COMARCA; CATAGUASES-PJ-04PJ 7.506,70 750,67 0,00 0,00 0,00 0,00 0,00 2.105,00 10.362,37 1.102,13 1.082,73 0,00 138,42 2.323,28 8.039,09 30/11/2023
240 470900 ANA PAULA VALADARES ANALISTA DO MP PITANGUI - COMARCA; PITANGUI-PJ-01PJ 12.343,61 2.468,72 0,00 0,00 0,00 0,00 0,00 2.105,00 16.917,33 2.150,92 2.492,65 0,00 256,38 4.899,95 12.017,38 30/11/2023
241 447000 ANA PAULA VALENTIM DE ARAUJO ANALISTA DO MP BELO HORIZONTE - COMARCA; PROC JUST ESP ACOES COMP ORIG CRIMINAL-ASSESS 14.960,00 2.992,00 0,00 0,00 0,00 0,00 0,00 -1.485,40 16.466,60 2.653,27 3.322,19 0,00 611,36 6.586,82 9.879,78 30/11/2023
242 604200 ANA PAULA VIANA E SILVA OFICIAL DO MP BELO HORIZONTE - COMARCA; BH-17PJ PATRIMONIO PUBLICO-SECRETARIA 7.506,70 1.501,34 0,00 0,00 0,00 0,00 750,67 2.105,00 11.863,71 1.342,34 1.429,54 0,00 142,92 2.914,80 8.948,91 30/11/2023
243 505400 ANA PAULA VIEIRA SOUTO OFICIAL DO MP ALMENARA - COMARCA; ALMENARA-PJ-01PJ 7.506,70 3.002,68 0,00 0,00 0,00 0,00 0,00 2.105,00 12.614,38 1.462,45 1.550,81 0,00 181,90 3.195,16 9.419,22 30/11/2023
244 280200 ANA RACHEL BRANDAO LADEIRA ROLAND ANALISTA DO MP BELO HORIZONTE - COMARCA; SUPERINTENDENCIA GESTÃO DE PESSOAS 23.070,31 9.228,12 8.404,02 0,00 0,00 0,00 2.307,03 2.105,00 45.114,48 5.317,82 8.387,63 3.112,49 860,66 17.678,60 27.435,88 30/11/2023
245 601200 ANA REGINA RIBEIRO ANALISTA DO MP BELO HORIZONTE - COMARCA; DIV FISCAL ADM CONT TERCEIRIZACAO 12.343,61 2.468,72 4.940,75 0,00 0,00 0,00 1.697,54 2.105,00 23.555,62 982,16 4.024,48 0,00 0,00 5.006,64 18.548,98 30/11/2023
246 384700 ANA RODRIGUES PEREIRA MARRA ANALISTA DO MP BELO HORIZONTE - COMARCA; CENT ESTAD COOPERACAO TECNICO-JURIDICA 12.343,61 3.703,08 0,00 0,00 0,00 0,00 1.357,80 3.055,00 20.459,49 2.348,42 2.777,79 0,00 256,38 5.382,59 15.076,90 30/11/2023
247 232700 ANA SILVIA SEMBLANO NAKAMURA OFICIAL DO MP BELO HORIZONTE - COMARCA; CENT DE APOIO TEC-SETOR DEF,IDOSO E INFANC 12.343,61 4.937,44 4.020,58 0,00 0,00 0,00 0,00 2.105,00 23.406,63 2.545,92 4.272,86 0,00 0,00 6.818,78 16.587,85 30/11/2023
248 602100 ANACLETO FRANCISCO MARCIER PIMENTA OFICIAL DO MP SÃO JOÃO DEL REI - COMARCA; SAO JOAO DEL REI-PJ-03PJ 7.506,70 1.501,34 0,00 0,00 0,00 0,00 0,00 4.005,00 13.013,04 1.222,23 995,45 0,00 142,92 2.360,60 10.652,44 30/11/2023
249 310400 ANADEJE DO CARMO DINIZ ARAUJO OFICIAL DO MP BELO HORIZONTE - COMARCA; DIRETORIA DE PESSOAL ADMINISTRATIVO - DPAD 12.343,61 3.703,08 0,00 0,00 0,00 0,00 1.470,95 2.105,00 19.622,64 2.348,42 2.882,06 0,00 277,74 5.508,22 14.114,42 30/11/2023
250 337000 ANAILDES MARIA MENDES OFICIAL DO MP JANAÚBA - COMARCA; JANAUBA-PJ-02PJ 12.343,61 3.703,08 0,00 0,00 0,00 0,00 1.470,95 3.055,00 20.572,64 2.348,42 2.882,06 0,00 277,74 5.508,22 15.064,42 30/11/2023
251 750200 ANALU BATISTA TORQUATO ARAUJO ASSESSOR DE CAO BELO HORIZONTE - COMARCA; CAO-ORDEM ECONOMICA E TRIBUTARIA 0,00 0,00 7.506,70 0,00 0,00 0,00 0,00 2.105,00 9.611,70 876,95 1.350,72 0,00 0,00 2.227,67 7.384,03 30/11/2023
252 377400 ANDEIRSON DA MATTA BARBOSA ANALISTA DO MP POUSO ALEGRE - COMARCA; POUSO ALEGRE-PJ-01PJ 12.343,61 3.703,08 0,00 0,00 0,00 0,00 814,68 3.055,00 19.916,37 2.348,42 2.882,06 0,00 256,38 5.486,86 14.429,51 30/11/2023
253 317400 ANDERSON DA SILVA BICALHO OFICIAL DO MP CONTAGEM - COMARCA; CONTAGEM-PJ-SECRETARIA 12.343,61 3.703,08 0,00 0,00 0,00 0,00 0,00 2.105,00 18.151,69 2.348,42 2.725,65 0,00 268,99 5.343,06 12.808,63 30/11/2023
254 506900 ANDERSON DE SOUZA DAMIANI ANALISTA DO MP BELO HORIZONTE - COMARCA; DIRETORIA DE PAGAMENTO DE PESSOAL-DPAG 12.343,61 4.937,44 5.538,92 0,00 0,00 0,00 2.091,83 2.105,00 27.016,80 2.545,92 4.638,27 0,00 0,00 7.184,19 19.832,61 30/11/2023
255 410000 ANDERSON DE SOUZA NETO ASSESSOR ADMINISTRATIVO II BELO HORIZONTE - COMARCA; DIRETORIA DE ADMINISTRACAO FINANCEIRA 0,00 0,00 7.506,70 0,00 0,00 0,00 688,12 2.105,00 10.299,82 876,95 1.350,72 0,00 0,00 2.227,67 8.072,15 30/11/2023
256 181900 ANDERSON FLAVIO DE OLIVEIRA OFICIAL DO MP ITAGUARA - COMARCA; ITAGUARA-PJ-SECRETARIA 18.720,84 7.488,34 0,00 0,00 0,00 0,00 0,00 2.105,00 28.314,18 3.974,42 5.229,60 0,00 0,00 9.204,02 19.110,16 30/11/2023
257 333200 ANDERSON JOSE DE FREITAS OFICIAL DO MP IPATINGA - COMARCA; IPATINGA-PJ-04PJ 12.343,61 3.703,08 0,00 0,00 0,00 0,00 3.405,01 3.055,00 22.506,70 2.348,42 3.212,86 0,00 277,74 5.839,02 16.667,68 30/11/2023
258 699400 ANDERSON LUIZ CABRAL ASSESSOR PROMOTOR JUSTICA ALÉM PARAÍBA - COMARCA; ALEM PARAIBA-PJ-03PJ 0,00 0,00 8.810,89 0,00 0,00 0,00 0,00 2.105,00 10.915,89 876,95 1.709,37 0,00 0,00 2.586,32 8.329,57 30/11/2023
259 462100 ANDERSON LUIZ GUIMARAES CARDOSO ANALISTA DO MP BARBACENA - COMARCA; BARBACENA-PJ-02PJ 15.447,01 4.016,22 0,00 0,00 0,00 0,00 1.645,61 2.105,00 23.213,84 2.895,07 3.671,28 0,00 0,00 6.566,35 16.647,49 30/11/2023
260 429700 ANDERSON MELO DE SOUZA COORDENADOR II BELO HORIZONTE - COMARCA; DIRET DE ESTAGIOS E CONVENIOS ACADEMICOS 20.533,67 4.106,73 0,00 0,00 0,00 0,00 1.593,72 2.105,00 28.339,12 1.222,23 5.555,04 0,00 155,91 6.933,18 21.405,94 30/11/2023
261 545600 ANDERSON MENDES PROCOPIO FERREIRA ANALISTA DO MP BELO HORIZONTE - COMARCA; BH-12PJ JUIZO CRIMINAL-GAB 089PJ 12.343,61 2.468,72 0,00 0,00 0,00 0,00 1.244,65 2.105,00 18.161,98 2.150,92 2.596,93 0,00 235,01 4.982,86 13.179,12 30/11/2023
262 519900 ANDERSON MOREIRA DOEHLER ANALISTA DO MP TEÓFILO OTONI - COMARCA; COORD REG SAUDE MACRORREGIAO SANIT NORDESTE 12.343,61 4.937,44 0,00 0,00 0,00 0,00 443,55 6.943,69 24.668,29 2.545,92 3.167,20 0,00 277,75 5.990,87 18.677,42 30/11/2023
263 103000 ANDERSON TADEU DE DEUS ASSESSOR ADMINISTRATIVO II BELO HORIZONTE - COMARCA; BH-26 CRIME CONT CRIAN ADOL-SECRETARIA 0,00 6.005,36 7.506,70 0,00 0,00 0,00 0,00 6.609,02 20.121,08 876,95 3.002,20 0,00 0,00 3.879,15 16.241,93 30/11/2023
264 309200 ANDITYAS SOARES DE MOURA COSTA MATOS ANALISTA DO MP BELO HORIZONTE - COMARCA; GABINETE DE PROCURADOR DE JUSTIÇA - SALA 909 21.346,53 8.538,61 0,00 0,00 0,00 0,00 0,00 2.105,00 31.990,14 4.562,57 5.975,05 0,00 377,07 10.914,69 21.075,45 30/11/2023
265 519200 ANDRE BORJA LANA ANALISTA DO MP BELO HORIZONTE - COMARCA; DIR CONTEUDO JORNALISTICO 12.343,61 2.468,72 0,00 0,00 0,00 0,00 543,12 3.055,00 18.410,45 2.150,92 2.596,93 0,00 256,38 5.004,23 13.406,22 30/11/2023
266 637200 ANDRE FERNANDES DA CUNHA OFICIAL DO MP MORADA NOVA DE MINAS - COMARCA; MORADA NOVA DE MINAS-PJ-UNPJ 7.506,70 750,67 0,00 0,00 0,00 0,00 0,00 2.105,00 10.362,37 982,16 1.115,72 0,00 0,00 2.097,88 8.264,49 30/11/2023
267 651500 ANDRE GONCALVES MARANHAO OFICIAL DO MP ANDRADAS - COMARCA; ANDRADAS-PJ-02PJ 6.603,76 660,38 0,00 0,00 0,00 0,00 0,00 2.105,00 9.369,14 944,43 843,65 0,00 140,84 1.928,92 7.440,22 30/11/2023
268 521900 ANDRE LUIS GOMES SILVA ANALISTA DO MP FORMIGA - COMARCA; FORMIGA-PJ-02PJ 12.343,61 2.468,72 0,00 0,00 0,00 0,00 1.504,69 4.480,00 20.797,02 2.150,92 2.043,38 0,00 256,38 4.450,68 16.346,34 30/11/2023
269 304300 ANDRE LUIZ AVELAR ANALISTA DO MP BELO HORIZONTE - COMARCA; DIRETORIA DE REDES E BANCOS DE DADOS 10.341,72 3.102,52 0,00 0,00 0,00 0,00 0,00 2.105,00 15.549,24 1.932,03 2.228,76 0,00 232,70 4.393,49 11.155,75 30/11/2023
270 397400 ANDRE PATARO MYRRHA DE PAULA E SILVA ANALISTA DO MP BELO HORIZONTE - COMARCA; ASSESSORIA JURIDICO-ADMINISTRATIVA 20.533,67 6.160,10 0,00 0,00 0,00 0,00 1.235,58 3.055,00 30.984,35 4.051,95 5.310,38 0,00 113,30 9.475,63 21.508,72 30/11/2023
271 650100 ANDRE THOME VARGAS OFICIAL DO MP LEOPOLDINA - COMARCA; LEOPOLDINA-PJ-04PJ 7.270,07 727,01 0,00 0,00 0,00 0,00 665,88 2.105,00 10.767,96 1.039,91 1.053,16 0,00 0,00 2.093,07 8.674,89 30/11/2023
272 548500 ANDRE VINICIUS CARVALHO MEIRA ANALISTA DO MP JUIZ DE FORA - COMARCA; JUIZ DE FORA-PJ-24PJ 12.343,61 2.468,72 0,00 0,00 0,00 0,00 1.244,65 2.105,00 18.161,98 982,16 2.767,68 0,00 0,00 3.749,84 14.412,14 30/11/2023
273 297200 ANDRE WILLE ROSARIO ANALISTA DO MP BELO HORIZONTE - COMARCA; ASSESSORIA ESPECIAL DO PGJ 23.070,31 6.921,09 0,00 0,00 0,00 0,00 2.749,21 2.105,00 34.845,61 4.579,57 5.817,03 0,00 661,79 11.058,39 23.787,22 30/11/2023
274 423600 ANDREA COSTA GUALBERTO ALVES ANALISTA DO MP GOVERNADOR VALADARES - COMARCA; COORD REG PJ DEF EDU DIR CRIANCA ADOL RIODOCE 18.130,77 14.504,62 0,00 516,66 1.240,25 7.199,66 14.377,51 2.105,00 58.074,47 6.983,45 11.783,27 0,00 0,00 18.766,72 39.307,75 30/11/2023
275 467300 ANDREA DE CASSIA PENNA ALVERNAZ ANALISTA DO MP PONTE NOVA - COMARCA; PONTE NOVA-PJ-01PJ 12.343,61 2.468,72 0,00 0,00 0,00 0,00 1.357,80 2.105,00 18.275,13 2.150,92 2.544,79 0,00 256,38 4.952,09 13.323,04 30/11/2023
276 308000 ANDREA DE CASSIA SANTOS OLIVEIRA ANALISTA DO MP BELO HORIZONTE - COMARCA; COORD DE GABINETE DO PGJ 23.070,31 6.921,09 0,00 0,00 0,00 0,00 1.375,14 2.105,00 33.471,54 4.579,57 6.051,16 0,00 0,00 10.630,73 22.840,81 30/11/2023
277 349500 ANDREA DE OLIVEIRA LOIOLA REGIS OFICIAL DO MP IGUATAMA - COMARCA; IGUATAMA-PJ-UNPJ 12.343,61 3.703,08 0,00 0,00 0,00 0,00 0,00 2.105,00 18.151,69 2.348,42 2.777,79 0,00 277,74 5.403,95 12.747,74 30/11/2023
278 287900 ANDREA FERNANDES PENA MARTINS OFICIAL DO MP MONTES CLAROS - COMARCA; MONTES CLAROS-PJ-09PJ 12.343,61 3.703,08 0,00 0,00 0,00 0,00 1.470,95 2.105,00 19.622,64 2.348,42 2.829,93 0,00 277,74 5.456,09 14.166,55 30/11/2023
279 300800 ANDREA FERREIRA ANALISTA DO MP LAVRAS - COMARCA; LAVRAS-PJ-04PJ 22.191,68 6.657,50 0,00 0,00 0,00 0,00 2.543,79 2.105,00 33.497,97 4.396,82 5.839,44 0,00 0,00 10.236,26 23.261,71 30/11/2023
280 395100 ANDREA LANNA MENDES NOVAIS ANALISTA DO MP BELO HORIZONTE - COMARCA; PROMOT ESTADUAL DE DEF PATRI CULT E TUR DE MG 20.533,67 6.160,10 0,00 0,00 0,00 0,00 0,00 2.105,00 28.798,77 4.051,95 5.289,40 0,00 0,00 9.341,35 19.457,42 30/11/2023
281 67300 ANDREA LEAO MAGALHAES ROQUE ASSESSOR ADMINISTRATIVO IV BELO HORIZONTE - COMARCA; GRUPO ATUACAO ESP COMB CRIMES CIBER 0,00 11.590,57 14.488,22 0,00 0,00 0,00 0,00 2.105,00 28.183,79 876,95 6.405,91 0,00 0,00 7.282,86 20.900,93 30/11/2023
282 335700 ANDREA LOPES PEREIRA ANALISTA DO MP GOVERNADOR VALADARES - COMARCA; COORD REG DO MA DA BACIA DO RIO DOCE 23.070,31 6.921,09 0,00 0,00 0,00 0,00 0,00 2.105,00 32.096,40 4.579,57 5.895,51 0,00 755,59 11.230,67 20.865,73 30/11/2023
283 419000 ANDREIA BARBOSA DE ALMEIDA ANALISTA DO MP BELO HORIZONTE - COMARCA; CENT ESTAD COOPERACAO TECNICO-JURIDICA 18.130,77 3.626,15 0,00 0,00 0,00 0,00 1.931,50 2.105,00 25.793,42 3.262,06 4.201,13 0,00 0,00 7.463,19 18.330,23 30/11/2023
284 281501 ANDREIA CARLA COSTA ANALISTA DO MP UBÁ - COMARCA; UBA-PJ-02PJ 18.720,84 6.739,50 0,00 0,00 0,00 0,00 3.866,48 2.105,00 31.431,82 4.154,14 5.489,07 0,00 0,00 9.643,21 21.788,61 30/11/2023
285 477100 ANDREIA DE ALMEIDA RIBEIRO MELO OFICIAL DO MP CONTAGEM - COMARCA; CONTAGEM-PJ-SECRETARIA 10.858,90 3.257,67 0,00 0,00 0,00 0,00 1.822,59 8.316,29 24.255,45 2.039,60 2.393,08 0,00 156,82 4.589,50 19.665,95 30/11/2023
286 619000 ANDREIA FERREIRA NORONHA COORDENADOR II BELO HORIZONTE - COMARCA; DIRETORIA DE SERVICO CRIMINAL 20.533,67 2.053,37 0,00 0,00 0,00 0,00 2.070,46 2.105,00 26.762,50 1.102,13 5.023,39 0,00 142,92 6.268,44 20.494,06 30/11/2023
287 747000 ANDREIA FERREIRA TIAGO OFICIAL DO MP SÃO JOÃO DA PONTE - COMARCA; SAO JOAO DA PONTE-PJ-UNPJ 4.570,25 0,00 0,00 0,00 0,00 0,00 0,00 3.055,00 7.625,25 526,88 257,78 0,00 0,00 784,66 6.840,59 30/11/2023
288 424000 ANDREIA LUCIA COUTO ANALISTA DO MP BELO HORIZONTE - COMARCA; BH-18PJ DIREITOS HUMANOS-SECRETARIA 18.720,84 3.744,17 0,00 0,00 0,00 0,00 0,00 2.105,00 24.570,01 3.375,35 4.364,70 0,00 0,00 7.740,05 16.829,96 30/11/2023
289 370100 ANDREIA MARIA SILVA PINTO OFICIAL DO MP CORONEL FABRICIANO - COMARCA; CORONEL FABRICIANO-PJ-01PJ 12.343,61 3.703,08 0,00 0,00 0,00 0,00 0,00 3.055,00 19.101,69 982,16 3.081,66 0,00 0,00 4.063,82 15.037,87 30/11/2023
290 382100 ANDREIA NATALI PEREIRA DE OLIVEIRA OFICIAL DO MP PRADOS - COMARCA; PRADOS-PJ-UNPJ 12.343,61 3.703,08 0,00 0,00 0,00 0,00 0,00 2.105,00 18.151,69 2.348,42 2.882,06 0,00 0,00 5.230,48 12.921,21 30/11/2023
291 275200 ANDREIA RIBEIRO FREITAS OFICIAL DO MP VIÇOSA - COMARCA; VICOSA-PJ-04PJ 13.588,97 5.435,59 0,00 0,00 0,00 0,00 0,00 2.105,00 21.129,56 2.824,88 3.494,08 0,00 86,32 6.405,28 14.724,28 30/11/2023
292 352200 ANDREIA XAVIER PEREIRA OFICIAL DO MP DIVINÓPOLIS - COMARCA; DIVINOPOLIS-PJ-08PJ 12.343,61 3.703,08 0,00 0,00 0,00 0,00 0,00 3.530,00 19.576,69 2.348,42 2.882,06 0,00 277,74 5.508,22 14.068,47 30/11/2023
293 638500 ANDRESA ALVES FEITOSA CASAGRANDE ANALISTA DO MP LAVRAS - COMARCA; COORD REG DO MA DA BACIA DO RIO GRANDE 11.577,56 1.157,76 0,00 0,00 0,00 0,00 0,00 2.105,00 14.840,32 982,16 2.347,16 0,00 0,00 3.329,32 11.511,00 30/11/2023
294 383700 ANDRESSA EDUARDO SOUZA ANALISTA DO MP OURO BRANCO - COMARCA; OURO BRANCO-PJ-SECRETARIA 20.533,67 6.160,10 0,00 0,00 0,00 0,00 0,00 3.055,00 29.748,77 4.051,95 5.310,38 0,00 113,30 9.475,63 20.273,14 30/11/2023
295 678400 ANDRESSA LUIZA SILVA LOPES ASSESSOR PROMOTOR JUSTICA CARMO DO PARANAÍBA - COMARCA; CARMO DO PARANAIBA-PJ-02PJ 0,00 0,00 8.810,89 0,00 0,00 0,00 0,00 2.105,00 10.915,89 876,95 1.709,37 0,00 0,00 2.586,32 8.329,57 30/11/2023
296 426200 ANDRESSA MENDES CASAL OFICIAL DO MP BELO HORIZONTE - COMARCA; DIR ESTRUTURA E PROCESSOS ORGANIZACIONAIS 10.516,49 2.103,30 0,00 0,00 0,00 0,00 0,00 3.055,00 15.674,79 1.800,11 2.038,31 0,00 201,47 4.039,89 11.634,90 30/11/2023
297 390100 ANDRESSA RIBEIRO PUCCI OFICIAL DO MP UBERABA - COMARCA; UBERABA-PJ-14PJ 9.699,77 1.939,95 0,00 0,00 0,00 0,00 1.145,12 2.105,00 14.889,84 1.643,30 1.864,06 0,00 0,00 3.507,36 11.382,48 30/11/2023
298 462500 ANDREZA APARECIDA COSTA E SILVA ANALISTA DO MP CONSELHEIRO LAFAIETE - COMARCA; CONSELHEIRO LAFAIETE-PJ-02PJ 12.343,61 2.468,72 0,00 0,00 0,00 0,00 0,00 4.005,00 18.817,33 982,16 2.767,68 0,00 0,00 3.749,84 15.067,49 30/11/2023
299 677700 ANDREZA DE LOURDES FERREIRA DE PAIVA ASSESSOR PROMOTOR JUSTICA ABRE CAMPO - COMARCA; ABRE CAMPO-PJ-01PJ 0,00 0,00 8.810,89 0,00 0,00 0,00 0,00 2.105,00 10.915,89 876,95 1.709,37 0,00 0,00 2.586,32 8.329,57 30/11/2023
300 537800 ANDREZZA LUZIA DE OLIVEIRA ALVES ANALISTA DO MP PATOS DE MINAS - COMARCA; COORD REG PJ DEF EDU DIR CRI ADO AL PAR NOROE 12.343,61 2.468,72 0,00 0,00 0,00 0,00 1.244,66 2.105,00 18.161,99 2.150,92 2.544,79 0,00 235,01 4.930,72 13.231,27 30/11/2023
301 491600 ANE PATRICIA RIBEIRO DUARTE ANALISTA DO MP SETE LAGOAS - COMARCA; SETE LAGOAS-PJ-11PJ 12.343,61 2.468,72 0,00 0,00 0,00 0,00 0,00 2.105,00 16.917,33 2.150,92 2.544,79 0,00 256,38 4.952,09 11.965,24 30/11/2023
302 465800 ANELISE GAMA ASSESSOR ADMINISTRATIVO III BELO HORIZONTE - COMARCA; BH-18PJ VIOLENCIA DOMESTICA-SECRETARIA 0,00 0,00 10.858,90 0,00 0,00 0,00 597,25 2.105,00 13.561,15 876,95 2.272,58 0,00 0,00 3.149,53 10.411,62 30/11/2023
303 535200 ANELIZE FERNANDA ALVES VILARINHO OFICIAL DO MP CAPINÓPOLIS - COMARCA; CAPINOPOLIS-PJ-UNPJ 7.506,70 1.501,34 0,00 0,00 0,00 0,00 756,93 3.301,51 13.066,48 1.222,23 1.256,14 0,00 142,92 2.621,29 10.445,19 30/11/2023
304 197200 ANGELA COELHO SALDANHA OFICIAL DO MP PARÁ DE MINAS - COMARCA; PARA DE MINAS-PJ-03PJ 22.191,68 11.095,84 0,00 0,00 0,00 0,00 0,00 2.105,00 35.392,52 5.106,95 6.660,18 0,00 743,71 12.510,84 22.881,68 30/11/2023
305 307400 ANGELA CRISTINA GONCALVES MUNIZ ANALISTA DO MP UBERLÂNDIA - COMARCA; UBERLANDIA-PJ-SEC FAMILIA 23.070,31 9.228,12 0,00 0,00 0,00 0,00 473,71 7.272,75 40.044,89 4.948,70 6.301,19 0,00 839,08 12.088,97 27.955,92 30/11/2023
306 191800 ANGELA MARIA DE OLIVEIRA OFICIAL DO MP GUARANÉSIA - COMARCA; GUARANESIA-PJ-SECRETARIA 22.191,68 17.753,35 0,00 0,00 0,00 6.201,77 4.314,72 7.311,23 57.772,75 5.795,34 9.452,28 2.355,07 406,43 18.009,12 39.763,63 30/11/2023
307 497400 ANGELA MARIA HENRIQUES ANALISTA DO MP BELO HORIZONTE - COMARCA; COORD REG BACIAS RIO VELHAS E PARAOPEBA 12.343,61 2.468,72 0,00 0,00 0,00 0,00 0,00 2.105,00 16.917,33 2.150,92 2.596,93 0,00 256,38 5.004,23 11.913,10 30/11/2023
308 260700 ANGELICA CRISTINA AZEVEDO MOREIRA MOUCO OFICIAL DO MP UBÁ - COMARCA; UBA-PJ-05PJ 18.130,77 7.252,31 0,00 0,00 0,00 0,00 2.092,46 2.105,00 29.580,54 3.842,24 4.946,73 0,00 334,71 9.123,68 20.456,86 30/11/2023
309 708300 ANGELICA NUNES VIEIRA DA SILVA ASSESSOR PROMOTOR JUSTICA IBIRITÉ - COMARCA; IBIRITE-PJ-02PJ 0,00 0,00 8.810,89 0,00 0,00 0,00 484,60 2.105,00 11.400,49 876,95 1.709,37 0,00 0,00 2.586,32 8.814,17 30/11/2023
310 334600 ANGELICA PANISSA DE FREITAS GALLATI OFICIAL DO MP GUAXUPÉ - COMARCA; GUAXUPE-PJ-02PJ 12.343,61 4.937,44 0,00 0,00 0,00 0,00 1.584,09 3.055,00 21.920,14 2.545,92 3.115,06 0,00 16,75 5.677,73 16.242,41 30/11/2023
311 521100 ANGELICA SALES MOREIRA OFICIAL DO MP BELO HORIZONTE - COMARCA; BH-02PJ FAMILIA-SECRETARIA 10.516,49 2.103,30 0,00 0,00 0,00 0,00 1.066,97 2.105,00 15.791,76 1.800,11 2.074,30 0,00 253,82 4.128,23 11.663,53 30/11/2023
312 466500 ANGELLO MARQUES AGRELLI ANALISTA DO MP MAR DE ESPANHA - COMARCA; MAR DE ESPANHA-PJ-UNPJ 12.343,61 2.468,72 0,00 0,00 0,00 0,00 0,00 3.055,00 17.867,33 2.150,92 2.596,93 0,00 256,38 5.004,23 12.863,10 30/11/2023
313 363300 ANGELO VERDOLIN HENRIQUES ANALISTA DO MP SETE LAGOAS - COMARCA; SETE LAGOAS-PJ-04PJ 22.191,68 8.876,67 0,00 0,00 0,00 0,00 2.739,47 2.105,00 35.912,82 4.751,88 6.192,78 0,00 579,23 11.523,89 24.388,93 30/11/2023
314 250900 ANISIO APARECIDO SANTOS OFICIAL DO MP BETIM - COMARCA; BETIM - SECRETARIA DAS PJS CRIMINAIS 7.506,70 3.002,68 0,00 0,00 0,00 0,00 753,84 2.105,00 13.368,22 1.462,45 947,38 0,00 181,90 2.591,73 10.776,49 30/11/2023
315 698100 ANNA CAROLINA POLICARIO BERTOLIN ASSESSOR PROCURADOR JUSTICA BELO HORIZONTE - COMARCA; PROC. JUSTICA DIR. DIFUSOS E COLETIVOS-SEC 0,00 0,00 8.810,89 0,00 0,00 0,00 0,00 2.105,00 10.915,89 876,95 1.709,37 0,00 0,00 2.586,32 8.329,57 30/11/2023
316 253400 ANNA FLAVIA LEHMAN ANALISTA DO MP BELO HORIZONTE - COMARCA; SUPRIN DE PLANEJAMENTO E COORDENACAO 23.070,31 9.228,12 8.404,02 0,00 0,00 0,00 3.250,70 -902,20 43.050,95 4.948,70 7.882,29 3.112,49 662,49 16.605,97 26.444,98 30/11/2023
317 688800 ANNA LUIZA MATTOS DUARTE ASSESSOR PROCURADOR JUSTICA BELO HORIZONTE - COMARCA; GABINETE DE PROCURADOR DE JUSTICA - SALA 311 0,00 0,00 8.810,89 0,00 0,00 0,00 0,00 2.105,00 10.915,89 876,95 1.709,37 0,00 0,00 2.586,32 8.329,57 30/11/2023
318 752100 ANNABELLA ZAVOLI VILLARINHO CARDOSO OFICIAL DO MP ALÉM PARAÍBA - COMARCA; ALEM PARAIBA-PJ-01PJ 4.570,25 0,00 0,00 0,00 0,00 0,00 0,00 2.105,00 6.675,25 526,88 257,78 0,00 0,00 784,66 5.890,59 30/11/2023
319 447600 ANNGELUCE ALCANTARA DE CAMPOS OFICIAL DO MP DIVINÓPOLIS - COMARCA; DIVINOPOLIS-PJ-07PJ 10.516,49 3.154,95 0,00 0,00 0,00 0,00 1.232,39 2.105,00 17.008,83 1.968,38 2.314,73 0,00 293,20 4.576,31 12.432,52 30/11/2023
320 630300 ANTONIA GOMES RAMALHO OFICIAL DO MP NOVO CRUZEIRO - COMARCA; NOVO CRUZEIRO-PJ-UNPJ 7.506,70 750,67 0,00 0,00 0,00 0,00 0,00 4.005,00 12.262,37 1.102,13 1.071,28 0,00 180,06 2.353,47 9.908,90 30/11/2023
321 401600 ANTONIO CARLOS GUEDES AROUCA ANALISTA DO MP BELO HORIZONTE - COMARCA; ASSESSORIA JURIDICO-ADMINISTRATIVA 17.005,40 3.401,08 0,00 0,00 0,00 0,00 0,00 2.105,00 22.511,48 3.045,99 3.889,17 0,00 34,28 6.969,44 15.542,04 30/11/2023
322 333900 ANTONIO GONCALVES DE SOUZA FILHO OFICIAL DO MP BELO HORIZONTE - COMARCA; DIRETORIA DE CONTABILIDADE 12.343,61 3.703,08 0,00 0,00 0,00 0,00 0,00 2.105,00 18.151,69 2.348,42 2.882,06 0,00 277,74 5.508,22 12.643,47 30/11/2023
323 176100 ANTONIO MARCELO CAMPOS CAMPANELLA OFICIAL DO MP BELO HORIZONTE - COMARCA; COORD DE GABINETE DO PGJ 22.191,68 11.095,84 0,00 0,00 0,00 0,00 2.935,15 2.105,00 38.327,67 5.106,95 6.864,70 0,00 0,00 11.971,65 26.356,02 30/11/2023
324 321001 ANTONIO OLINTO VIEIRA MACHADO ANALISTA DO MP BELO HORIZONTE - COMARCA; CENTRAL DE APOIO TECN-SETOR DE MEIO AMBIENTE 20.533,67 6.160,10 0,00 0,00 0,00 4.051,95 2.367,52 2.105,00 35.218,24 4.051,95 6.351,55 0,00 0,00 10.403,50 24.814,74 30/11/2023
325 356200 ANTONIO PAULA DA SILVA OFICIAL DO MP JUIZ DE FORA - COMARCA; JUIZ DE FORA-PJ-20PJ 12.343,61 4.937,44 0,00 0,00 0,00 0,00 1.534,15 2.105,00 20.920,20 2.545,92 3.167,20 0,00 0,00 5.713,12 15.207,08 30/11/2023
326 119900 ANTONIO RODRIGUES DE PINHO OFICIAL DO MP GUANHÃES - COMARCA; GUANHAES-PJ-01PJ 21.346,53 17.077,23 0,00 0,00 0,00 0,00 3.041,90 2.105,00 43.570,66 5.795,34 7.590,76 833,80 784,24 15.004,14 28.566,52 30/11/2023
327 373300 ANTONIO SERGIO ANANIAS OFICIAL DO MP SÃO JOÃO NEPOMUCENO - COMARCA; SAO JOAO NEPOMUCENO-PJ-01PJ 12.343,61 3.703,08 0,00 0,00 0,00 0,00 0,00 2.105,00 18.151,69 982,16 3.205,65 0,00 0,00 4.187,81 13.963,88 30/11/2023
328 608100 ANTONIO SIDINEY VIEIRA LEMOS ANALISTA DO MP PIRAPORA - COMARCA; PIRAPORA-PJ-01PJ 12.343,61 6.171,81 0,00 0,00 0,00 0,00 1.591,92 3.055,00 23.162,34 2.743,42 3.400,20 0,00 280,55 6.424,17 16.738,17 30/11/2023
329 374700 ANTONIO SILVA NETO OFICIAL DO MP BELO HORIZONTE - COMARCA; GAECO - SECRETARIA 12.343,61 3.703,08 0,00 0,00 0,00 0,00 0,00 3.055,00 19.101,69 2.348,42 2.822,34 0,00 217,17 5.387,93 13.713,76 30/11/2023
330 636700 ANTONIUS VITORIANO FERNANDES OFICIAL DO MP BELO HORIZONTE - COMARCA; ASSESSORIA JURIDICA DO PROCON-MG 6.818,83 681,88 0,00 0,00 0,00 0,00 0,00 2.105,00 9.605,71 1.075,48 907,93 0,00 0,00 1.983,41 7.622,30 30/11/2023
331 413200 ANY PEREIRA SILVA ANALISTA DO MP TRÊS PONTAS - COMARCA; TRES PONTAS-PJ-01PJ 18.130,77 5.439,23 0,00 0,00 0,00 0,00 3.744,57 2.105,00 29.419,57 3.842,24 4.953,81 0,00 308,96 9.105,01 20.314,56 30/11/2023
332 151401 APARECIDA DE FATIMA MENDES DE ALMEIDA ASSESSOR ADMINISTRATIVO II JUIZ DE FORA - COMARCA; JUIZ DE FORA-PJ-SECRETARIA 0,00 0,00 7.506,70 0,00 0,00 0,00 0,00 2.105,00 9.611,70 876,95 1.350,72 0,00 0,00 2.227,67 7.384,03 30/11/2023
333 329300 APARECIDA MARIA MELO DE ASSIS OFICIAL DO MP BELO HORIZONTE - COMARCA; BH-18PJ DIREITOS HUMANOS-SECRETARIA 12.343,61 3.703,08 0,00 0,00 0,00 0,00 0,00 2.105,00 18.151,69 2.348,42 2.882,06 0,00 277,74 5.508,22 12.643,47 30/11/2023
334 653000 APARECIDA ROSA DE LIMA ASSESSOR ADMINISTRATIVO III BELO HORIZONTE - COMARCA; SECRETARIA PROCESSOS DISCIPES ADMINISTRATIVOS 0,00 0,00 10.858,90 0,00 0,00 0,00 1.103,08 2.105,00 14.066,98 876,95 2.272,58 0,00 0,00 3.149,53 10.917,45 30/11/2023
335 354500 APARECIDA VIEIRA DE CARVALHO OFICIAL DO MP BELO HORIZONTE - COMARCA; DIVISÃO DE EDUCAÇÃO PARA O CONSUMO 10.858,90 3.257,67 0,00 0,00 0,00 0,00 1.253,22 2.105,00 17.474,79 2.039,60 2.436,21 0,00 0,00 4.475,81 12.998,98 30/11/2023
336 551000 ARACELES BICALHO FELIX ANALISTA DO MP MANHUAÇU - COMARCA; MANHUACU-PJ-06PJ 12.343,61 2.468,72 0,00 0,00 4.937,44 0,00 0,00 4.005,00 23.754,77 2.150,92 3.954,72 0,00 235,01 6.340,65 17.414,12 30/11/2023
337 286200 ARACELI MEDRADO DOS SANTOS LIMA OFICIAL DO MP PARACATU - COMARCA; PARACATU-PJ-03PJ 7.506,70 2.252,01 0,00 0,00 0,00 0,00 894,55 3.055,00 13.708,26 1.342,34 1.429,54 0,00 168,91 2.940,79 10.767,47 30/11/2023
338 112200 ARAQUEM AUGUSTO DE MATOS AGENTE DO MP BELO HORIZONTE - COMARCA; BH-23PJ CIVEL-SEC EXP CIVEIS 13.588,97 12.230,08 0,00 0,00 0,00 4.806,17 0,00 2.105,00 32.730,22 3.912,00 6.111,00 0,00 894,17 10.917,17 21.813,05 30/11/2023
339 280600 ARDUINO FRATTEZI ANALISTA DO MP BELO HORIZONTE - COMARCA; CENTRAL DE APOIO TECNICO-SETOR CONTABIL 23.070,31 9.228,12 0,00 0,00 0,00 6.567,43 2.749,20 2.105,00 43.720,06 4.948,70 8.249,96 0,00 661,79 13.860,45 29.859,61 30/11/2023
340 520201 ARIANE DE FATIMA CARVALHO ALMEIDA RODRIGUES ANALISTA DO MP VESPASIANO - COMARCA; VESPASIANO-PJ-SECRETARIA 12.343,61 1.234,36 0,00 0,00 0,00 0,00 0,00 3.530,00 17.107,97 1.953,42 2.155,38 0,00 220,43 4.329,23 12.778,74 30/11/2023
341 537600 ARIELA FREIRE MONTIJO ANALISTA DO MP ARCOS - COMARCA; ARCOS-PJ-01PJ 12.343,61 2.468,72 0,00 0,00 0,00 0,00 0,00 2.105,00 16.917,33 2.150,92 2.492,65 0,00 235,01 4.878,58 12.038,75 30/11/2023
342 182000 ARILSON ALEXANDRE MARTINS MAGALHAES OFICIAL DO MP JOÃO MONLEVADE - COMARCA; JOAO MONLEVADE-PJ-01PJ 21.346,53 10.673,27 0,00 0,00 0,00 0,00 8.388,18 7.237,78 47.645,76 5.439,15 6.963,97 0,00 435,08 12.838,20 34.807,56 30/11/2023
343 511000 ARISLANE CAROLINA DA SILVA ANALISTA DO MP MONTE CARMELO - COMARCA; MONTE CARMELO-PJ-02PJ 12.343,61 2.468,72 0,00 0,00 0,00 0,00 0,00 4.005,00 18.817,33 2.150,92 2.596,93 0,00 256,38 5.004,23 13.813,10 30/11/2023
344 170000 ARLEY BRITES DA SILVA ASSESSOR ADMINISTRATIVO II BELO HORIZONTE - COMARCA; BH-14PJ DEFESA CONSUMIDOR-SECRETARIA 0,00 3.753,35 7.506,70 0,00 0,00 0,00 963,35 2.105,00 14.328,40 876,95 1.632,41 0,00 0,00 2.509,36 11.819,04 30/11/2023
345 120400 ARLINDO CASSIO DA CRUZ OFICIAL DO MP SÃO GONÇALO DO SAPUCAÍ - COMARCA; SAO GONCALO DO SAPUCAI-PJ-01PJ 23.070,31 20.763,28 0,00 0,00 0,00 5.795,34 0,00 2.105,00 51.733,93 5.795,34 9.348,00 6.243,63 0,00 21.386,97 30.346,96 30/11/2023
346 243700 ARLINDO MARCIO LACERDA OFICIAL DO MP CONTAGEM - COMARCA; CONTAGEM-PJ-SECRETARIA 18.130,77 9.065,39 0,00 30,67 0,00 0,00 8.549,34 2.105,00 37.881,17 4.866,01 7.109,45 0,00 0,00 11.975,46 25.905,71 30/11/2023
347 392100 ARNALDO DE ANDRADE OFICIAL DO MP DIVINÓPOLIS - COMARCA; DIVINOPOLIS-PJ-02PJ 12.343,61 4.443,70 0,00 0,00 0,00 0,00 3.291,87 3.055,00 23.134,18 2.466,92 3.488,22 0,00 0,00 5.955,14 17.179,04 30/11/2023
348 642400 ARTANE INARDE DE SIQUEIRA DAMASCENO ANALISTA DO MP BELO HORIZONTE - COMARCA; SECRETARIA DE ASSUNTOS INTERNACIONAIS 10.341,72 1.034,17 0,00 0,00 0,00 0,00 0,00 3.530,00 14.905,89 982,16 1.893,53 0,00 0,00 2.875,69 12.030,20 30/11/2023
349 733000 ARTHUR BRANDAO ALBUQUERQUE ASSESSOR ADMINISTRATIVO II BELO HORIZONTE - COMARCA; DIRETORIA DE PAGAMENTO DE PESSOAL-DPAG 0,00 0,00 7.506,70 0,00 0,00 0,00 0,00 2.105,00 9.611,70 876,95 1.350,72 0,00 0,00 2.227,67 7.384,03 30/11/2023
350 302100 AUGUSTO ROUSSEAU DE CASTRO ANALISTA DO MP CATAGUASES - COMARCA; CATAGUASES-PJ-02PJ 23.070,31 6.921,09 0,00 0,00 0,00 0,00 2.749,21 2.105,00 34.845,61 4.579,57 6.009,37 0,00 860,65 11.449,59 23.396,02 30/11/2023
351 540200 AUREA AVELAR BITTENCOURT OFICIAL DO MP BELO HORIZONTE - COMARCA; GRUPO ESP PROM JUST DEF PROB ADM PAT PUB 7.506,70 1.501,34 0,00 0,00 0,00 0,00 756,92 2.105,00 11.869,96 982,16 1.208,12 0,00 0,00 2.190,28 9.679,68 30/11/2023
352 633501 AUREA GONTIJO BIRCHAL ASSESSOR DE GABINETE I BELO HORIZONTE - COMARCA; PROCURADOR-GERAL DE JUSTIÇA 0,00 0,00 18.130,77 0,00 0,00 0,00 1.661,99 2.105,00 21.897,76 876,95 4.272,34 0,00 0,00 5.149,29 16.748,47 30/11/2023
353 183200 AURELIANO MAGELA DE REZENDE OFICIAL DO MP BELO HORIZONTE - COMARCA; COORD DE GABINETE DO PGJ 23.070,31 9.228,12 6.160,10 0,00 0,00 0,00 0,00 2.105,00 40.563,53 4.948,70 8.043,21 868,57 175,19 14.035,67 26.527,86 30/11/2023
354 629400 AYESKA DA COSTA VAL MOURA DABIEN OFICIAL DO MP BELO HORIZONTE - COMARCA; BH-09PJ AUDITORIA MILITAR-SECRETARIA 7.506,70 750,67 0,00 0,00 0,00 0,00 0,00 2.105,00 10.362,37 1.102,13 1.072,32 0,00 161,73 2.336,18 8.026,19 30/11/2023
355 707400 AYMEE JOHANSSENN TYNEE CORREIA ALVES ASSESSOR PROMOTOR JUSTICA NOVA LIMA - COMARCA; NOVA LIMA-PJ-01PJ 0,00 0,00 8.810,89 0,00 0,00 0,00 895,04 2.105,00 11.810,93 876,95 1.709,37 0,00 0,00 2.586,32 9.224,61 30/11/2023
356 701600 BARBARA CHAVES OLIVEIRA ASSESSOR PROCURADOR JUSTICA BELO HORIZONTE - COMARCA; PROC. JUSTICA DIR. DIFUSOS E COLETIVOS-SEC 0,00 0,00 8.810,89 0,00 0,00 0,00 0,00 2.105,00 10.915,89 876,95 1.709,37 0,00 0,00 2.586,32 8.329,57 30/11/2023
357 691900 BARBARA COUTINHO REIS ASSESSOR PROCURADOR JUSTICA BELO HORIZONTE - COMARCA; GABINETE DE PROCURADOR DE JUSTIÇA - SALA 910 0,00 0,00 8.810,89 0,00 0,00 0,00 0,00 2.105,00 10.915,89 876,95 1.709,37 0,00 0,00 2.586,32 8.329,57 30/11/2023
358 692200 BARBARA CRISTINA MENDES BANDEIRA DE MELO DUTRA ASSESSOR PROCURADOR JUSTICA BELO HORIZONTE - COMARCA; GABINETE DE PROCURADOR DE JUSTIÇA - SALA 1009 0,00 0,00 8.810,89 0,00 0,00 0,00 895,04 2.105,00 11.810,93 876,95 1.709,37 0,00 0,00 2.586,32 9.224,61 30/11/2023
359 743300 BARBARA CRISTINA SOUZA E SOUSA ASSESSOR PROCURADOR JUSTICA BELO HORIZONTE - COMARCA; GABINETE DE PROCURADOR DE JUSTIÇA - SALA 513 0,00 0,00 8.810,89 0,00 0,00 0,00 0,00 2.105,00 10.915,89 876,95 1.709,37 0,00 0,00 2.586,32 8.329,57 30/11/2023
360 723400 BARBARA CRISTINA TAVARES CARNEIRO ASSESSOR PROCURADOR JUSTICA BELO HORIZONTE - COMARCA; GABINETE DE PROCURADOR DE JUSTIÇA - SALA 501 0,00 0,00 8.810,89 0,00 0,00 0,00 807,66 2.105,00 11.723,55 876,95 1.709,37 0,00 0,00 2.586,32 9.137,23 30/11/2023
361 652800 BARBARA JULIANNE MOREIRA CASTRO ASSESSOR PROCURADOR JUSTICA BELO HORIZONTE - COMARCA; ASSESS TECNICO-JUR JUNTO AS PROC. DE JUST 0,00 0,00 8.810,89 0,00 0,00 0,00 807,66 2.105,00 11.723,55 876,95 1.709,37 0,00 0,00 2.586,32 9.137,23 30/11/2023
362 707700 BARBARA LOUISE PUFF DE OLIVEIRA ASSESSOR PROMOTOR JUSTICA RIBEIRÃO DAS NEVES - COMARCA; RIBEIRAO DAS NEVES-PJ-02PJ 0,00 0,00 8.810,89 0,00 0,00 0,00 807,66 2.105,00 11.723,55 876,95 1.709,37 0,00 0,00 2.586,32 9.137,23 30/11/2023
363 663600 BARBARA REGINA PEREIRA DE PINHO MAGALHAES ASSESSOR PROMOTOR JUSTICA BELO HORIZONTE - COMARCA; CAO-DH CONT EXT ATIV POLIC E AP COMUNIT 0,00 0,00 8.810,89 0,00 0,00 0,00 0,00 2.105,00 10.915,89 876,95 1.709,37 0,00 0,00 2.586,32 8.329,57 30/11/2023
364 546500 BARBARA ZACARONI GOULART OFICIAL DO MP BETIM - COMARCA; BETIM-PJ-08PJ 7.506,70 1.501,34 0,00 0,00 0,00 0,00 838,82 2.105,00 11.951,86 1.222,23 1.256,14 0,00 142,92 2.621,29 9.330,57 30/11/2023
365 316500 BEATRIZ ABILVIA DA SILVA ANALISTA DO MP GOVERNADOR VALADARES - COMARCA; GOVERNADOR VALADARES-PJ-07PJ 23.070,31 6.921,09 0,00 0,00 0,00 4.579,57 3.046,37 2.105,00 39.722,34 4.579,57 7.362,68 0,00 0,00 11.942,25 27.780,09 30/11/2023
366 311800 BEATRIZ APARECIDA SOARES GANEM OFICIAL DO MP ITAMBACURI - COMARCA; ITAMBACURI-PJ-02PJ 14.960,00 5.984,00 0,00 0,00 0,00 0,00 1.743,93 2.105,00 24.792,93 3.131,99 3.856,93 0,00 0,00 6.988,92 17.804,01 30/11/2023
367 266800 BEATRIZ AUGUSTA VILACA GOMES DE HUBER OFICIAL DO MP BELO HORIZONTE - COMARCA; BH-05PJ-JUÍZO SUCESSÕES-SEC 12.343,61 4.937,44 0,00 0,00 0,00 0,00 0,00 -2.733,69 14.547,36 2.545,92 3.167,20 0,00 721,29 6.434,41 8.112,95 30/11/2023
368 235200 BEATRIZ BOTELHO BATISTA OFICIAL DO MP MATEUS LEME - COMARCA; MATEUS LEME-PJ-02PJ 12.343,61 4.937,44 0,00 0,00 0,00 0,00 0,00 2.105,00 19.386,05 2.545,92 3.167,20 0,00 299,11 6.012,23 13.373,82 30/11/2023
369 182300 BEATRIZ PAULA SOUSA RAMOS OFICIAL DO MP MARIANA - COMARCA; MARIANA-PJ-01PJ 21.346,53 10.673,27 0,00 0,00 0,00 0,00 6.506,04 824,21 39.350,05 5.611,19 7.473,05 0,00 552,49 13.636,73 25.713,32 30/11/2023
370 507000 BELCHIOR FRANKLIN AMARAL LEITE ANALISTA DO MP BELO HORIZONTE - COMARCA; CAO ORGAOS MPMG DESIG FUNC ELEITORAIS-SEC 14.960,00 3.889,60 0,00 0,00 0,00 0,00 1.494,78 3.055,00 23.399,38 2.796,88 3.350,50 0,00 355,61 6.502,99 16.896,39 30/11/2023
371 345100 BENITO ELIAS RODRIGUES ANALISTA DO MP BARBACENA - COMARCA; BARBACENA - SECRETARIA DAS PJS CRIMINAIS 22.191,68 6.657,50 0,00 0,00 0,00 0,00 2.543,79 3.055,00 34.447,97 4.396,82 5.787,30 0,00 0,00 10.184,12 24.263,85 30/11/2023
372 207300 BENITO VIEIRA DOS SANTOS ANALISTA DO MP BELO HORIZONTE - COMARCA; PROC JUST ESP ACOES COMP ORIG CRIMINAL-ASSESS 23.070,31 11.535,16 0,00 0,00 0,00 5.577,17 3.751,86 2.105,00 46.039,50 5.317,82 7.082,63 0,00 259,35 12.659,80 33.379,70 30/11/2023
373 480200 BERNADETE NUNES DOS SANTOS ANALISTA DO MP GUANHÃES - COMARCA; GUANHAES-PJ-02PJ 12.343,61 4.937,44 0,00 0,00 0,00 0,00 0,00 2.105,00 19.386,05 2.545,92 3.167,20 0,00 277,75 5.990,87 13.395,18 30/11/2023
374 378400 BETANIA FARNESI DE SOUZA E SILVA OFICIAL DO MP CURVELO - COMARCA; CURVELO-PJ-01PJ 12.343,61 4.937,44 0,00 0,00 0,00 0,00 2.027,65 6.943,69 26.252,39 2.545,92 3.045,39 0,00 253,36 5.844,67 20.407,72 30/11/2023
375 387400 BETANIA MENDONCA DE ASSIS CARVALHO ANALISTA DO MP JUIZ DE FORA - COMARCA; JUIZ DE FORA-PJ-03PJ 20.533,67 6.160,10 0,00 0,00 0,00 0,00 0,00 3.055,00 29.748,77 4.051,95 5.258,25 0,00 113,30 9.423,50 20.325,27 30/11/2023
376 714400 BIANCA DE CASTRO RAMOS ASSESSOR PROMOTOR JUSTICA BETIM - COMARCA; BETIM-PJ-13PJ 0,00 0,00 8.810,89 0,00 0,00 0,00 323,07 1.047,69 10.181,65 876,95 1.709,37 0,00 96,92 2.683,24 7.498,41 30/11/2023
377 450300 BIANCA OLIVEIRA DE ALBUQUERQUE ANALISTA DO MP BELO HORIZONTE - COMARCA; BH-10PJ EXECUÇÃO PENAL-SECRETARIA 12.343,61 2.468,72 0,00 0,00 0,00 0,00 0,00 3.055,00 17.867,33 2.150,92 2.596,93 0,00 256,38 5.004,23 12.863,10 30/11/2023
378 535400 BIANCA SALOTO ROSSI ANALISTA DO MP SANTOS DUMONT - COMARCA; SANTOS DUMONT-PJ-01PJ 12.343,61 2.468,72 0,00 0,00 0,00 0,00 0,00 3.055,00 17.867,33 2.150,92 2.596,93 0,00 235,01 4.982,86 12.884,47 30/11/2023
379 120800 BRAS MARQUES DE SOUZA ANALISTA DO MP BELO HORIZONTE - COMARCA; SUPERINTENDENCIA DE GESTAO ADMINISTRATIVA 29.122,38 26.210,14 0,00 0,00 0,00 5.795,34 3.751,86 2.105,00 66.984,72 5.795,34 9.348,00 17.742,56 0,00 32.885,90 34.098,82 30/11/2023
380 756500 BRENDA LORRANA FRANCO ASSESSOR PROMOTOR JUSTICA UBERLÂNDIA - COMARCA; UBERLANDIA-PJ-20PJ 0,00 0,00 8.810,89 0,00 0,00 0,00 3.524,36 3.323,64 15.658,89 876,95 2.847,32 0,00 0,00 3.724,27 11.934,62 30/11/2023
381 724400 BRENDA PIMENTEL DE SOUZA VIANA ASSESSOR PROMOTOR JUSTICA MANHUMIRIM - COMARCA; MANHUMIRIM-PJ-01PJ 0,00 0,00 8.810,89 0,00 0,00 0,00 807,67 2.105,00 11.723,56 876,95 1.709,37 0,00 0,00 2.586,32 9.137,24 30/11/2023
382 710500 BRENNO VINICIUS MAGESTE ROSA ASSESSOR PROMOTOR JUSTICA MANHUAÇU - COMARCA; MANHUACU-PJ-02PJ 0,00 0,00 8.810,89 0,00 0,00 0,00 807,66 2.105,00 11.723,55 876,95 1.709,37 0,00 0,00 2.586,32 9.137,23 30/11/2023
383 460900 BRENO CRISTIANO DE SOUZA REZENDE ANALISTA DO MP ITAÚNA - COMARCA; ITAUNA-PJ-02PJ 12.343,61 2.468,72 0,00 0,00 0,00 0,00 0,00 2.105,00 16.917,33 2.150,92 2.596,93 0,00 256,38 5.004,23 11.913,10 30/11/2023
384 239000 BRENO VENANCIO ROMANINI OFICIAL DO MP BELO HORIZONTE - COMARCA; BH-20PJ ORD ECON TRIBUTARIA-SECRETARIA 12.343,61 4.937,44 0,00 0,00 0,00 0,00 0,00 2.105,00 19.386,05 2.545,92 3.167,20 0,00 0,00 5.713,12 13.672,93 30/11/2023
385 722100 BRUNA HENRIQUE DE SOUZA ASSESSOR PROMOTOR JUSTICA PIRAPETINGA - COMARCA; PIRAPETINGA-PJ-UNPJ 0,00 0,00 8.810,89 0,00 0,00 0,00 0,00 2.105,00 10.915,89 876,95 1.709,37 0,00 0,00 2.586,32 8.329,57 30/11/2023
386 642300 BRUNA IZABELITA DE FATIMA OLIVEIRA COSTA OFICIAL DO MP BELO HORIZONTE - COMARCA; BH-02PJ FAMILIA-SECRETARIA 7.506,70 750,67 0,00 0,00 0,00 0,00 0,00 2.105,00 10.362,37 1.102,13 1.082,73 0,00 138,42 2.323,28 8.039,09 30/11/2023
387 513600 BRUNA KARLA MARTINS CARVALHO ANALISTA DO MP GOVERNADOR VALADARES - COMARCA; GOVERNADOR VALADARES-PJ-14PJ 12.343,61 2.468,72 0,00 0,00 0,00 0,00 1.357,79 2.105,00 18.275,12 982,16 2.767,68 0,00 0,00 3.749,84 14.525,28 30/11/2023
388 415100 BRUNA MARIA SOARES OLIVEIRA COSTA RAMOS ANALISTA DO MP UBÁ - COMARCA; COORD REG BACIA DO RIO PARAIBA DO SUL 18.720,84 3.744,17 0,00 0,00 0,00 0,00 494,23 7.496,60 30.455,84 982,16 4.714,33 0,00 0,00 5.696,49 24.759,35 30/11/2023
389 692900 BRUNA MENDES COELHO ASSESSOR PROCURADOR JUSTICA BELO HORIZONTE - COMARCA; GABINETE DE PROCURADOR DE JUSTIÇA - SALA 801 0,00 0,00 8.810,89 0,00 0,00 0,00 0,00 2.105,00 10.915,89 876,95 1.709,37 0,00 0,00 2.586,32 8.329,57 30/11/2023
390 470000 BRUNA MORAES ANALISTA DO MP TOMBOS - COMARCA; TOMBOS-PJ-UNPJ 17.559,01 4.565,34 0,00 0,00 0,00 0,00 1.754,49 2.105,00 25.983,84 3.320,84 4.129,59 0,00 107,67 7.558,10 18.425,74 30/11/2023
391 614700 BRUNA NATTANY DE LIMA OFICIAL DO MP MANTENA - COMARCA; MANTENA-PJ-01PJ 7.506,70 750,67 0,00 0,00 0,00 0,00 756,94 3.055,00 12.069,31 1.094,39 1.082,73 0,00 142,92 2.320,04 9.749,27 30/11/2023
392 729800 BRUNA PAULA AMARAL CEOLIN ASSESSOR PROMOTOR JUSTICA COMARCA - JUATUBA; JUATUBA-PJ-UNPJ 0,00 0,00 8.810,89 0,00 0,00 0,00 0,00 2.105,00 10.915,89 876,95 1.709,37 0,00 0,00 2.586,32 8.329,57 30/11/2023
393 631800 BRUNA RAPOSO JORGE OFICIAL DO MP JUIZ DE FORA - COMARCA; JUIZ DE FORA-PJ-06PJ 7.506,70 750,67 0,00 0,00 0,00 0,00 756,92 3.055,00 12.069,29 1.102,13 1.071,28 0,00 180,06 2.353,47 9.715,82 30/11/2023
394 707800 BRUNA ROMIE WERDINE ASSESSOR PROMOTOR JUSTICA IBIRITÉ - COMARCA; IBIRITE-PJ-06PJ 0,00 0,00 8.810,89 0,00 0,00 0,00 537,02 2.105,00 11.452,91 876,95 1.709,37 0,00 0,00 2.586,32 8.866,59 30/11/2023
395 697400 BRUNA SILVA SANTOS ASSESSOR PROMOTOR JUSTICA TIMÓTEO - COMARCA; TIMOTEO-PJ-04PJ 0,00 0,00 8.810,89 0,00 0,00 0,00 0,00 2.105,00 10.915,89 876,95 1.709,37 0,00 0,00 2.586,32 8.329,57 30/11/2023
396 699300 BRUNA URSINE TIMO ASSESSOR PROCURADOR JUSTICA BELO HORIZONTE - COMARCA; PROC JUST ESP ACOES COMP ORIG CRIMINAL-GAB 0,00 0,00 8.810,89 0,00 0,00 0,00 0,00 2.105,00 10.915,89 876,95 1.709,37 0,00 0,00 2.586,32 8.329,57 30/11/2023
397 463800 BRUNO ALVES TEIXEIRA ANALISTA DO MP UBERLÂNDIA - COMARCA; UBERLANDIA-PJ-04PJ 12.343,61 2.468,72 0,00 0,00 0,00 0,00 1.357,79 2.105,00 18.275,12 2.150,92 2.596,93 0,00 256,38 5.004,23 13.270,89 30/11/2023
398 538500 BRUNO AUGUSTO DA SILVA OFICIAL DO MP SANTA LUZIA - COMARCA; SANTA LUZIA-PJ-03PJ 7.506,70 1.501,34 0,00 0,00 0,00 0,00 0,00 2.105,00 11.113,04 1.222,23 1.256,14 0,00 142,92 2.621,29 8.491,75 30/11/2023
399 318200 BRUNO BARROS DE SOUZA OFICIAL DO MP BELO HORIZONTE - COMARCA; DIRETORIA GESTAO CONTRATOS CONVENIOS 12.343,61 3.703,08 0,00 0,00 0,00 0,00 1.353,64 2.105,00 19.505,33 982,16 2.635,76 0,00 0,00 3.617,92 15.887,41 30/11/2023
400 459600 BRUNO CASTELAR LUGAO MENDES OFICIAL DO MP BELO HORIZONTE - COMARCA; PROC JUST ATUACAO TRIBUNAIS SUPERIORES 11.212,54 2.242,51 4.346,47 0,00 0,00 0,00 1.631,36 3.055,00 22.487,88 982,16 3.617,69 0,00 0,00 4.599,85 17.888,03 30/11/2023
401 427400 BRUNO CESAR RIBEIRO DE PAIVA ANALISTA DO MP BELO HORIZONTE - COMARCA; DIRETORIA DO COLEGIO E DA CAMARA DE PJ 18.720,84 3.744,17 0,00 0,00 0,00 0,00 1.196,64 2.105,00 25.766,65 3.375,35 4.364,70 0,00 0,00 7.740,05 18.026,60 30/11/2023
402 380900 BRUNO CIRILO ANTUNES OFICIAL DO MP VARGINHA - COMARCA; VARGINHA-PJ-05PJ 12.343,61 3.703,08 0,00 0,00 0,00 0,00 1.314,99 2.105,00 19.466,68 2.348,42 2.862,17 0,00 312,83 5.523,42 13.943,26 30/11/2023
403 329000 BRUNO DE MELO REIS ANALISTA DO MP PATROCÍNIO - COMARCA; PATROCINIO-PJ-02PJ 23.070,31 9.228,12 0,00 0,00 0,00 0,00 3.209,69 4.005,00 39.513,12 4.948,70 6.479,88 0,00 189,32 11.617,90 27.895,22 30/11/2023
404 697800 BRUNO GAZZOLA BEZERRA FALCAO ASSESSOR PROCURADOR JUSTICA BELO HORIZONTE - COMARCA; PROCURADOR-GERAL ADJUNTO JURIDICO- GABINETE 0,00 0,00 8.810,89 0,00 0,00 0,00 807,66 2.105,00 11.723,55 876,95 1.709,37 0,00 0,00 2.586,32 9.137,23 30/11/2023
405 378300 BRUNO HERDY LOPES DE OLIVEIRA ANALISTA DO MP GOVERNADOR VALADARES - COMARCA; GOVERNADOR VALADARES-PJ-03PJ 20.533,67 6.160,10 0,00 0,00 0,00 0,00 2.059,31 2.105,00 30.858,08 4.051,95 5.310,38 0,00 113,30 9.475,63 21.382,45 30/11/2023
406 529700 BRUNO JOSE BUENO DIAS OFICIAL DO MP SÃO SEBASTIÃO DO PARAÍSO - COMARCA; SAO SEBASTIAO DO PARAISO-PJ-02PJ 7.506,70 1.501,34 0,00 0,00 0,00 0,00 0,00 2.105,00 11.113,04 1.222,23 1.204,00 0,00 142,92 2.569,15 8.543,89 30/11/2023
407 691600 BRUNO JOSE RIBEIRO ASSESSOR PROMOTOR JUSTICA CLÁUDIO - COMARCA; CLAUDIO-PJ-UNPJ 0,00 0,00 8.810,89 0,00 0,00 0,00 0,00 2.105,00 10.915,89 876,95 1.709,37 0,00 0,00 2.586,32 8.329,57 30/11/2023
408 350100 BRUNO LAUD SERRANO DOS REIS OFICIAL DO MP UBÁ - COMARCA; UBA-PJ-02PJ 12.343,61 4.937,44 0,00 0,00 0,00 0,00 1.584,10 2.105,00 20.970,15 2.545,92 3.115,06 0,00 277,75 5.938,73 15.031,42 30/11/2023
409 728900 BRUNO LIMA PITANGA ASSESSOR PROMOTOR JUSTICA BELO HORIZONTE - COMARCA; NUCLEO DA EXECUCAO PENAL 0,00 0,00 8.810,89 0,00 0,00 0,00 0,00 3.055,00 11.865,89 876,95 1.709,37 0,00 0,00 2.586,32 9.279,57 30/11/2023
410 745900 BRUNO LUIZ MARQUES ROCHA OFICIAL DO MP RIBEIRÃO DAS NEVES - COMARCA; RIBEIRAO NEVES-SEC PJ EXECUCAO PENAL 4.570,25 0,00 0,00 0,00 0,00 0,00 0,00 2.105,00 6.675,25 526,88 257,78 0,00 0,00 784,66 5.890,59 30/11/2023
411 373800 BRUNO MARTINO DE ALBUQUERQUE ANALISTA DO MP PONTE NOVA - COMARCA; PONTE NOVA-PJ-03PJ 20.533,67 6.160,10 0,00 0,00 0,00 0,00 2.077,86 2.105,00 30.876,63 4.051,95 5.206,11 0,00 113,30 9.371,36 21.505,27 30/11/2023
412 732900 BRUNO NOGUEIRA GUIMARAES ASSESSOR ADMINISTRATIVO I BELO HORIZONTE - COMARCA; COORD DE INCLUSAO E MOBILIZACAO SOCIAIS 0,00 0,00 4.872,71 0,00 0,00 0,00 0,00 2.105,00 6.977,71 718,08 670,06 0,00 0,00 1.388,14 5.589,57 30/11/2023
413 470400 BRUNO NOVAIS CABRAL ANALISTA DO MP MUTUM - COMARCA; MUTUM-PJ-UNPJ 12.343,61 2.468,72 0,00 0,00 0,00 0,00 1.504,68 3.055,00 19.372,01 2.150,92 2.596,93 0,00 256,38 5.004,23 14.367,78 30/11/2023
414 648600 BRUNO RIBEIRO E MELO COORDENADOR I BELO HORIZONTE - COMARCA; DIR RELACOES INSTITUCIONAIS 0,00 0,00 16.469,17 0,00 0,00 0,00 1.308,09 2.105,00 19.882,26 876,95 3.815,40 0,00 0,00 4.692,35 15.189,91 30/11/2023
415 369200 BRUNO ROBERTO DIAS DE OLIVEIRA OFICIAL DO MP BELO HORIZONTE - COMARCA; BH-22PJ PES COM DEF E IDOSOS-SECRETARIA 12.343,61 3.703,08 0,00 0,00 0,00 0,00 1.470,95 2.105,00 19.622,64 982,16 3.081,66 0,00 0,00 4.063,82 15.558,82 30/11/2023
416 547700 BRUNO ROBERTO SOUZA GONCALVES ANALISTA DO MP PARACATU - COMARCA; PARACATU-PJ-03PJ 12.343,61 2.468,72 0,00 0,00 0,00 0,00 1.244,66 3.055,00 19.111,99 2.150,92 2.596,93 0,00 176,06 4.923,91 14.188,08 30/11/2023
417 546100 BRUNO SA VIEIRA ANALISTA DO MP BARBACENA - COMARCA; BARBACENA-PJ-SECRETARIA 12.343,61 2.468,72 0,00 0,00 0,00 0,00 0,00 3.055,00 17.867,33 2.150,92 2.492,65 0,00 235,01 4.878,58 12.988,75 30/11/2023
418 438200 BRUNO SALES PEREIRA ANALISTA DO MP BELO HORIZONTE - COMARCA; CENTRAL DE APOIO TECNICO-SETOR CONTABIL 17.559,01 3.511,80 0,00 0,00 0,00 0,00 0,00 2.105,00 23.175,81 3.152,28 3.963,95 0,00 417,38 7.533,61 15.642,20 30/11/2023
419 537400 BRUNO SANT'ANA CESAR ANALISTA DO MP BELO HORIZONTE - COMARCA; BH-12PJ JUIZO CRIMINAL-GAB 105PJ 12.343,61 2.468,72 0,00 0,00 0,00 0,00 1.244,65 2.105,00 18.161,98 2.150,92 2.596,93 0,00 235,01 4.982,86 13.179,12 30/11/2023
420 727700 BYANKA DA SILVA MORAIS ASSESSOR PROCURADOR JUSTICA BELO HORIZONTE - COMARCA; GABINETE DE PROCURADOR DE JUSTIÇA - SALA 805 0,00 0,00 8.810,89 0,00 0,00 0,00 0,00 2.105,00 10.915,89 876,95 1.709,37 0,00 0,00 2.586,32 8.329,57 30/11/2023
421 748100 CAETANO ALBERTO MARTINS BOTELHO ASSESSOR PROMOTOR JUSTICA COROMANDEL - COMARCA; COROMANDEL-PJ-02PJ 0,00 0,00 8.810,89 0,00 0,00 0,00 0,00 2.105,00 10.915,89 876,95 1.709,37 0,00 0,00 2.586,32 8.329,57 30/11/2023
422 405800 CAIO FERNANDO RODRIGUES DE OLIVEIRA ANALISTA DO MP BELO HORIZONTE - COMARCA; ASSESSORIA JURIDICO-ADMINISTRATIVA 18.720,84 5.616,25 0,00 0,00 0,00 0,00 1.994,39 2.105,00 28.436,48 982,16 5.375,66 0,00 0,00 6.357,82 22.078,66 30/11/2023
423 530000 CAIO GUEDES DE OLIVEIRA ANALISTA DO MP DIAMANTINA - COMARCA; DIAMANTINA-PJ-02PJ 12.343,61 2.468,72 0,00 0,00 0,00 0,00 995,72 2.105,00 17.913,05 2.150,92 2.544,79 0,00 235,01 4.930,72 12.982,33 30/11/2023
424 491400 CAIO MIRANDA JUNQUEIRA ANALISTA DO MP BELO HORIZONTE - COMARCA; CENT ESTAD COOPERACAO TECNICO-JURIDICA 12.343,61 2.468,72 0,00 0,00 0,00 0,00 0,00 2.105,00 16.917,33 2.150,92 2.492,65 0,00 256,38 4.899,95 12.017,38 30/11/2023
425 415800 CAMILA ALVES DA SILVA ANALISTA DO MP CAETÉ - COMARCA; CAETE-PJ-01PJ 18.720,84 3.744,17 0,00 0,00 0,00 0,00 1.994,38 2.105,00 26.564,39 3.375,35 4.334,51 0,00 109,78 7.819,64 18.744,75 30/11/2023
426 555800 CAMILA CAROLINE ROCHA CHAVES OFICIAL DO MP SALINAS - COMARCA; SALINAS-PJ-01PJ 7.506,70 1.501,34 0,00 0,00 0,00 0,00 0,00 3.055,00 12.063,04 1.222,23 1.256,14 0,00 142,92 2.621,29 9.441,75 30/11/2023
427 747700 CAMILA CATIA VILELA VIANA ASSESSOR DE CAO BELO HORIZONTE - COMARCA; CAO-SAUDE-ASSESSORIA 0,00 0,00 7.506,70 0,00 0,00 0,00 0,00 2.105,00 9.611,70 571,41 1.022,24 0,00 0,00 1.593,65 8.018,05 30/11/2023
428 445200 CAMILA CONDE ROCHA ANALISTA DO MP CONTAGEM - COMARCA; CONTAGEM-PJ-21PJ 14.960,00 2.992,00 0,00 0,00 0,00 0,00 1.494,79 2.105,00 21.551,79 2.653,27 3.299,57 0,00 355,61 6.308,45 15.243,34 30/11/2023
429 419900 CAMILA CUNNINGHAM PIMENTA DE PADUA ANALISTA DO MP BELO HORIZONTE - COMARCA; ASSESSORIA PSICOSSOCIAL 18.720,84 3.744,17 0,00 0,00 0,00 0,00 0,00 2.105,00 24.570,01 3.375,35 4.364,70 0,00 0,00 7.740,05 16.829,96 30/11/2023
430 742700 CAMILA DA SILVA GONCALVES ANALISTA DO MP BELO HORIZONTE - COMARCA; DIV FISCAL ADM CONT TERCEIRIZACAO 7.040,78 0,00 0,00 0,00 0,00 0,00 0,00 2.105,00 9.145,78 909,81 801,06 0,00 0,00 1.710,87 7.434,91 30/11/2023
431 714200 CAMILA DE SOUSA CUNHA ASSESSOR PROMOTOR JUSTICA PRADOS - COMARCA; PRADOS-PJ-UNPJ 0,00 0,00 8.810,89 0,00 0,00 0,00 807,66 2.105,00 11.723,55 876,95 1.709,37 0,00 0,00 2.586,32 9.137,23 30/11/2023
432 507700 CAMILA ELIZABETH RODRIGUES ANALISTA DO MP BELO HORIZONTE - COMARCA; BH-02PJ FAMILIA-SECRETARIA 15.447,01 3.089,40 0,00 0,00 0,00 0,00 987,37 2.105,00 21.628,78 2.746,77 3.457,19 0,00 0,00 6.203,96 15.424,82 30/11/2023
433 372700 CAMILA FONSECA LIMONGE ANALISTA DO MP BETIM - COMARCA; BETIM-PJ-01PJ 20.533,67 6.160,10 0,00 0,00 0,00 0,00 2.059,31 2.105,00 30.858,08 4.051,95 5.310,38 0,00 113,30 9.475,63 21.382,45 30/11/2023
434 621300 CAMILA GOLFETO DE SOUSA VALENTE OFICIAL DO MP CARANGOLA - COMARCA; CARANGOLA-PJ-SECRETARIA 7.506,70 750,67 0,00 0,00 0,00 0,00 756,92 3.530,00 12.544,29 1.102,13 978,46 0,00 142,92 2.223,51 10.320,78 30/11/2023
435 409800 CAMILA GONCALVES COSTA RIBEIRO ANALISTA DO MP IPATINGA - COMARCA; GAECO REGIONAL DE IPATINGA 12.343,61 3.703,08 0,00 0,00 0,00 0,00 2.592,17 3.055,00 21.693,86 2.545,92 3.062,93 0,00 256,38 5.865,23 15.828,63 30/11/2023
436 335000 CAMILA GONTIJO DE PAIVA ANALISTA DO MP BELO HORIZONTE - COMARCA; COORD DE CONTROLE CONSTITUCIONALIDADE 23.070,31 6.921,09 0,00 0,00 962,56 0,00 17.297,23 2.753,88 51.005,07 6.598,92 9.154,64 0,00 278,71 16.032,27 34.972,80 30/11/2023
437 693400 CAMILA HECKSHER MONTEIRO ASSESSOR PROCURADOR JUSTICA BELO HORIZONTE - COMARCA; GABINETE DE PROCURADOR DE JUSTIÇA - SALA 613 0,00 0,00 8.810,89 0,00 0,00 0,00 0,00 2.105,00 10.915,89 876,95 1.709,37 0,00 0,00 2.586,32 8.329,57 30/11/2023
438 696000 CAMILA IMACULADA OLIVEIRA ASSESSOR PROCURADOR JUSTICA BELO HORIZONTE - COMARCA; GABINETE DE PROCURADOR DE JUSTICA - SALA 312 0,00 0,00 8.810,89 0,00 0,00 0,00 807,66 2.105,00 11.723,55 876,95 1.709,37 0,00 0,00 2.586,32 9.137,23 30/11/2023
439 547800 CAMILA MATTARELLI DE ABREU E SILVA ANALISTA DO MP BELO HORIZONTE - COMARCA; CAO-VIOLENCIA DOMESTICA E FAMILIAR 12.343,61 2.468,72 0,00 0,00 0,00 0,00 0,00 2.105,00 16.917,33 2.150,92 2.596,93 0,00 0,00 4.747,85 12.169,48 30/11/2023
440 735800 CAMILA REGINA DE OLIVEIRA ASSESSOR ADMINISTRATIVO II BELO HORIZONTE - COMARCA; CENTRO AUTOCOMPOSICAO DE CONFLITOS 0,00 0,00 7.506,70 0,00 0,00 0,00 0,00 2.105,00 9.611,70 876,95 1.350,72 0,00 0,00 2.227,67 7.384,03 30/11/2023
441 752700 CAMILA RODRIGUES MAURO ASSESSOR PROMOTOR JUSTICA CONTAGEM - COMARCA; CONTAGEM-PJ-22PJ 0,00 0,00 8.810,89 0,00 0,00 0,00 0,00 2.105,00 10.915,89 876,95 1.709,37 0,00 0,00 2.586,32 8.329,57 30/11/2023
442 430000 CANDIDA MARINA COSTA ANALISTA DO MP BELO HORIZONTE - COMARCA; DIRET DE INFORMACAO E CONHECIMENTO-DINC/CEAF 18.720,84 3.744,17 0,00 0,00 0,00 0,00 0,00 2.105,00 24.570,01 3.375,35 4.334,51 0,00 109,78 7.819,64 16.750,37 30/11/2023
443 614300 CARINA CORTIELHA OFICIAL DO MP BELO HORIZONTE - COMARCA; BH-23PJ CIVEL-FISC AC POL PUB I 7.506,70 750,67 0,00 0,00 0,00 0,00 687,57 2.105,00 11.049,94 1.096,23 1.082,73 0,00 127,83 2.306,79 8.743,15 30/11/2023
444 380400 CARINA DIAS FACANHA DE SOUZA ANALISTA DO MP SANTA RITA DO SAPUCAÍ - COMARCA; SANTA RITA DO SAPUCAI-PJ-01PJ 20.533,67 6.160,10 0,00 0,00 0,00 0,00 823,72 3.055,00 30.572,49 4.051,95 5.310,38 0,00 113,30 9.475,63 21.096,86 30/11/2023
445 255000 CARLA ADRIANA DE MENEZES OFICIAL DO MP BELO HORIZONTE - COMARCA; CENT DE APOIO TEC-SETOR DEF,IDOSO E INFANC 12.343,61 4.937,44 0,00 0,00 0,00 0,00 1.584,10 2.105,00 20.970,15 2.545,92 3.167,20 0,00 277,75 5.990,87 14.979,28 30/11/2023
446 425100 CARLA ADRIANA DINIZ AMARAL OFICIAL DO MP CONTAGEM - COMARCA; CONTAGEM-PJ-SECRETARIA 12.343,61 2.468,72 2.918,39 0,00 0,00 0,00 900,53 2.105,00 20.736,25 2.150,92 3.399,49 0,00 232,89 5.783,30 14.952,95 30/11/2023
447 508100 CARLA ALESSANDRA FONSECA ANALISTA DO MP BELO HORIZONTE - COMARCA; CAO-ORDEM ECONOMICA E TRIBUTARIA-SECRETARIA 12.343,61 2.468,72 0,00 0,00 0,00 0,00 1.357,79 2.105,00 18.275,12 2.150,92 2.596,93 0,00 256,38 5.004,23 13.270,89 30/11/2023
448 607100 CARLA ANGELICA DIAS MIRANDA OFICIAL DO MP SANTA LUZIA - COMARCA; SANTA LUZIA-PJ-SECRETARIA 7.506,70 750,67 0,00 0,00 0,00 0,00 503,29 2.105,00 10.865,66 1.102,13 926,32 0,00 142,92 2.171,37 8.694,29 30/11/2023
449 351500 CARLA APARECIDA MENDES RAMIRIO OFICIAL DO MP PASSOS - COMARCA; PASSOS-PJ-01PJ 12.343,61 3.703,08 0,00 0,00 0,00 0,00 0,00 2.105,00 18.151,69 2.348,42 2.829,93 0,00 277,74 5.456,09 12.695,60 30/11/2023
450 752600 CARLA CHRISTIAN DE LIMA OFICIAL DO MP MARTINHO CAMPOS - COMARCA; MARTINHO CAMPOS-PJ-UNPJ 4.570,25 0,00 0,00 0,00 0,00 0,00 0,00 2.105,00 6.675,25 526,88 257,78 0,00 0,00 784,66 5.890,59 30/11/2023
451 713100 CARLA DOS SANTOS SOUZA ASSESSOR PROMOTOR JUSTICA ESPERA FELIZ - COMARCA; ESPERA FELIZ-PJ-UNPJ 0,00 0,00 8.810,89 0,00 0,00 0,00 0,00 2.105,00 10.915,89 876,95 1.709,37 0,00 0,00 2.586,32 8.329,57 30/11/2023
452 442800 CARLA GONCALVES COSTA SOALHEIRO ANALISTA DO MP GOVERNADOR VALADARES - COMARCA; GOVERNADOR VALADARES-PJ-11PJ 13.111,41 2.717,79 0,00 0,00 0,00 0,00 1.447,67 3.055,00 20.331,87 2.390,03 2.736,76 0,00 344,41 5.471,20 14.860,67 30/11/2023
453 321500 CARLA GONCALVES MASSOTE OFICIAL DO MP CAMPO BELO - COMARCA; CAMPO BELO-PJ-02PJ 12.343,61 3.703,08 0,00 0,00 0,00 0,00 1.630,07 2.105,00 19.781,76 2.348,42 2.882,06 0,00 277,74 5.508,22 14.273,54 30/11/2023
454 429200 CARLA HAUTEQUESTT BECHARA ANALISTA DO MP BELO HORIZONTE - COMARCA; DIRETORIA DE INTELIGENCIA 18.720,84 3.744,17 0,00 0,00 0,00 0,00 1.994,38 2.105,00 26.564,39 3.375,35 4.334,50 0,00 109,79 7.819,64 18.744,75 30/11/2023
455 247500 CARLA MATILDE GUIMARAES DE OLIVEIRA OFICIAL DO MP ITAJUBA - COMARCA; ITAJUBA-PJ-SECRETARIA 12.343,61 4.937,44 0,00 0,00 0,00 0,00 0,00 2.105,00 19.386,05 2.545,92 3.115,06 0,00 299,11 5.960,09 13.425,96 30/11/2023
456 226100 CARLA MERLI DA CONCEICAO ANALISTA DO MP BELO HORIZONTE - COMARCA; CENTRAL DE APOIO TECNICO-SETOR CONTABIL 23.070,31 9.228,12 0,00 39,94 0,00 0,00 0,00 2.105,00 34.443,37 4.948,70 6.584,08 0,00 0,00 11.532,78 22.910,59 30/11/2023
457 181401 CARLO MICHEL GAUDENSI COELHO ANALISTA DO MP BELO HORIZONTE - COMARCA; BH-08PJ JUIZADO ESPECIAL-SECRETARIA 18.130,77 7.252,31 0,00 0,00 0,00 0,00 2.497,18 2.105,00 29.985,26 3.842,24 5.038,77 0,00 0,00 8.881,01 21.104,25 30/11/2023
458 634000 CARLOS ALBERTO AMORMINO TRIGUEIRO ANALISTA DO MP BELO HORIZONTE - COMARCA; DIRET DE APOIO AS PROCURADORIAS DE JUSTICA 11.577,56 1.157,76 0,00 0,00 0,00 0,00 0,00 3.055,00 15.790,32 982,16 2.187,20 0,00 0,00 3.169,36 12.620,96 30/11/2023
459 637900 CARLOS ALBERTO DE MOURA OFICIAL DO MP SETE LAGOAS - COMARCA; SETE LAGOAS-PJ-07PJ 7.506,70 750,67 0,00 0,00 0,00 0,00 0,00 2.105,00 10.362,37 359,32 1.234,87 0,00 0,00 1.594,19 8.768,18 30/11/2023
460 638700 CARLOS ALBERTO FERREIRA BRAGA ANALISTA DO MP VESPASIANO - COMARCA; VESPASIANO-PJ-06PJ 11.577,56 1.157,76 0,00 0,00 0,00 0,00 1.252,91 2.105,00 16.093,23 982,16 2.242,88 0,00 0,00 3.225,04 12.868,19 30/11/2023
461 375801 CARLOS ALBERTO ROCHA ANALISTA DO MP VARGINHA - COMARCA; GAECO REGIONAL DE VARGINHA 12.343,61 3.703,08 0,00 0,00 0,00 0,00 1.244,66 4.005,00 21.296,35 2.348,42 2.777,79 0,00 235,01 5.361,22 15.935,13 30/11/2023
462 462800 CARLOS ANDREI SOARES FAGUNDES ANALISTA DO MP MONTES CLAROS - COMARCA; MONTES CLAROS-PJ-09PJ 12.343,61 2.468,72 0,00 0,00 0,00 0,00 1.357,80 2.105,00 18.275,13 2.150,92 2.544,79 0,00 256,38 4.952,09 13.323,04 30/11/2023
463 370300 CARLOS AUGUSTO BUENO DIAS ASSESSOR ADMINISTRATIVO IV BELO HORIZONTE - COMARCA; DIRETORIA DE FISCALIZACAO DE OBRAS 0,00 0,00 14.488,22 0,00 0,00 0,00 428,19 2.105,00 17.021,41 876,95 2.827,07 0,00 0,00 3.704,02 13.317,39 30/11/2023
464 505100 CARLOS CEZAR CARVALHO ANALISTA DO MP CONTAGEM - COMARCA; CONTAGEM-PJ-02PJ 12.343,61 6.171,81 0,00 0,00 0,00 0,00 1.697,24 2.105,00 22.317,66 2.743,42 3.348,07 0,00 299,11 6.390,60 15.927,06 30/11/2023
465 196800 CARLOS EDUARDO DE OLIVEIRA MARINHO OFICIAL DO MP ALPINÓPOLIS - COMARCA; ALPINOPOLIS-PJ-UNPJ 22.191,68 15.534,18 0,00 132,30 0,00 0,00 3.250,70 2.105,00 43.213,86 5.795,34 7.525,43 135,90 1.021,81 14.478,48 28.735,38 30/11/2023
466 650800 CARLOS EDUARDO NIZA DA SILVA OFICIAL DO MP IGARAPÉ - COMARCA; IGARAPE-PJ-01PJ 7.270,07 727,01 0,00 0,00 0,00 0,00 0,00 3.055,00 11.052,08 1.072,70 939,87 0,00 10,49 2.023,06 9.029,02 30/11/2023
467 491800 CARLOS EDUARDO ROMAN OFICIAL DO MP BARBACENA - COMARCA; BARBACENA-PJ-09PJ 10.858,90 3.257,67 0,00 0,00 0,00 0,00 0,00 2.105,00 16.221,57 2.039,60 2.393,08 0,00 156,82 4.589,50 11.632,07 30/11/2023
468 299300 CARLOS HENRIQUE BICALHO ANALISTA DO MP BELO HORIZONTE - COMARCA; BH-17PJ PATRIMONIO PUBLICO-SECRETARIA 23.070,31 11.535,16 0,00 0,00 0,00 0,00 0,00 3.055,00 37.660,47 5.317,82 7.059,39 0,00 399,09 12.776,30 24.884,17 30/11/2023
469 351600 CARLOS HENRIQUE FELICIO DA FONSECA OFICIAL DO MP JUIZ DE FORA - COMARCA; JUIZ DE FORA-PJ-21PJ 12.343,61 4.937,44 0,00 0,00 0,00 0,00 1.470,96 2.105,00 20.857,01 2.545,92 3.115,06 0,00 0,00 5.660,98 15.196,03 30/11/2023
470 729100 CARLOS HENRIQUE TEIXEIRA BRAGA ASSESSOR ADMINISTRATIVO II BELO HORIZONTE - COMARCA; DIRETORIA DE SUPORTE E MANUTENCAO 0,00 0,00 7.506,70 0,00 0,00 0,00 0,00 2.105,00 9.611,70 876,95 1.350,72 0,00 0,00 2.227,67 7.384,03 30/11/2023
471 85400 CARLOS JOSE VIEIRA OFICIAL DO MP BELO HORIZONTE - COMARCA; DIRETORIA DO COLEGIO E DA CAMARA DE PJ 29.122,38 26.210,15 0,00 0,00 0,00 5.795,34 6.664,10 2.105,00 69.896,97 5.795,34 9.452,28 20.654,81 0,00 35.902,43 33.994,54 30/11/2023
472 229100 CARLOS MERCES DE OLIVEIRA ANALISTA DO MP BELO HORIZONTE - COMARCA; CENTRAL DE APOIO TECN-SETOR DE MEIO AMBIENTE 23.070,31 9.228,12 0,00 0,00 0,00 0,00 0,00 2.105,00 34.403,43 4.948,70 5.042,41 0,00 1.291,29 11.282,40 23.121,03 30/11/2023
473 538300 CARLOS RANGEL SILVA DE MELO ANALISTA DO MP BELO HORIZONTE - COMARCA; DIVISAO DE CONTROLE IMOBILIARIO 12.343,61 4.937,44 0,00 0,00 0,00 0,00 0,00 4.005,00 21.286,05 2.545,92 3.167,20 0,00 277,75 5.990,87 15.295,18 30/11/2023
474 265100 CARLOS REIFF MIRANDA ANALISTA DO MP BELO HORIZONTE - COMARCA; BH-19PJ SAUDE-SECRETARIA 150PJ 23.070,31 9.228,12 0,00 0,00 0,00 0,00 0,00 2.105,00 34.403,43 4.948,70 6.428,41 0,00 1.274,76 12.651,87 21.751,56 30/11/2023
475 305400 CARLOS ROCHA DE SOUZA OFICIAL DO MP MONTALVÂNIA - COMARCA; MONTALVANIA-PJ-SECRETARIA 7.506,70 2.252,01 0,00 0,00 0,00 0,00 357,82 2.700,76 12.817,29 1.342,34 1.220,99 0,00 168,91 2.732,24 10.085,05 30/11/2023
476 744500 CARLOS THIAGO COSTA FIGUEREDO OFICIAL DO MP PARAOPEBA - COMARCA; PARAOPEBA-PJ-UNPJ 4.570,25 0,00 0,00 0,00 0,00 0,00 0,00 2.105,00 6.675,25 526,88 257,78 0,00 0,00 784,66 5.890,59 30/11/2023
477 399900 CARMELITA EVANGELISTA DE SOUZA OFICIAL DO MP JOÃO PINHEIRO - COMARCA; JOAO PINHEIRO-PJ-01PJ 11.212,54 2.242,51 0,00 0,00 0,00 0,00 1.194,48 2.105,00 16.754,53 1.933,76 2.265,31 0,00 284,17 4.483,24 12.271,29 30/11/2023
478 202000 CARMEN LUCIA MARIZ DE MACEDO OFICIAL DO MP BELO HORIZONTE - COMARCA; DIRETORIA GESTAO COMPRAS LICITACOES 21.346,53 14.942,57 5.434,83 0,00 0,00 5.587,20 3.250,70 -2.405,79 48.156,04 5.587,20 9.348,00 4.133,97 1.145,42 20.214,59 27.941,45 30/11/2023
479 701900 CAROLINA CARVALHO COSTA ASSESSOR PROCURADOR JUSTICA BELO HORIZONTE - COMARCA; GABINETE DE PROCURADOR DE JUSTIÇA - SALA 811 0,00 0,00 8.810,89 0,00 0,00 0,00 0,00 2.105,00 10.915,89 876,95 1.709,37 0,00 0,00 2.586,32 8.329,57 30/11/2023
480 228500 CAROLINA CHIARELLA DOS SANTOS RIBEIRO COORDENADOR I BELO HORIZONTE - COMARCA; DIVISAO DE SERVICOS 16.469,17 6.587,67 0,00 158,83 0,00 0,00 785,03 2.105,00 26.105,70 2.080,11 4.651,27 0,00 0,00 6.731,38 19.374,32 30/11/2023
481 446500 CAROLINA COSTA VAL RODRIGUES ANALISTA DO MP BELO HORIZONTE - COMARCA; DIVISAO DE MATERIAIS 18.130,77 5.439,23 4.940,75 32,87 937,96 0,00 11.325,19 4.222,17 45.028,94 4.767,83 8.453,00 0,00 0,00 13.220,83 31.808,11 30/11/2023
482 751500 CAROLINA DA MATTA AMBROSIO OFICIAL DO MP MANHUMIRIM - COMARCA; MANHUMIRIM-PJ-02PJ 4.570,25 0,00 0,00 0,00 0,00 0,00 0,00 2.105,00 6.675,25 526,88 257,78 0,00 0,00 784,66 5.890,59 30/11/2023
483 603501 CAROLINA DOMINGOS BRANDAO RABELLO ANALISTA DO MP BARROSO - COMARCA; BARROSO-PJ-01PJ 12.343,61 1.234,36 0,00 0,00 0,00 0,00 0,00 4.005,00 17.582,97 1.953,42 2.274,71 0,00 355,26 4.583,39 12.999,58 30/11/2023
484 404300 CAROLINA DOS SANTOS VIEIRA ANALISTA DO MP BELO HORIZONTE - COMARCA; BH-08PJ JUIZADO ESPECIAL-SECRETARIA 20.533,67 6.160,10 0,00 0,00 0,00 0,00 0,00 2.105,00 28.798,77 4.051,95 5.206,11 0,00 113,30 9.371,36 19.427,41 30/11/2023
485 551200 CAROLINA LOPES ARANTES MASCARENHAS ANALISTA DO MP BELO HORIZONTE - COMARCA; CAO-VIOLENCIA DOMESTICA E FAMILIAR 12.343,61 2.468,72 0,00 0,00 0,00 0,00 1.379,30 3.055,00 19.246,63 2.150,92 2.492,65 0,00 235,01 4.878,58 14.368,05 30/11/2023
486 622600 CAROLINA LOREDO LOPES CATIZANI OFICIAL DO MP RIBEIRÃO DAS NEVES - COMARCA; RIBEIRAO DAS NEVES-PJ-12PJ 7.506,70 750,67 0,00 0,00 0,00 0,00 0,00 2.105,00 10.362,37 1.102,13 1.082,73 0,00 127,82 2.312,68 8.049,69 30/11/2023
487 382200 CAROLINA MENDES CHAVES LIN ANALISTA DO MP BELO HORIZONTE - COMARCA; BH-12PJ JUIZO CRIMINAL-GAB 088PJ 12.343,61 3.703,08 0,00 0,00 5.348,90 0,00 0,00 3.055,00 24.450,59 2.348,42 4.300,87 0,00 256,38 6.905,67 17.544,92 30/11/2023
488 461900 CAROLINA MURTA TEIXEIRA DIAS ANALISTA DO MP BELO HORIZONTE - COMARCA; DIR CRIACAO E MIDIAS 12.343,61 2.468,72 0,00 0,00 0,00 0,00 0,00 2.105,00 16.917,33 2.150,92 2.596,93 0,00 256,38 5.004,23 11.913,10 30/11/2023
489 509600 CAROLINA PINTO DE OLIVEIRA SOUZA ANALISTA DO MP MURIAÉ - COMARCA; MURIAE-PJ-01PJ 12.343,61 2.468,72 0,00 0,00 0,00 0,00 1.357,81 3.055,00 19.225,14 2.150,92 2.492,65 0,00 256,38 4.899,95 14.325,19 30/11/2023
490 629100 CAROLINA RODRIGUES AMARAL ANALISTA DO MP BELO HORIZONTE - COMARCA; PROC. JUSTICA DIR. DIFUSOS E COLETIVOS-SEC 12.343,61 1.234,36 0,00 0,00 0,00 0,00 700,44 2.105,00 16.383,41 1.953,42 2.311,79 0,00 220,43 4.485,64 11.897,77 30/11/2023
491 502600 CAROLINA RODRIGUES RUBEN ANALISTA DO MP BELO HORIZONTE - COMARCA; BH-18PJ VIOLENCIA DOMESTICA-GAB 007PJ 12.343,61 2.468,72 0,00 0,00 0,00 0,00 1.357,81 4.005,00 20.175,14 2.150,92 2.492,65 0,00 256,38 4.899,95 15.275,19 30/11/2023
492 754000 CAROLINA SILVA MASSON CURSI OFICIAL DO MP CANÁPOLIS - COMARCA; CANAPOLIS-PJ-UNPJ 4.570,25 0,00 0,00 0,00 0,00 0,00 0,00 2.105,00 6.675,25 526,88 257,78 0,00 0,00 784,66 5.890,59 30/11/2023
493 529600 CAROLINA VAZ DE MELO MAMBRINI ANALISTA DO MP BELO HORIZONTE - COMARCA; BH-14PJ DEFESA CONSUMIDOR-GAB 005PJ 12.343,61 2.468,72 0,00 0,00 0,00 0,00 0,00 2.105,00 16.917,33 2.150,92 2.596,93 0,00 235,01 4.982,86 11.934,47 30/11/2023
494 619100 CAROLINA ZAKHIA NARDELLI RODRIGUES ANALISTA DO MP NEPOMUCENO - COMARCA; NEPOMUCENO-PJ-UNPJ 12.343,61 1.234,36 0,00 0,00 0,00 0,00 933,93 3.055,00 17.566,90 1.953,42 2.259,65 0,00 220,43 4.433,50 13.133,40 30/11/2023
495 517600 CAROLINE ALVES DE OLIVEIRA MULLER ANALISTA DO MP VISCONDE DO RIO BRANCO - COMARCA; VISCONDE DO RIO BRANCO-PJ-01PJ 12.343,61 3.703,08 0,00 0,00 0,00 0,00 0,00 2.207,24 18.253,93 2.348,42 2.829,93 0,00 256,38 5.434,73 12.819,20 30/11/2023
496 373200 CAROLINE ANTUNES RIBEIRO OFICIAL DO MP JACUI - COMARCA; JACUI-PJ-UNPJ 12.343,61 3.703,08 0,00 0,00 0,00 0,00 1.357,80 2.105,00 19.509,49 2.348,42 2.829,93 0,00 0,00 5.178,35 14.331,14 30/11/2023
497 723500 CAROLINE CORDEIRO FERNANDES MACHADO ASSESSOR PROMOTOR JUSTICA BELO HORIZONTE - COMARCA; COORD DE INCLUSAO E MOBILIZACAO SOCIAIS 0,00 0,00 8.810,89 0,00 0,00 0,00 0,00 2.105,00 10.915,89 876,95 1.709,37 0,00 0,00 2.586,32 8.329,57 30/11/2023
498 556800 CAROLINE DE SOUZA CARDOSO DOMINGUES OFICIAL DO MP BRASÍLIA DE MINAS - COMARCA; BRASILIA DE MINAS-PJ-02PJ 7.506,70 1.501,34 0,00 0,00 0,00 0,00 561,50 8.230,47 17.800,01 1.222,23 1.256,14 0,00 142,92 2.621,29 15.178,72 30/11/2023
499 751700 CAROLINE GUIMARAES DAMASCENO ASSESSOR PROMOTOR JUSTICA SANTA LUZIA - COMARCA; SANTA LUZIA-PJ-01PJ 0,00 0,00 8.810,89 0,00 0,00 0,00 0,00 2.105,00 10.915,89 876,95 1.709,37 0,00 0,00 2.586,32 8.329,57 30/11/2023
500 499400 CAROLINE MARQUES DE LOURDES MARZULLO OFICIAL DO MP JUIZ DE FORA - COMARCA; JUIZ DE FORA-PJ-08PJ 10.858,90 2.171,78 0,00 0,00 0,00 0,00 1.362,09 3.530,00 17.922,77 982,16 2.314,47 0,00 0,00 3.296,63 14.626,14 30/11/2023
501 616800 CAROLINE MONTEIRO DE BARROS ANALISTA DO MP CONTAGEM - COMARCA; CONTAGEM-PJ-11PJ 12.343,61 1.234,36 0,00 0,00 0,00 0,00 700,45 3.055,00 17.333,42 982,16 2.453,68 0,00 0,00 3.435,84 13.897,58 30/11/2023
502 618100 CAROLINE VASCONCELOS COSTA LANZA ANALISTA DO MP PARAOPEBA - COMARCA; PARAOPEBA-PJ-UNPJ 12.343,61 1.234,36 0,00 0,00 0,00 0,00 0,00 4.955,00 18.532,97 1.953,42 2.311,79 0,00 220,43 4.485,64 14.047,33 30/11/2023
503 699000 CAROLLINA RODRIGUES SOUTO AMARAL ASSESSOR PROCURADOR JUSTICA BELO HORIZONTE - COMARCA; GABINETE DE PROCURADOR DE JUSTIÇA-SALA1105-T3 0,00 0,00 8.810,89 0,00 0,00 0,00 0,00 2.105,00 10.915,89 876,95 1.709,37 0,00 0,00 2.586,32 8.329,57 30/11/2023
504 604000 CASSIA APARECIDA DA SILVA OFICIAL DO MP PARACATU - COMARCA; PARACATU-PJ-01PJ 7.506,70 750,67 0,00 0,00 0,00 0,00 0,00 2.105,00 10.362,37 1.102,13 1.082,73 0,00 142,92 2.327,78 8.034,59 30/11/2023
505 268800 CASSIA BEATRIZ TEIXEIRA OFICIAL DO MP BELO HORIZONTE - COMARCA; PROC. JUSTICA DE HABEAS CORPUS 18.130,77 7.252,31 4.346,47 0,00 0,00 0,00 2.490,88 2.105,00 34.325,43 3.842,24 6.142,01 0,00 334,71 10.318,96 24.006,47 30/11/2023
506 500000 CASSIA DE OLIVEIRA COSTA VIANA ANALISTA DO MP SETE LAGOAS - COMARCA; SETE LAGOAS-PJ-09PJ 12.343,61 8.640,53 0,00 0,00 0,00 3.138,41 0,00 2.105,00 26.227,55 3.138,41 4.885,68 0,00 0,00 8.024,09 18.203,46 30/11/2023
507 368800 CASSIA LUISA BATISTA MENDONCA WEBER COORDENADOR II BELO HORIZONTE - COMARCA; DIVISÃO DE EDUCAÇÃO PARA O CONSUMO 20.533,67 6.160,10 0,00 0,00 0,00 0,00 978,77 2.105,00 29.777,54 1.932,03 5.924,52 0,00 232,70 8.089,25 21.688,29 30/11/2023
508 622200 CASSIA VAZ DE AZEVEDO LISBOA MARZANO ASSESSOR ADMINISTRATIVO III BELO HORIZONTE - COMARCA; CGMP-DIR ESTAGIO PROBATORIO E ORIENT 0,00 0,00 10.858,90 0,00 0,00 0,00 995,41 2.105,00 13.959,31 876,95 2.116,16 0,00 0,00 2.993,11 10.966,20 30/11/2023
509 121000 CASSIO HENRIQUE AFONSO DA SILVA OFICIAL DO MP BELO HORIZONTE - COMARCA; CGMP-ASSESSORIA TECNICA 23.070,31 18.456,25 0,00 0,00 0,00 0,00 3.250,70 2.105,00 46.882,26 5.795,34 7.754,29 3.936,60 0,00 17.486,23 29.396,03 30/11/2023
510 756700 CATARINA ANNONI CESAR ASSESSOR PROCURADOR JUSTICA BELO HORIZONTE - COMARCA; GABINETE DE PROCURADOR DE JUSTIÇA - SALA 610 0,00 0,00 8.810,89 0,00 0,00 0,00 293,70 2.846,36 11.950,95 876,95 1.827,64 0,00 0,00 2.704,59 9.246,36 30/11/2023
511 512001 CATARINA NATALINO CALIXTO COORDENADOR II BELO HORIZONTE - COMARCA; DIRETORIA GESTAO COMPRAS LICITACOES 20.533,67 3.285,39 0,00 0,00 0,00 0,00 87,34 4.007,76 27.914,16 2.071,92 5.095,50 0,00 213,48 7.380,90 20.533,26 30/11/2023
512 606200 CATARINE DE SIQUEIRA DE QUADROS ANALISTA DO MP CONTAGEM - COMARCA; CONTAGEM-PJ-08PJ 12.343,61 1.234,36 0,00 0,00 0,00 0,00 0,00 3.055,00 16.632,97 1.953,42 2.170,44 0,00 355,26 4.479,12 12.153,85 30/11/2023
513 622300 CECILIA APARECIDA PEREIRA ASSUNCAO OFICIAL DO MP TRÊS PONTAS - COMARCA; TRES PONTAS-PJ-SECRETARIA 8.264,07 826,41 0,00 0,00 0,00 0,00 0,00 3.055,00 12.145,48 1.235,43 1.210,82 0,00 192,00 2.638,25 9.507,23 30/11/2023
514 538000 CECILIA FONTES DE MATOS PIMENTEL ANALISTA DO MP PALMA - COMARCA; PALMA-PJ-UNPJ 12.343,61 2.468,72 0,00 0,00 0,00 0,00 1.244,65 3.055,00 19.111,98 2.150,92 2.596,93 0,00 235,01 4.982,86 14.129,12 30/11/2023
515 748900 CECILIA KRUEL DE MAGALHAES PINTO ASSESSOR ADMINISTRATIVO IV BELO HORIZONTE - COMARCA; CAO-MEIO AMBIENTE 0,00 0,00 14.488,22 0,00 0,00 0,00 0,00 4.005,00 18.493,22 876,95 3.270,64 0,00 0,00 4.147,59 14.345,63 30/11/2023
516 261300 CECILIO ANTONIO CAMPOS DOS REIS ANALISTA DO MP BELO HORIZONTE - COMARCA; AUDITORIA INTERNA 23.070,31 9.228,12 0,00 0,00 0,00 0,00 3.411,52 7.272,75 42.982,70 4.948,70 6.636,22 0,00 0,00 11.584,92 31.397,78 30/11/2023
517 386400 CEFAS AMORELI DE FIGUEIREDO OFICIAL DO MP CABO VERDE - COMARCA; CABO VERDE-PJ-SECRETARIA 7.506,70 2.252,01 0,00 0,00 0,00 0,00 825,74 2.105,00 12.689,45 1.342,34 1.429,54 0,00 155,91 2.927,79 9.761,66 30/11/2023
518 421000 CELINA BENEDITA DE SOUZA ALMEIDA OFICIAL DO MP CAMBUÍ - COMARCA; CAMBUI-PJ-01PJ 12.343,61 8.640,53 0,00 2.618,07 0,00 19.686,61 1.747,29 2.105,00 47.141,11 3.138,41 4.833,54 0,00 1.329,48 9.301,43 37.839,68 30/11/2023
519 252900 CELIO DE MELO CASTOR ANALISTA DO MP BELO HORIZONTE - COMARCA; DIVISAO FROTA 23.070,31 9.228,12 0,00 0,00 0,00 0,00 0,00 2.105,00 34.403,43 4.948,70 6.276,06 0,00 1.309,65 12.534,41 21.869,02 30/11/2023
520 395700 CELIO FERREIRA LIMA OFICIAL DO MP CONTAGEM - COMARCA; CONTAGEM-PJ-SECRETARIA 12.343,61 3.703,08 0,00 0,00 0,00 0,00 529,54 7.881,81 24.458,04 2.348,42 2.810,03 0,00 312,83 5.471,28 18.986,76 30/11/2023
521 281300 CELMA REGINA PEREIRA SANTOS ANALISTA DO MP BELO HORIZONTE - COMARCA; PROMOT ESTADUAL DE DEF PATRI CULT E TUR DE MG 23.070,31 9.228,12 0,00 0,00 0,00 0,00 2.307,03 2.105,00 36.710,46 5.317,82 7.075,21 0,00 815,66 13.208,69 23.501,77 30/11/2023
522 535600 CELSO MEDEIROS DE PAIVA OFICIAL DO MP RIO PRETO - COMARCA; RIO PRETO-PJ-SECRETARIA 7.506,70 1.501,34 0,00 0,00 0,00 0,00 0,00 2.105,00 11.113,04 1.222,23 1.204,00 0,00 142,92 2.569,15 8.543,89 30/11/2023
523 367000 CESAR NARVAES DE AVELAR OFICIAL DO MP BELO HORIZONTE - COMARCA; DIRET DE INFORMACAO E CONHECIMENTO-DINC/CEAF 12.343,61 3.703,08 0,00 0,00 0,00 0,00 0,00 2.105,00 18.151,69 2.348,42 2.882,06 0,00 277,74 5.508,22 12.643,47 30/11/2023
524 226500 CESAR SILVEIRA BARROUIN OFICIAL DO MP BELO HORIZONTE - COMARCA; DIRETORIA DE ADMINISTRACAO FINANCEIRA 18.130,77 9.065,39 0,00 0,00 0,00 0,00 6.510,23 2.788,82 36.495,21 4.498,54 5.986,30 0,00 0,00 10.484,84 26.010,37 30/11/2023
525 121400 CEZAR MORENO CONCEICAO TAVARES OFICIAL DO MP BELO HORIZONTE - COMARCA; COORD DE INCLUSAO E MOBILIZACAO SOCIAIS 23.070,31 18.456,25 0,00 0,00 0,00 5.986,56 3.624,78 3.055,00 54.192,90 5.795,34 9.348,00 3.936,60 191,22 19.271,16 34.921,74 30/11/2023
526 243800 CHARLES MARTINS MUNIZ OFICIAL DO MP BELO HORIZONTE - COMARCA; LAB TECNOLOGIA CONTRA LAVAGEM DINHEIRO 18.130,77 7.252,31 0,00 0,00 0,00 0,00 0,00 1.500,00 26.883,08 3.842,24 5.038,77 0,00 0,00 8.881,01 18.002,07 30/11/2023
527 193500 CHARLIN CESAR KOURLY OFICIAL DO MP ARAGUARI - COMARCA; ARAGUARI-PJ-07PJ 22.191,68 8.876,67 0,00 0,00 0,00 0,00 2.739,47 2.105,00 35.912,82 4.751,88 6.171,16 0,00 657,85 11.580,89 24.331,93 30/11/2023
528 385500 CHILLEN PEIXOTO DE MOURA OFICIAL DO MP BELO HORIZONTE - COMARCA; DIVISAO DE MATERIAIS 12.343,61 3.703,08 0,00 0,00 0,00 0,00 0,00 4.005,00 20.051,69 2.348,42 2.862,17 0,00 312,83 5.523,42 14.528,27 30/11/2023
529 534500 CHRISTIAN DOUGLAS BRITO RUAS OFICIAL DO MP BOCAIÚVA - COMARCA; BOCAIUVA-PJ-03PJ 7.506,70 1.501,34 0,00 0,00 0,00 0,00 846,26 2.105,00 11.959,30 1.222,23 1.256,14 0,00 142,92 2.621,29 9.338,01 30/11/2023
530 370600 CHRISTIAN KARINE FELIX PRATES ASSESSOR ADMINISTRATIVO IV BELO HORIZONTE - COMARCA; SUPRIN DE PLANEJAMENTO E COORDENACAO 0,00 0,00 14.488,22 0,00 0,00 0,00 0,00 2.105,00 16.593,22 876,95 3.270,64 0,00 0,00 4.147,59 12.445,63 30/11/2023
531 435800 CHRISTIANA BAHIA ANDRADE PINA ANALISTA DO MP BELO HORIZONTE - COMARCA; LABORATORIO TECNOLOGIA INTELIGENCIA 18.720,84 3.744,17 0,00 0,00 0,00 0,00 2.266,22 2.105,00 26.836,23 3.375,35 4.334,51 0,00 109,78 7.819,64 19.016,59 30/11/2023
532 516800 CHRISTIANE FERREIRA DO NASCIMENTO ANALISTA DO MP POUSO ALEGRE - COMARCA; POUSO ALEGRE-PJ-04PJ 12.343,61 2.468,72 0,00 0,00 0,00 0,00 0,00 2.105,00 16.917,33 2.150,92 2.596,93 0,00 256,38 5.004,23 11.913,10 30/11/2023
533 176000 CHRISTIANE JUNQUEIRA PULITI ANDRADE DE BARROS ASSESSOR ADM. ESPECIAL BELO HORIZONTE - COMARCA; PROCURADORIA-GERAL ADJUNTA INSTITUCIONAL 0,00 25.212,05 28.013,39 0,00 0,00 8.297,02 3.750,74 2.105,00 67.378,20 8.297,02 9.452,28 15.635,48 0,00 33.384,78 33.993,42 30/11/2023
534 319200 CHRISTIANE MARIA DE ASSIS RUSSO OFICIAL DO MP BELO HORIZONTE - COMARCA; CAO-ORDEM ECONOMICA E TRIBUTARIA-SECRETARIA 15.949,86 4.784,96 0,00 0,00 0,00 0,00 0,00 3.055,00 23.789,82 3.098,52 3.885,03 0,00 437,92 7.421,47 16.368,35 30/11/2023
535 510300 CHRISTIANE MARY DE CARVALHO FERREIRA ANALISTA DO MP BELO HORIZONTE - COMARCA; DIRETORIA DE SISTEMAS DE INFORMACAO 12.343,61 2.468,72 0,00 0,00 0,00 0,00 0,00 2.105,00 16.917,33 2.150,92 2.544,79 0,00 256,38 4.952,09 11.965,24 30/11/2023
536 424900 CHRISTIANE PEREIRA TURNER DE ARAUJO OFICIAL DO MP BELO HORIZONTE - COMARCA; CAO-PATRIMONIO PUBLICO 12.343,61 2.468,72 0,00 0,00 0,00 0,00 1.233,38 3.055,00 19.100,71 2.150,92 2.473,98 0,00 293,44 4.918,34 14.182,37 30/11/2023
537 731000 CHRISTIANE TEIXEIRA ANTUNA ASSESSOR ADMINISTRATIVO III BELO HORIZONTE - COMARCA; DIR CONTEUDO JORNALISTICO 0,00 0,00 10.858,90 0,00 0,00 0,00 0,00 2.105,00 12.963,90 876,95 2.272,58 0,00 0,00 3.149,53 9.814,37 30/11/2023
538 513700 CHRISTIANE VIEIRA SOARES PEDERSOLI COORDENADOR II BELO HORIZONTE - COMARCA; ASSESSORIA JURIDICA DO PROCON-MG 20.533,67 4.106,73 0,00 0,00 0,00 0,00 1.401,71 3.055,00 29.097,11 2.150,92 5.299,65 0,00 256,38 7.706,95 21.390,16 30/11/2023
539 412300 CHRYSTIAN MACHADO RIBEIRO ANALISTA DO MP VARGINHA - COMARCA; VARGINHA-PJ-04PJ 18.720,84 5.616,25 0,00 0,00 0,00 0,00 3.866,48 2.105,00 30.308,57 3.974,42 5.229,60 0,00 0,00 9.204,02 21.104,55 30/11/2023
540 513800 CHRYSTIANE DO NASCIMENTO DE MAGALHAES OFICIAL DO MP UBERLÂNDIA - COMARCA; UBERLANDIA-PJ-10PJ 10.516,49 2.103,30 0,00 0,00 0,00 0,00 640,19 2.105,00 15.364,98 1.800,11 1.986,18 0,00 201,47 3.987,76 11.377,22 30/11/2023
541 497900 CIBELE DE FREITAS SANCHES DIAS ANALISTA DO MP BELO HORIZONTE - COMARCA; BH-12PJ JUIZO CRIMINAL-GAB 103PJ 12.343,61 2.468,72 0,00 0,00 0,00 0,00 0,00 2.105,00 16.917,33 982,16 2.715,54 0,00 0,00 3.697,70 13.219,63 30/11/2023
542 500900 CIBELLE SILVA PRADO ALVARENGA ANALISTA DO MP ITANHANDU - COMARCA; ITANHANDU-PJ-UNPJ 12.343,61 2.468,72 0,00 0,00 0,00 0,00 1.357,79 3.055,00 19.225,12 2.150,92 2.596,93 0,00 256,38 5.004,23 14.220,89 30/11/2023
543 296400 CINTIA APARECIDA MOREIRA NAVES E RODRIGUES ANALISTA DO MP CAMPO BELO - COMARCA; CAMPO BELO-PJ-01PJ 23.070,31 6.921,09 0,00 0,00 0,00 0,00 2.749,20 2.105,00 34.845,60 4.579,57 5.938,05 0,00 600,88 11.118,50 23.727,10 30/11/2023
544 407900 CINTIA NETO COMELLI ANALISTA DO MP BELO HORIZONTE - COMARCA; CENTRAL DE APOIO TECNICO-SETOR CONTABIL 18.720,84 5.616,25 0,00 0,00 0,00 0,00 1.872,08 2.105,00 28.314,17 3.974,42 5.177,46 0,00 0,00 9.151,88 19.162,29 30/11/2023
545 304700 CINTIA QUEIROZ OFICIAL DO MP BELO HORIZONTE - COMARCA; OUVIDORIA DO MPMG 12.343,61 3.703,08 0,00 0,00 0,00 0,00 1.470,95 2.105,00 19.622,64 2.348,42 2.882,06 0,00 277,74 5.508,22 14.114,42 30/11/2023
546 286100 CIRO CANGUSSU CORDEIRO OFICIAL DO MP IPATINGA - COMARCA; IPATINGA-PJ-09PJ 10.858,90 3.257,67 0,00 0,00 0,00 0,00 0,00 3.055,00 17.171,57 2.039,60 2.285,22 0,00 169,88 4.494,70 12.676,87 30/11/2023
547 689900 CISSA NOGUEIRA COLEN ASSESSOR PROCURADOR JUSTICA BELO HORIZONTE - COMARCA; GABINETE DE PROCURADOR DE JUSTIÇA - SALA 608 0,00 0,00 8.810,89 0,00 0,00 0,00 0,00 2.105,00 10.915,89 876,95 1.709,37 0,00 0,00 2.586,32 8.329,57 30/11/2023
548 681700 CLARA FERREIRA ALKIMIM ASSESSOR PROMOTOR JUSTICA PEDRA AZUL - COMARCA; PEDRA AZUL-PJ-02PJ 0,00 0,00 8.810,89 0,00 0,00 0,00 0,00 2.105,00 10.915,89 876,95 1.709,37 0,00 0,00 2.586,32 8.329,57 30/11/2023
549 715500 CLARA ISABELLE SOUSA FARIA ASSESSOR PROCURADOR JUSTICA BELO HORIZONTE - COMARCA; GABINETE DE PROCURADOR DE JUSTIÇA - SALA 712 0,00 0,00 8.810,89 0,00 0,00 0,00 0,00 2.105,00 10.915,89 876,95 1.709,37 0,00 0,00 2.586,32 8.329,57 30/11/2023
550 756100 CLARA LIMA LIPOVETSKY ASSESSOR PROMOTOR JUSTICA BELO HORIZONTE - COMARCA; CAO-FUNDACOES-ASSESSORIA JURIDICA 0,00 0,00 8.810,89 0,00 0,00 0,00 5.873,93 3.732,73 18.417,55 876,95 3.605,96 0,00 0,00 4.482,91 13.934,64 30/11/2023
551 723100 CLARA PRADO CAMPOS ASSESSOR PROCURADOR JUSTICA BELO HORIZONTE - COMARCA; GABINETE DE PROCURADOR DE JUSTIÇA - SALA 1006 0,00 0,00 8.810,89 0,00 0,00 0,00 0,00 2.105,00 10.915,89 876,95 1.709,37 0,00 0,00 2.586,32 8.329,57 30/11/2023
552 695500 CLARA RODRIGUES BLACH ASSESSOR PROCURADOR JUSTICA BELO HORIZONTE - COMARCA; GABINETE DE PROCURADOR DE JUSTIÇA - SALA 1003 0,00 0,00 8.810,89 0,00 0,00 0,00 0,00 2.105,00 10.915,89 876,95 1.709,37 0,00 0,00 2.586,32 8.329,57 30/11/2023
553 412500 CLARICE GOMES MAROTTA ANALISTA DO MP BELO HORIZONTE - COMARCA; COORD ESTADUAL DE DEFESA DOS ANIMAIS 18.720,84 7.488,34 0,00 0,00 0,00 0,00 2.326,79 2.105,00 30.640,97 3.974,42 5.196,89 0,00 118,93 9.290,24 21.350,73 30/11/2023
554 605300 CLARISSA AZEVEDO ROCHA OFICIAL DO MP BELO HORIZONTE - COMARCA; BH-16PJ HABITACAO URBANISMO-GAB 117PJ 7.506,70 750,67 0,00 0,00 0,00 0,00 0,00 2.105,00 10.362,37 1.102,13 1.082,73 0,00 142,92 2.327,78 8.034,59 30/11/2023
555 308100 CLARISSA DUARTE BELLONI DIRETOR-GERAL BELO HORIZONTE - COMARCA; DIRETORIA-GERAL 34.667,33 10.400,20 0,00 0,00 0,00 0,00 3.250,70 3.530,00 51.848,23 4.579,57 8.088,62 7.477,57 441,43 20.587,19 31.261,04 30/11/2023
556 730500 CLARISSA FERNANDES ABREU ASSESSOR PROMOTOR JUSTICA SANTOS DUMONT - COMARCA; SANTOS DUMONT-PJ-02PJ 0,00 0,00 8.810,89 0,00 0,00 0,00 0,00 2.105,00 10.915,89 876,95 1.709,37 0,00 0,00 2.586,32 8.329,57 30/11/2023
557 743200 CLARISSA GODINHO PRATES ASSESSOR ADMINISTRATIVO I GOVERNADOR VALADARES - COMARCA; COOR REG APOIO COM INC MOB VALE DO RIO DOCE 0,00 0,00 4.872,71 0,00 0,00 0,00 0,00 2.105,00 6.977,71 718,08 670,06 0,00 0,00 1.388,14 5.589,57 30/11/2023
558 497100 CLARISSA ROCHA GUIDI ANALISTA DO MP BELO HORIZONTE - COMARCA; BH-02PJ FAMILIA-SECRETARIA 15.447,01 3.089,40 0,00 0,00 0,00 0,00 987,36 4.005,00 23.528,77 2.746,77 3.405,05 0,00 0,00 6.151,82 17.376,95 30/11/2023
559 641800 CLARISSE TAVARES GONCALVES OFICIAL DO MP BELO HORIZONTE - COMARCA; BH-07PJ 01 TRIBUNAL JURI-SECRETARIA 7.506,70 750,67 0,00 0,00 0,00 0,00 0,00 2.105,00 10.362,37 423,43 1.269,37 0,00 0,00 1.692,80 8.669,57 30/11/2023
560 463700 CLAUDIA ADRIANA FERRAO DIAS ANALISTA DO MP SETE LAGOAS - COMARCA; SETE LAGOAS-PJ-06PJ 12.343,61 2.468,72 0,00 0,00 0,00 0,00 0,00 2.105,00 16.917,33 2.150,92 2.596,93 0,00 256,38 5.004,23 11.913,10 30/11/2023
561 415400 CLAUDIA ALMEIDA DE VASCONCELLOS BARROS OFICIAL DO MP BELO HORIZONTE - COMARCA; DIVISAO DE SERVICOS 11.212,54 3.363,76 4.020,58 0,00 0,00 0,00 1.121,25 2.105,00 21.823,13 2.292,56 3.907,07 0,00 225,54 6.425,17 15.397,96 30/11/2023
562 207000 CLAUDIA APARECIDA VILELA MACHADO ANALISTA DO MP BELO HORIZONTE - COMARCA; CENTRAL DE APOIO TECNICO-SETOR CONTABIL 23.070,31 11.535,16 0,00 35,94 0,00 12.107,75 0,00 2.105,00 48.854,16 5.317,82 10.245,91 0,00 121,46 15.685,19 33.168,97 30/11/2023
563 365700 CLAUDIA BREGUEZ CUNHA ANALISTA DO MP VARGINHA - COMARCA; VARGINHA-PJ-07PJ 21.346,53 6.403,96 0,00 0,00 0,00 0,00 0,00 3.055,00 30.805,49 4.221,03 5.585,64 0,00 0,00 9.806,67 20.998,82 30/11/2023
564 430500 CLAUDIA CECILIA SANTANA VENCESLAU OFICIAL DO MP BELO HORIZONTE - COMARCA; LAB TECNOLOGIA CONTRA LAVAGEM DINHEIRO 12.343,61 2.468,72 0,00 0,00 0,00 0,00 740,03 2.105,00 17.657,36 2.150,92 2.526,12 0,00 293,44 4.970,48 12.686,88 30/11/2023
565 213601 CLAUDIA GONCALVES CALIXTO ASSESSOR PROCURADOR JUSTICA BELO HORIZONTE - COMARCA; PROC. JUSTICA DIR. DIFUSOS E COLETIVOS-SEC 0,00 0,00 8.810,89 0,00 0,00 0,00 355,38 2.105,00 11.271,27 876,95 1.709,37 0,00 0,00 2.586,32 8.684,95 30/11/2023
566 480400 CLAUDIA GOULART DE SOUZA OFICIAL DO MP PASSOS - COMARCA; PASSOS-PJ-06PJ 10.858,90 3.257,67 0,00 0,00 0,00 0,00 1.253,22 2.105,00 17.474,79 2.039,60 2.436,21 0,00 0,00 4.475,81 12.998,98 30/11/2023
567 519800 CLAUDIA HELENA CORREA DE ALMEIDA ANALISTA DO MP BELO HORIZONTE - COMARCA; BH-12PJ JUIZO CRIMINAL-GAB 096PJ 12.343,61 2.468,72 0,00 0,00 0,00 0,00 1.504,68 2.105,00 18.422,01 2.150,92 2.596,93 0,00 256,38 5.004,23 13.417,78 30/11/2023
568 422100 CLAUDIA IACOMINI CABRAL ANALISTA DO MP BELO HORIZONTE - COMARCA; CENT DE APOIO TEC-SETOR DEF,IDOSO E INFANC 18.720,84 13.104,58 0,00 0,00 0,00 0,00 0,00 2.105,00 33.930,42 4.873,02 6.219,97 0,00 1.116,30 12.209,29 21.721,13 30/11/2023
569 258200 CLAUDIA LAGE MICHALAROS ANALISTA DO MP BELO HORIZONTE - COMARCA; CENTRAL DE APOIO TECN-SETOR DE MEIO AMBIENTE 23.070,31 18.456,25 0,00 0,00 0,00 5.950,68 0,00 2.105,00 49.582,24 5.795,34 9.452,28 3.936,60 155,34 19.339,56 30.242,68 30/11/2023
570 433600 CLAUDIA LUIZA SANTIAGO FELICIO ANALISTA DO MP BELO HORIZONTE - COMARCA; CENT DE APOIO TEC-SETOR DEF,IDOSO E INFANC 18.720,84 3.744,17 0,00 0,00 0,00 0,00 1.994,40 1.206,40 25.665,81 3.375,35 4.230,23 0,00 192,15 7.797,73 17.868,08 30/11/2023
571 317000 CLAUDIA MACHADO ALVES OFICIAL DO MP BELO HORIZONTE - COMARCA; DIR GOVERNANCA TECNOLOGIA INFORMACAO 12.343,61 3.703,08 4.020,58 0,00 0,00 0,00 1.839,50 2.105,00 24.011,77 2.348,42 3.965,46 0,00 349,93 6.663,81 17.347,96 30/11/2023
572 155300 CLAUDIA MACIEL MIRANDA OFICIAL DO MP CONGONHAS - COMARCA; CONGONHAS-PJ-02PJ 23.070,31 16.149,22 0,00 0,00 400,08 0,00 16.639,64 8.119,39 64.378,64 6.832,69 9.333,55 10.683,97 880,99 27.731,20 36.647,44 30/11/2023
573 746300 CLAUDIA MAGDA SANTANA ANALISTA DO MP BELO HORIZONTE - COMARCA; DIRETORIA DE ADMINISTRACAO FINANCEIRA 7.040,78 0,00 0,00 0,00 0,00 0,00 3.771,36 2.105,00 12.917,14 909,81 1.838,18 0,00 0,00 2.747,99 10.169,15 30/11/2023
574 242200 CLAUDIA MICHELLE DIAS MUNIZ BALEEIRO OFICIAL DO MP MONTE AZUL - COMARCA; MONTE AZUL-PJ-SECRETARIA 18.130,77 9.065,39 0,00 0,00 805,20 0,00 13.131,32 4.110,87 45.243,55 5.580,01 7.716,97 0,00 0,00 13.296,98 31.946,57 30/11/2023
575 755900 CLAUDIA NATIVIDADE ASSESSOR ADMINISTRATIVO II BELO HORIZONTE - COMARCA; CENTRO ESTADUAL DE APOIO AS VITIMAS 0,00 0,00 7.506,70 0,00 0,00 0,00 0,00 2.105,00 9.611,70 876,95 1.350,72 0,00 0,00 2.227,67 7.384,03 30/11/2023
576 623000 CLAUDIA PATRICIA SILVA RODRIGUES RAPOSEIRAS OFICIAL DO MP BELO HORIZONTE - COMARCA; DIVISÃO DE EDUCAÇÃO PARA O CONSUMO 7.506,70 750,67 0,00 0,00 0,00 0,00 0,00 3.055,00 11.312,37 1.102,13 1.030,59 0,00 142,92 2.275,64 9.036,73 30/11/2023
577 418400 CLAUDIA REGINA MARTINS BONIFACIO OFICIAL DO MP ITUIUTABA - COMARCA; ITUIUTABA-PJ-06PJ 12.343,61 2.468,72 0,00 0,00 0,00 0,00 1.366,81 2.105,00 18.284,14 2.150,92 2.492,65 0,00 232,89 4.876,46 13.407,68 30/11/2023
578 498300 CLAUDIA SOUTO FARIAS BRAUN OFICIAL DO MP TEÓFILO OTONI - COMARCA; TEOFILO OTONI-PJ-SECRETARIA 7.506,70 1.501,34 0,00 0,00 0,00 0,00 825,74 2.105,00 11.938,78 1.222,23 1.151,86 0,00 155,91 2.530,00 9.408,78 30/11/2023
579 206500 CLAUDIA VALERIA FONSECA ANDRADE ANALISTA DO MP BELO HORIZONTE - COMARCA; BH-23PJ INF-FISC MED SOC FEC 23.070,31 16.149,22 0,00 0,00 0,00 7.422,77 3.262,69 2.105,00 52.009,99 5.795,34 9.452,28 1.629,57 1.627,43 18.504,62 33.505,37 30/11/2023
580 277500 CLAUDIO ANTONIO BORGES BRUNSWICK ALVARES OFICIAL DO MP BELO HORIZONTE - COMARCA; ASSESSORIA JURIDICA DO PROCON-MG 12.343,61 3.703,08 0,00 0,00 0,00 0,00 0,00 2.105,00 18.151,69 2.348,42 2.882,06 0,00 277,74 5.508,22 12.643,47 30/11/2023
581 444800 CLAUDIO ARESIO DO CARMO ANALISTA DO MP SETE LAGOAS - COMARCA; SETE LAGOAS-PJ-01PJ 15.447,01 6.178,80 0,00 0,00 0,00 0,00 1.919,86 2.105,00 25.650,67 3.241,08 4.034,25 0,00 307,11 7.582,44 18.068,23 30/11/2023
582 545100 CLAUDIO HENRIQUE MACEDO DE SOUZA FRANSOZO ANALISTA DO MP OURO PRETO - COMARCA; OURO PRETO-PJ-03PJ 12.343,61 2.468,72 0,00 0,00 0,00 0,00 0,00 3.055,00 17.867,33 982,16 2.767,68 0,00 0,00 3.749,84 14.117,49 30/11/2023
583 353500 CLAUDIO HENRIQUE PEDRO DA ROCHA OFICIAL DO MP BELO HORIZONTE - COMARCA; DIVISAO DE SERVICOS 12.343,61 3.703,08 0,00 0,00 0,00 0,00 1.630,08 2.105,00 19.781,77 2.348,42 2.777,79 0,00 277,74 5.403,95 14.377,82 30/11/2023
584 265800 CLAUDIO KUPIDLOWSKY FERNANDES OFICIAL DO MP BELO HORIZONTE - COMARCA; SECRETARIA DO PROCON-MG 12.343,61 4.937,44 0,00 0,00 0,00 0,00 1.759,89 2.105,00 21.145,94 2.545,92 2.212,85 0,00 0,00 4.758,77 16.387,17 30/11/2023
585 193600 CLAUDIO LEITE FONTES OFICIAL DO MP ITUIUTABA - COMARCA; ITUIUTABA-PJ-02PJ 12.343,61 6.171,81 0,00 0,00 0,00 0,00 1.981,76 3.055,00 23.552,18 2.743,42 3.089,34 0,00 0,00 5.832,76 17.719,42 30/11/2023
586 329400 CLAUDIO MARCIO BERNARDES OFICIAL DO MP ITAÚNA - COMARCA; ITAUNA-PJ-03PJ 12.343,61 9.874,89 0,00 0,00 0,00 0,00 0,00 3.055,00 25.273,50 3.335,91 4.255,62 0,00 370,28 7.961,81 17.311,69 30/11/2023
587 270200 CLAUDIO RABELO ALVES OFICIAL DO MP FORMIGA - COMARCA; FORMIGA-PJ-03PJ 15.447,01 6.178,80 0,00 0,00 0,00 0,00 1.919,86 2.105,00 25.650,67 3.241,08 4.014,43 0,00 0,00 7.255,51 18.395,16 30/11/2023
588 264700 CLAUDIO ROBERTO KFURI DE ARAUJO ANALISTA DO MP BELO HORIZONTE - COMARCA; CENTRAL DE APOIO TECNICO-SETOR DE INFORMATICA 23.070,31 9.228,12 0,00 0,00 0,00 0,00 0,00 2.105,00 34.403,43 4.948,70 6.324,13 0,00 1.274,76 12.547,59 21.855,84 30/11/2023
589 543300 CLAUDIO SILVA DE CARVALHO ANALISTA DO MP CAMPO BELO - COMARCA; CAMPO BELO-PJ-03PJ 11.954,43 1.195,44 0,00 0,00 0,00 0,00 1.167,41 2.105,00 16.422,28 1.884,93 2.160,76 0,00 220,43 4.266,12 12.156,16 30/11/2023
590 160700 CLAUDIO VICENTE HESS ASSESSOR DE GABINETE I BELO HORIZONTE - COMARCA; CENTRAL DE APOIO TECNICO-SETOR DE INFORMATICA 0,00 9.065,39 18.130,77 0,00 0,00 0,00 2.493,00 2.105,00 31.794,16 876,95 6.661,05 0,00 0,00 7.538,00 24.256,16 30/11/2023
591 312900 CLAUDIO VIEIRA FIRPE OFICIAL DO MP BELO HORIZONTE - COMARCA; DIR RELACOES INSTITUCIONAIS 12.343,61 3.703,08 0,00 0,00 0,00 0,00 1.470,95 2.105,00 19.622,64 2.348,42 2.882,06 0,00 277,74 5.508,22 14.114,42 30/11/2023
592 634100 CLEA CRISTINA GUERRA DE FREITAS COSTA OFICIAL DO MP BELO HORIZONTE - COMARCA; BH-18PJ VIOLENCIA DOMESTICA-SECRETARIA 7.506,70 750,67 0,00 0,00 0,00 0,00 0,00 2.105,00 10.362,37 1.102,13 1.030,59 0,00 138,42 2.271,14 8.091,23 30/11/2023
593 459200 CLEIA ZILLE PEREIRA ANALISTA DO MP BELO HORIZONTE - COMARCA; BH-07PJ 01 TRIBUNAL DO JURI-GAB 059PJ 12.343,61 2.468,72 0,00 0,00 0,00 0,00 1.357,79 3.530,00 19.700,12 2.150,92 2.596,93 0,00 256,38 5.004,23 14.695,89 30/11/2023
594 481800 CLEIDE CARDOSO DA SILVA ANALISTA DO MP MANHUAÇU - COMARCA; MANHUACU-PJ-04PJ 12.343,61 2.468,72 0,00 0,00 0,00 0,00 1.357,81 2.105,00 18.275,14 2.150,92 2.492,65 0,00 256,38 4.899,95 13.375,19 30/11/2023
595 347600 CLEIDIMAR DE OLIVEIRA SILVA OFICIAL DO MP PATOS DE MINAS - COMARCA; PATOS DE MINAS-PJ-03PJ 12.343,61 4.937,44 0,00 0,00 0,00 0,00 1.584,10 2.105,00 20.970,15 2.545,92 2.988,53 0,00 80,95 5.615,40 15.354,75 30/11/2023
596 396500 CLEIDISON BATISTA DE ANDRADE OFICIAL DO MP RESPLENDOR - COMARCA; RESPLENDOR-PJ-UNPJ 11.577,56 3.473,27 0,00 0,00 0,00 0,00 1.233,39 2.105,00 18.389,22 2.189,08 2.529,07 0,00 293,44 5.011,59 13.377,63 30/11/2023
597 535100 CLEISON ALVES DA SILVA ANALISTA DO MP BOA ESPERANÇA - COMARCA; BOA ESPERANCA-PJ-01PJ 12.343,61 3.703,08 0,00 0,00 0,00 0,00 1.244,65 2.105,00 19.396,34 2.348,42 2.777,79 0,00 235,01 5.361,22 14.035,12 30/11/2023
598 298100 CLEONICE AUGUSTA BARROS DE OLIVEIRA ANALISTA DO MP JUIZ DE FORA - COMARCA; JUIZ DE FORA-PJ-08PJ 23.070,31 6.921,09 0,00 0,00 0,00 0,00 0,00 2.105,00 32.096,40 4.579,57 6.009,37 0,00 815,66 11.404,60 20.691,80 30/11/2023
599 114301 CLERES PEREIRA DA SILVA JUNIOR ASSESSOR ADMINISTRATIVO I BELO HORIZONTE - COMARCA; GAECO - SECRETARIA 0,00 2.436,35 4.872,71 0,00 0,00 0,00 0,00 2.105,00 9.414,06 876,95 836,98 0,00 0,00 1.713,93 7.700,13 30/11/2023
600 264100 CLETO HENRIQUE ANDRADE SILVA ANALISTA DO MP BELO HORIZONTE - COMARCA; DIRETORIA DE SISTEMAS DE INFORMACAO 23.070,31 9.228,12 0,00 0,00 0,00 0,00 473,71 7.272,75 40.044,89 4.948,70 6.303,56 0,00 1.327,48 12.579,74 27.465,15 30/11/2023
601 334400 CLEUBA DE OLIVEIRA BARCELOS GONCALVES OFICIAL DO MP DIVINÓPOLIS - COMARCA; COORD REG SAUDE MACRORREGIAO SANITARIA OESTE 12.343,61 3.703,08 0,00 0,00 0,00 0,00 1.470,95 2.105,00 19.622,64 2.348,42 2.829,93 0,00 277,74 5.456,09 14.166,55 30/11/2023
602 347500 CLEUSA CORDEIRO DA MATA PIMENTA OFICIAL DO MP CAMPO BELO - COMARCA; CAMPO BELO-PJ-01PJ 12.343,61 11.109,25 0,00 384,57 0,00 3.533,41 2.341,32 2.105,00 31.817,16 3.533,41 5.512,44 0,00 384,57 9.430,42 22.386,74 30/11/2023
603 510200 CLEZIO SALES SILVA OFICIAL DO MP BRASÓPOLIS - COMARCA; BRASOPOLIS-PJ-UNPJ 7.506,70 1.501,34 0,00 0,00 0,00 0,00 825,73 3.525,73 13.359,50 1.222,23 1.256,14 0,00 155,91 2.634,28 10.725,22 30/11/2023
604 323000 CLOTILDE DE PADUA VIEIRA OFICIAL DO MP BELO HORIZONTE - COMARCA; BH-19PJ SAUDE-SECRETARIA 129PJ 12.343,61 3.703,08 0,00 0,00 0,00 0,00 0,00 2.105,00 18.151,69 2.348,42 2.817,37 0,00 235,26 5.401,05 12.750,64 30/11/2023
605 285200 CLOVIS ANDRE LUDTKE OFICIAL DO MP BELO HORIZONTE - COMARCA; DIVISAO DE MANUTENCAO PREDIAL 13.588,97 5.435,59 0,00 0,00 0,00 0,00 2.927,21 2.105,00 24.056,77 3.042,30 3.860,12 0,00 355,03 7.257,45 16.799,32 30/11/2023
606 381100 CONCEICAO APARECIDA TEIXEIRA ARANTES ANALISTA DO MP BELO HORIZONTE - COMARCA; BH-23PJ INFRACIONAL-ASS JURIDICA 19.751,60 5.925,48 0,00 0,00 0,00 0,00 3.961,61 3.055,00 32.693,69 4.523,14 5.969,68 0,00 0,00 10.492,82 22.200,87 30/11/2023
607 249900 CONSTANTINO CEZAR GOMES MOTA OFICIAL DO MP MONTES CLAROS - COMARCA; COORD REG BACIA RIOS VERDE GRANDE E PARDO 12.343,61 4.937,44 0,00 0,00 0,00 0,00 1.584,09 4.005,00 22.870,14 2.545,92 3.062,93 0,00 277,75 5.886,60 16.983,54 30/11/2023
608 481000 CRISHMA ANALIA LOMBELLO ANALISTA DO MP JUIZ DE FORA - COMARCA; JUIZ DE FORA-PJ-13PJ 12.343,61 2.468,72 0,00 0,00 0,00 0,00 0,00 2.105,00 16.917,33 2.150,92 2.544,79 0,00 256,38 4.952,09 11.965,24 30/11/2023
609 523900 CRISTHYANE BAZOLI COSTA GUEDES COUTO OFICIAL DO MP BELO HORIZONTE - COMARCA; BH-04PJ JUIZO REG PÚBLICOS-SECRETARIA 10.516,49 2.103,30 0,00 0,00 0,00 0,00 1.066,97 2.105,00 15.791,76 1.800,11 2.074,30 0,00 253,82 4.128,23 11.663,53 30/11/2023
610 187000 CRISTIAN DAYVSON EVANGELISTA OFICIAL DO MP JUIZ DE FORA - COMARCA; JUIZ DE FORA-PJ-13PJ 21.346,53 8.538,61 0,00 30,65 0,00 0,00 6.575,22 2.105,00 38.596,01 4.562,57 6.402,14 0,00 406,08 11.370,79 27.225,22 30/11/2023
611 682100 CRISTIAN TRISTAO DE ANDRADE ASSESSOR PROMOTOR JUSTICA TRÊS CORACOES - COMARCA; TRES CORACOES-PJ-04PJ 0,00 0,00 8.810,89 0,00 0,00 0,00 358,01 2.105,00 11.273,90 876,95 1.709,37 0,00 0,00 2.586,32 8.687,58 30/11/2023
612 319800 CRISTIANA GONCALVES DOS SANTOS GUSMAO OFICIAL DO MP SETE LAGOAS - COMARCA; SETE LAGOAS-PJ-04PJ 12.343,61 3.703,08 0,00 0,00 0,00 0,00 0,00 2.105,00 18.151,69 2.348,42 2.882,06 0,00 277,74 5.508,22 12.643,47 30/11/2023
613 520600 CRISTIANA JANAINA BARBOZA JUVENCIO DOS SANTOS ANALISTA DO MP BELO HORIZONTE - COMARCA; BH-02PJ FAMILIA-SECRETARIA 12.343,61 2.468,72 0,00 0,00 0,00 0,00 814,67 2.105,00 17.732,00 2.150,92 2.596,93 0,00 256,38 5.004,23 12.727,77 30/11/2023
614 195600 CRISTIANA SOARES HALABI OFICIAL DO MP UBERABA - COMARCA; UBERABA-PJ-01PJ 23.070,31 9.228,12 0,00 0,00 0,00 0,00 2.635,16 2.105,00 37.038,59 4.948,70 6.516,87 0,00 434,00 11.899,57 25.139,02 30/11/2023
615 218900 CRISTIANE ALVES BELLES OFICIAL DO MP JUIZ DE FORA - COMARCA; JUIZ DE FORA-PJ-10PJ 7.506,70 3.002,68 0,00 0,00 0,00 0,00 963,35 3.530,00 15.002,73 1.462,45 1.498,67 0,00 181,90 3.143,02 11.859,71 30/11/2023
616 263600 CRISTIANE CARVALHO COUTINHO OFICIAL DO MP BELO HORIZONTE - COMARCA; BH-23PJ INFRACIONAL-SEC EXP 14.960,00 5.984,00 0,00 0,00 0,00 0,00 0,00 2.105,00 23.049,00 3.131,99 3.936,70 0,00 89,11 7.157,80 15.891,20 30/11/2023
617 541000 CRISTIANE COELHO ALVES OFICIAL DO MP ITABIRA - COMARCA; ITABIRA-PJ-03PJ 7.506,70 1.501,34 0,00 0,00 0,00 0,00 0,00 2.105,00 11.113,04 1.222,23 1.204,00 0,00 142,92 2.569,15 8.543,89 30/11/2023
618 441700 CRISTIANE CORRADO DE ANDRADE ANALISTA DO MP BELO HORIZONTE - COMARCA; DIRETORIA DE SISTEMAS DE INFORMACAO 18.720,84 3.744,17 4.020,58 0,00 0,00 0,00 2.362,93 2.105,00 30.953,52 3.375,35 5.440,17 0,00 109,78 8.925,30 22.028,22 30/11/2023
619 375100 CRISTIANE DAS DORES ERCIO DE LIMA OFICIAL DO MP GOVERNADOR VALADARES - COMARCA; COOR REG APOIO COM INC MOB VALE DO RIO DOCE 11.954,43 3.586,33 0,00 0,00 0,00 0,00 1.422,79 2.105,00 19.068,55 2.267,47 2.765,19 0,00 0,00 5.032,66 14.035,89 30/11/2023
620 178800 CRISTIANE DE LIMA HOSKEN OFICIAL DO MP BELO HORIZONTE - COMARCA; BH-14PJ DEFESA CONSUMIDOR-GAB 110PJ 22.191,68 8.876,67 0,00 0,00 0,00 0,00 2.739,45 2.105,00 35.912,80 4.751,88 6.140,64 0,00 579,23 11.471,75 24.441,05 30/11/2023
621 494000 CRISTIANE DE MELO MARQUEZ OLIVEIRA ANALISTA DO MP UBERLÂNDIA - COMARCA; UBERLANDIA-PJ-06PJ 15.949,86 4.146,96 0,00 0,00 0,00 0,00 0,00 3.055,00 23.151,82 2.996,44 3.791,93 0,00 404,24 7.192,61 15.959,21 30/11/2023
622 266100 CRISTIANE DE OLIVEIRA CASTRO OFICIAL DO MP BELO HORIZONTE - COMARCA; BH-14PJ DEFESA CONSUMIDOR-SECRETARIA 18.130,77 7.252,31 0,00 30,66 0,00 0,00 2.931,29 2.105,00 30.450,03 3.842,24 5.322,58 0,00 360,45 9.525,27 20.924,76 30/11/2023
623 329500 CRISTIANE DOS REIS SILVA OFICIAL DO MP ARAXÁ - COMARCA; ARAXA-PJ-04PJ 12.343,61 3.703,08 0,00 0,00 0,00 0,00 706,06 2.105,00 18.857,75 2.348,42 2.777,79 0,00 277,74 5.403,95 13.453,80 30/11/2023
624 301600 CRISTIANE GODINHO PIRES ANALISTA DO MP BETIM - COMARCA; BETIM-PJ-06PJ 23.070,31 6.921,09 0,00 0,00 0,00 0,00 2.749,21 2.105,00 34.845,61 4.579,57 6.009,37 0,00 545,73 11.134,67 23.710,94 30/11/2023
625 406100 CRISTIANE GONCALVES CHAVES ANALISTA DO MP BELO HORIZONTE - COMARCA; BH-06PJ JUIZO CIVEL-SECRETARIA 20.533,67 8.213,47 0,00 0,00 0,00 0,00 527,03 7.854,43 37.128,60 4.380,49 5.782,12 0,00 122,73 10.285,34 26.843,26 30/11/2023
626 487600 CRISTIANE LOPES DE OLIVEIRA OFICIAL DO MP DIVINÓPOLIS - COMARCA; DIVINOPOLIS-PJ-03PJ 9.097,81 1.819,56 0,00 0,00 0,00 0,00 969,21 2.105,00 13.991,58 1.527,73 1.697,19 0,00 183,01 3.407,93 10.583,65 30/11/2023
627 502500 CRISTIANE MACIEL DE OLIVEIRA GOMES ANALISTA DO MP JUIZ DE FORA - COMARCA; JUIZ DE FORA-PJ-02PJ 12.343,61 2.468,72 0,00 0,00 0,00 0,00 1.357,79 3.055,00 19.225,12 2.150,92 2.596,93 0,00 256,38 5.004,23 14.220,89 30/11/2023
628 285500 CRISTIANE MAGALHAES LOURENCO ANALISTA DO MP BELO HORIZONTE - COMARCA; CENTRAL DE APOIO TECNICO-SETOR CONTABIL 23.070,31 6.921,09 0,00 0,00 0,00 0,00 0,00 2.105,00 32.096,40 4.579,57 5.869,16 0,00 661,79 11.110,52 20.985,88 30/11/2023
629 536500 CRISTIANE MICHELE DE SOUZA ANALISTA DO MP BARÃO DE COCAIS - COMARCA; BARAO DE COCAIS-PJ-UNPJ 12.343,61 2.468,72 0,00 0,00 0,00 0,00 0,00 2.105,00 16.917,33 2.150,92 2.492,65 0,00 235,01 4.878,58 12.038,75 30/11/2023
630 346600 CRISTIANE NOGUEIRA ANDRADE ANALISTA DO MP BELO HORIZONTE - COMARCA; CENTRAL DE APOIO TECNICO-SETOR CONTABIL 22.191,68 6.657,50 0,00 0,00 0,00 0,00 0,00 2.105,00 30.954,18 4.396,82 5.744,03 0,00 346,96 10.487,81 20.466,37 30/11/2023
631 234000 CRISTIANE OLIVEIRA TOSTES OFICIAL DO MP JUIZ DE FORA - COMARCA; JUIZ DE FORA-PJ-08PJ 20.533,67 8.213,47 0,00 0,00 0,00 0,00 1.441,51 3.055,00 33.243,65 4.380,49 5.782,12 0,00 122,74 10.285,35 22.958,30 30/11/2023
632 445800 CRISTIANE ORZIL COSTA OFICIAL DO MP SANTA LUZIA - COMARCA; SANTA LUZIA-PJ-05PJ 10.015,59 2.003,12 0,00 0,00 0,00 0,00 1.137,17 3.055,00 16.210,88 1.703,94 1.936,45 0,00 238,10 3.878,49 12.332,39 30/11/2023
633 616100 CRISTIANE PAES RODRIGUES MARCICANO ANALISTA DO MP CATAGUASES - COMARCA; CATAGUASES-PJ-05PJ 11.577,56 1.157,76 0,00 0,00 0,00 0,00 0,00 3.055,00 15.790,32 1.818,60 2.117,14 0,00 200,23 4.135,97 11.654,35 30/11/2023
634 612300 CRISTIANE RIBEIRO DOS REIS ARCANJO OFICIAL DO MP BELO HORIZONTE - COMARCA; DIRETORIA DE PAGAMENTO DE PESSOAL-DPAG 7.506,70 750,67 0,00 0,00 0,00 0,00 0,00 0,00 8.257,37 1.717,06 809,35 0,00 142,92 2.669,33 5.588,04 30/11/2023
635 257700 CRISTIANE RODRIGUES PAES NUNES ANALISTA DO MP BELO HORIZONTE - COMARCA; BH-22PJ PES COM DEF E IDOSOS-ORIENTACAO PSIC 23.070,31 9.228,12 0,00 0,00 0,00 0,00 0,00 3.055,00 35.353,43 4.948,70 6.223,92 0,00 1.309,65 12.482,27 22.871,16 30/11/2023
636 510800 CRISTIANE SANTOS FERNANDES ORNELES ANALISTA DO MP BELO HORIZONTE - COMARCA; BH-03PJ EMPRESARIAL-SECRETARIA 12.343,61 2.468,72 0,00 0,00 0,00 0,00 1.357,79 2.105,00 18.275,12 2.150,92 2.596,93 0,00 256,38 5.004,23 13.270,89 30/11/2023
637 535701 CRISTIANE SANTOS MIRANDA ANALISTA DO MP CONTAGEM - COMARCA; CONTAGEM-PJ-03PJ 11.212,54 1.794,00 0,00 0,00 0,00 0,00 1.042,80 2.105,00 16.154,34 1.861,99 2.164,01 0,00 248,09 4.274,09 11.880,25 30/11/2023
638 536200 CRISTIANO DE OLIVEIRA ANALISTA DO MP CONCEIÇÃO DO MATO DENTRO - COMARCA; CONCEICAO DO MATO DENTRO-PJ-UNPJ 12.343,61 2.468,72 0,00 0,00 0,00 0,00 1.244,65 4.005,00 20.061,98 2.150,92 2.492,65 0,00 235,01 4.878,58 15.183,40 30/11/2023
639 477400 CRISTIANO SOARES ELEUTERIO ANALISTA DO MP BELO HORIZONTE - COMARCA; GABINETE DE PROCURADOR DE JUSTIÇA-SALA1109-T3 15.949,86 3.189,97 0,00 0,00 0,00 0,00 1.882,99 2.105,00 23.127,82 2.843,32 3.596,58 0,00 39,17 6.479,07 16.648,75 30/11/2023
640 449400 CRISTIANO TEIXEIRA RODRIGUES LANA ANALISTA DO MP BELO HORIZONTE - COMARCA; BH-18PJ VIOLENCIA DOMESTICA-SECRETARIA 14.960,00 3.889,60 0,00 0,00 0,00 0,00 1.494,78 2.105,00 22.449,38 2.796,88 3.529,54 0,00 282,24 6.608,66 15.840,72 30/11/2023
641 239400 CRISTINA DE FATIMA CRUZ E SILVA OFICIAL DO MP MONTE SANTO DE MINAS - COMARCA; MONTE SANTO DE MINAS-PJ-SECRETARIA 18.130,77 7.252,31 0,00 0,00 0,00 4.692,20 3.706,65 2.105,00 35.886,93 4.191,22 6.695,20 0,00 334,70 11.221,12 24.665,81 30/11/2023
642 544000 CRISTINA DE OLIVEIRA TERRA ANALISTA DO MP BELO HORIZONTE - COMARCA; BH-18PJ VIOLENCIA DOMESTICA-SECRETARIA 12.343,61 2.468,72 0,00 0,00 0,00 0,00 1.357,80 2.105,00 18.275,13 2.150,92 2.596,93 0,00 235,01 4.982,86 13.292,27 30/11/2023
643 356800 CRISTINA DE PINHO BARROSO OFICIAL DO MP SABINÓPOLIS - COMARCA; SABINOPOLIS-PJ-UNPJ 11.577,56 4.631,02 0,00 0,00 0,00 0,00 0,00 3.118,90 19.327,48 2.374,32 2.805,19 0,00 218,53 5.398,04 13.929,44 30/11/2023
644 649500 CRISTINA DO DIVINO ESPIRITO SANTOS OFICIAL DO MP DIVINÓPOLIS - COMARCA; DIVINOPOLIS-PJ-12PJ 7.270,07 727,01 0,00 0,00 0,00 0,00 665,89 2.105,00 10.767,97 1.060,48 1.022,61 0,00 122,68 2.205,77 8.562,20 30/11/2023
645 727100 CRISTINA DORNELLES CLARET ASSESSOR ADMINISTRATIVO III BELO HORIZONTE - COMARCA; CAO-MEIO AMBIENTE 0,00 0,00 10.858,90 0,00 0,00 0,00 0,00 2.105,00 12.963,90 876,95 2.272,58 0,00 0,00 3.149,53 9.814,37 30/11/2023
646 348201 CRISTINA MARIA DA SILVA ANALISTA DO MP BELO HORIZONTE - COMARCA; CENT ESTAD COOPERACAO TECNICO-JURIDICA 12.343,61 2.468,72 0,00 0,00 0,00 0,00 0,00 3.530,00 18.342,33 2.150,92 2.596,93 0,00 256,38 5.004,23 13.338,10 30/11/2023
647 434900 CRISTINA MELO DE MADUREIRA ANALISTA DO MP BELO HORIZONTE - COMARCA; BH-07PJ 01 TRIBUNAL JURI-SECRETARIA 18.720,84 3.744,17 0,00 0,00 0,00 0,00 0,00 2.105,00 24.570,01 3.375,35 4.334,50 0,00 109,79 7.819,64 16.750,37 30/11/2023
648 307700 CRISTINA TEIXEIRA MARQUES OFICIAL DO MP BELO HORIZONTE - COMARCA; CENTRAL DE APOIO TECNICO-SETOR CONTABIL 12.343,61 3.703,08 0,00 0,00 0,00 0,00 588,38 2.105,00 18.740,07 2.348,42 2.882,06 0,00 0,00 5.230,48 13.509,59 30/11/2023
649 743100 CRISTOVAO JOSE DOS SANTOS JUNIOR ANALISTA DO MP BELO HORIZONTE - COMARCA; CGMP-DIR ESTAGIO PROBATORIO E ORIENT 7.040,78 0,00 0,00 0,00 0,00 0,00 0,00 2.105,00 9.145,78 909,81 801,06 0,00 0,00 1.710,87 7.434,91 30/11/2023
650 265300 CRISTOVAO SANCHES DE MEDEIROS ANALISTA DO MP BELO HORIZONTE - COMARCA; DIRETORIA DE CONTABILIDADE 23.070,31 9.228,12 0,00 0,00 0,00 0,00 0,00 2.105,00 34.403,43 4.948,70 6.411,29 0,00 817,90 12.177,89 22.225,54 30/11/2023
651 349800 CROZEIR LUIZ DA SILVA OFICIAL DO MP UNAÍ - COMARCA; UNAI-PJ-SECRETARIA 12.343,61 3.703,08 0,00 0,00 0,00 0,00 0,00 3.055,00 19.101,69 2.348,42 2.807,66 0,00 349,94 5.506,02 13.595,67 30/11/2023
652 490500 CYNTHIA CRISTINA DE SOUZA OLIVEIRA VALENTE ANALISTA DO MP BELO HORIZONTE - COMARCA; BH-09PJ AUDITORIA MILITAR-GAB 074PJ 12.343,61 2.468,72 0,00 0,00 0,00 0,00 0,00 2.105,00 16.917,33 2.150,92 2.596,93 0,00 256,38 5.004,23 11.913,10 30/11/2023
653 389800 CYNTHIA GARIGLIO DOS SANTOS OFICIAL DO MP PERDIZES - COMARCA; PERDIZES-PJ-SECRETARIA 11.212,54 3.363,76 0,00 0,00 0,00 0,00 668,91 2.105,00 17.350,21 2.113,16 2.385,99 0,00 0,00 4.499,15 12.851,06 30/11/2023
654 335101 CYNTHIA GONTIJO D ASSUNCAO ANALISTA DO MP BELO HORIZONTE - COMARCA; FEPDC-SECRETARIA EXECUTIVA 12.343,61 3.703,08 4.020,58 0,00 0,00 0,00 0,00 3.055,00 23.122,27 2.348,42 3.987,72 0,00 256,38 6.592,52 16.529,75 30/11/2023
655 269700 CYNTIA ROCHA CAVALCANTI OFICIAL DO MP UBERLÂNDIA - COMARCA; UBERLANDIA-PJ-06PJ 18.130,77 7.252,31 0,00 0,00 0,00 0,00 2.092,45 3.055,00 30.530,53 3.842,24 4.946,73 0,00 334,71 9.123,68 21.406,85 30/11/2023
656 278000 DAIRTON LOPES MARTINS FILHO COORDENADOR II BELO HORIZONTE - COMARCA; DIRETORIA DE SISTEMAS DE INFORMACAO 20.533,67 8.213,47 0,00 0,00 0,00 0,00 2.446,92 2.105,00 33.299,06 2.545,92 6.320,38 0,00 277,75 9.144,05 24.155,01 30/11/2023
657 392700 DALIANA CHAVES IBRAIM MARINHO OFICIAL DO MP ITAÚNA - COMARCA; ITAUNA-PJ-04PJ 10.341,72 2.068,34 0,00 0,00 0,00 0,00 0,00 2.105,00 14.515,06 1.766,56 2.026,36 0,00 245,83 4.038,75 10.476,31 30/11/2023
658 558101 DALLEY TASSIA SILVA ANALISTA DO MP MORADA NOVA DE MINAS - COMARCA; MORADA NOVA DE MINAS-PJ-UNPJ 12.343,61 1.234,36 0,00 0,00 0,00 0,00 0,00 3.055,00 16.632,97 1.953,42 2.207,52 0,00 220,43 4.381,37 12.251,60 30/11/2023
659 476700 DALTON DAUD ANALISTA DO MP ARAGUARI - COMARCA; ARAGUARI-PJ-05PJ 12.343,61 2.468,72 0,00 0,00 0,00 0,00 0,00 2.105,00 16.917,33 2.150,92 2.492,65 0,00 256,38 4.899,95 12.017,38 30/11/2023
660 750500 DANIEL ALMEIDA RIBEIRO OFICIAL DO MP ESPERA FELIZ - COMARCA; ESPERA FELIZ-PJ-UNPJ 4.570,25 0,00 0,00 0,00 0,00 0,00 0,00 3.337,86 7.908,11 526,88 257,78 0,00 0,00 784,66 7.123,45 30/11/2023
661 426900 DANIEL ALVES DA SILVA OFICIAL DO MP BELO HORIZONTE - COMARCA; DIVISÃO DE FISCALIZAÇÃO DAS RELAÇÕES DE CONSU 7.506,70 1.501,34 0,00 0,00 0,00 0,00 2.597,39 2.105,00 13.710,43 1.222,23 1.639,07 0,00 155,91 3.017,21 10.693,22 30/11/2023
662 536302 DANIEL BATISTA MARIANO OFICIAL DO MP LAGOA SANTA - COMARCA; LAGOA SANTA-PJ-SECRETARIA 4.570,25 0,00 0,00 0,00 0,00 0,00 0,00 2.105,00 6.675,25 526,88 257,78 0,00 0,00 784,66 5.890,59 30/11/2023
663 714000 DANIEL FERREIRA CAMARA ASSESSOR PROMOTOR JUSTICA RIBEIRÃO DAS NEVES - COMARCA; RIBEIRAO DAS NEVES-PJ-12PJ 0,00 0,00 8.810,89 0,00 0,00 0,00 0,00 2.105,00 10.915,89 876,95 1.709,37 0,00 0,00 2.586,32 8.329,57 30/11/2023
664 411000 DANIEL FERREIRA DA SILVA ANALISTA DO MP GOVERNADOR VALADARES - COMARCA; GOVERNADOR VALADARES-PJ-15PJ 18.130,77 7.252,31 0,00 0,00 0,00 0,00 11.520,38 3.464,68 40.368,14 5.055,27 6.581,53 0,00 93,07 11.729,87 28.638,27 30/11/2023
665 703500 DANIEL FILIPE DE DEUS SOARES ASSESSOR PROMOTOR JUSTICA ITABIRITO - COMARCA; ITABIRITO-PJ-02PJ 0,00 0,00 8.810,89 0,00 0,00 0,00 895,04 2.105,00 11.810,93 876,95 1.709,37 0,00 0,00 2.586,32 9.224,61 30/11/2023
666 309000 DANIEL GOMES DOS SANTOS ANALISTA DO MP POÇOS DE CALDAS - COMARCA; POCOS DE CALDAS-PJ-05PJ 23.070,31 6.921,09 0,00 0,00 0,00 0,00 2.749,21 2.105,00 34.845,61 4.579,57 5.964,54 0,00 504,54 11.048,65 23.796,96 30/11/2023
667 554500 DANIEL GOMES PEREIRA OFICIAL DO MP NANUQUE - COMARCA; NANUQUE-PJ-02PJ 7.506,70 1.501,34 0,00 0,00 0,00 0,00 756,93 2.105,00 11.869,97 1.222,23 1.256,14 0,00 142,92 2.621,29 9.248,68 30/11/2023
668 453000 DANIEL GONCALVES PEREIRA ANALISTA DO MP UNAÍ - COMARCA; UNAI-PJ-02PJ 12.343,61 3.209,34 0,00 0,00 0,00 0,00 1.357,79 4.480,00 21.390,74 2.269,42 2.768,01 0,00 256,38 5.293,81 16.096,93 30/11/2023
669 495500 DANIEL GUIMARAES CABRAL OFICIAL DO MP BELO HORIZONTE - COMARCA; BH-17PJ PATRIMONIO PUBLICO-SECRETARIA 10.341,72 2.068,34 0,00 0,00 0,00 0,00 0,00 3.055,00 15.465,06 1.766,56 1.993,54 0,00 176,22 3.936,32 11.528,74 30/11/2023
670 442900 DANIEL GUIMARAES GONCALVES ANALISTA DO MP UBERLÂNDIA - COMARCA; UBERLANDIA-PJ-03PJ 18.130,77 4.714,00 0,00 0,00 0,00 0,00 1.931,49 2.105,00 26.881,26 982,16 4.810,93 0,00 0,00 5.793,09 21.088,17 30/11/2023
671 655900 DANIEL LUIZ DA SILVA ASSESSOR ADMINISTRATIVO II BELO HORIZONTE - COMARCA; DIV FISCAL ADM CONT TERCEIRIZACAO 0,00 0,00 7.506,70 0,00 0,00 0,00 762,56 2.105,00 10.374,26 876,95 1.350,72 0,00 0,00 2.227,67 8.146,59 30/11/2023
672 464600 DANIEL PIACENTINI STIVANIN ANALISTA DO MP ANDRADAS - COMARCA; ANDRADAS-PJ-02PJ 12.343,61 2.468,72 0,00 0,00 0,00 0,00 0,00 2.105,00 16.917,33 2.150,92 2.596,93 0,00 256,38 5.004,23 11.913,10 30/11/2023
673 417000 DANIEL QUEIROZ FERREIRA ANALISTA DO MP PASSOS - COMARCA; PASSOS-PJ-06PJ 18.130,77 5.439,23 0,00 0,00 0,00 0,00 4.111,38 3.055,00 30.736,38 982,16 5.456,61 0,00 0,00 6.438,77 24.297,61 30/11/2023
674 396700 DANIEL SILVA CARNEVALLI SUPERINTENDENTE BELO HORIZONTE - COMARCA; SUPERINTENDENCIA DE TECNOLOGIA DA INFORMACAO 28.013,39 8.404,02 0,00 205,26 0,00 0,00 3.250,70 3.055,00 42.928,37 3.880,90 7.958,64 0,00 206,92 12.046,46 30.881,91 30/11/2023
675 489300 DANIEL TABOZA ROCHA ANALISTA DO MP IPATINGA - COMARCA; IPATINGA-PJ-08PJ 12.343,61 2.468,72 0,00 0,00 0,00 0,00 0,00 3.055,00 17.867,33 982,16 2.617,01 0,00 0,00 3.599,17 14.268,16 30/11/2023
676 414100 DANIEL TARDELI VALADAO ANALISTA DO MP TRÊS CORACOES - COMARCA; TRES CORACOES-PJ-02PJ 18.130,77 5.439,23 0,00 0,00 0,00 0,00 1.813,08 4.005,00 29.388,08 982,16 5.248,06 0,00 0,00 6.230,22 23.157,86 30/11/2023
677 731800 DANIEL VASCONCELOS ARAUJO SILVA ASSESSOR ADMINISTRATIVO IV BELO HORIZONTE - COMARCA; DIRETORIA DE REDES E BANCOS DE DADOS 0,00 0,00 14.488,22 0,00 0,00 0,00 0,00 2.105,00 16.593,22 876,95 3.270,64 0,00 0,00 4.147,59 12.445,63 30/11/2023
678 446601 DANIEL VIEIRA BUENO ANALISTA DO MP SÃO DOMINGOS DO PRATA - COMARCA; SAO DOMINGOS DO PRATA-PJ-UNPJ 12.343,61 2.468,72 0,00 0,00 0,00 0,00 0,00 3.055,00 17.867,33 2.150,92 2.544,79 0,00 0,00 4.695,71 13.171,62 30/11/2023
679 253200 DANIELA BATISTA LIMA BARBOSA ASSESSOR ADMINISTRATIVO II BELO HORIZONTE - COMARCA; CENTRAL DE APOIO TECN-SETOR DE MEIO AMBIENTE 0,00 3.002,68 7.506,70 0,00 0,00 0,00 0,00 2.105,00 12.614,38 876,95 2.176,46 0,00 0,00 3.053,41 9.560,97 30/11/2023
680 505800 DANIELA BORGES DE MATTOS RESENDE ANALISTA DO MP JUIZ DE FORA - COMARCA; JUIZ DE FORA-PJ-20PJ 12.343,61 2.468,72 0,00 0,00 0,00 0,00 1.357,79 2.105,00 18.275,12 2.150,92 2.596,93 0,00 256,38 5.004,23 13.270,89 30/11/2023
681 478000 DANIELA CARVALHO SOARES ANALISTA DO MP SÃO JOÃO DEL REI - COMARCA; SAO JOAO DEL REI-PJ-01PJ 12.343,61 2.468,72 0,00 0,00 0,00 0,00 0,00 2.105,00 16.917,33 2.150,92 2.596,93 0,00 256,38 5.004,23 11.913,10 30/11/2023
682 275900 DANIELA CHAGAS SODRE ANALISTA DO MP BELO HORIZONTE - COMARCA; CENTRAL DE APOIO TECNICO-SETOR CONTABIL 23.070,31 9.228,12 0,00 0,00 0,00 0,00 0,00 2.105,00 34.403,43 4.948,70 6.377,94 0,00 749,60 12.076,24 22.327,19 30/11/2023
683 234301 DANIELA CRUZ SOARES ANALISTA DO MP BELO HORIZONTE - COMARCA; LABORATORIO TECNOLOGIA INTELIGENCIA 23.070,31 9.228,12 0,00 0,00 0,00 0,00 2.960,69 2.105,00 37.364,12 4.948,70 6.276,06 0,00 1.309,65 12.534,41 24.829,71 30/11/2023
684 638000 DANIELA DE ALMEIDA BATISTA ANALISTA DO MP ANDRELÂNDIA - COMARCA; ANDRELANDIA-PJ-UNPJ 11.577,56 1.157,76 0,00 0,00 0,00 0,00 0,00 3.055,00 15.790,32 982,16 2.347,16 0,00 0,00 3.329,32 12.461,00 30/11/2023
685 301000 DANIELA DE ALMEIDA E OLIVEIRA ANALISTA DO MP BELO HORIZONTE - COMARCA; DIRETORIA DE SISTEMAS DE INFORMACAO 23.070,31 6.921,09 0,00 0,00 0,00 5.440,23 0,00 2.105,00 37.536,63 4.579,57 7.362,68 0,00 860,66 12.802,91 24.733,72 30/11/2023
686 296000 DANIELA DE AZEVEDO SILVA ANALISTA DO MP BRASÓPOLIS - COMARCA; BRASOPOLIS-PJ-UNPJ 23.070,31 9.228,12 0,00 0,00 0,00 0,00 0,00 2.105,00 34.403,43 4.948,70 6.254,10 0,00 1.621,55 12.824,35 21.579,08 30/11/2023
687 453500 DANIELA DE CASTRO SOUSA BARBOSA ANALISTA DO MP BELO HORIZONTE - COMARCA; BH-08PJ JUIZADO ESPECIAL-SECRETARIA 14.960,00 3.889,60 0,00 0,00 0,00 0,00 1.494,79 2.105,00 22.449,39 2.796,88 3.506,92 0,00 355,61 6.659,41 15.789,98 30/11/2023
688 506000 DANIELA DE OLIVEIRA CAVALIERI ANALISTA DO MP BELO HORIZONTE - COMARCA; BH-14PJ DEFESA CONSUMIDOR-GAB 005PJ 12.343,61 2.468,72 0,00 0,00 0,00 0,00 1.357,79 2.105,00 18.275,12 2.150,92 2.596,93 0,00 256,38 5.004,23 13.270,89 30/11/2023
689 546200 DANIELA DE VILHENA LEMES GONCALVES OFICIAL DO MP TRÊS CORACOES - COMARCA; TRES CORACOES-PJ-05PJ 7.506,70 750,67 0,00 0,00 0,00 0,00 838,82 2.105,00 11.201,19 1.102,13 978,46 0,00 142,92 2.223,51 8.977,68 30/11/2023
690 356400 DANIELA LEAL FERRAZ ANALISTA DO MP MONTES CLAROS - COMARCA; COORD REG PJ DEF EDUC DIR CRIANCA ADOL NORTE 21.346,53 6.403,96 0,00 0,00 0,00 0,00 0,00 3.055,00 30.805,49 4.221,03 5.481,95 0,00 377,07 10.080,05 20.725,44 30/11/2023
691 501000 DANIELA LOURENCO SANTOS DA SILVA GUIMARAES ANALISTA DO MP BELO HORIZONTE - COMARCA; BH-12PJ JUIZO CRIMINAL-GAB 095PJ 12.343,61 2.468,72 0,00 0,00 0,00 0,00 0,00 2.105,00 16.917,33 2.150,92 2.544,79 0,00 256,38 4.952,09 11.965,24 30/11/2023
692 195801 DANIELA MARIA DE OLIVEIRA QUEIROZ ANALISTA DO MP ARAGUARI - COMARCA; ARAGUARI-PJ-06PJ 18.720,84 7.488,34 0,00 0,00 0,00 0,00 2.326,78 2.105,00 30.640,96 3.974,42 5.194,38 0,00 128,08 9.296,88 21.344,08 30/11/2023
693 511400 DANIELA MARIA LARA DE OLIVEIRA ANALISTA DO MP BOA ESPERANÇA - COMARCA; BOA ESPERANCA-PJ-02PJ 12.343,61 3.703,08 0,00 0,00 0,00 0,00 1.357,80 3.055,00 20.459,49 2.348,42 2.829,93 0,00 256,38 5.434,73 15.024,76 30/11/2023
694 252101 DANIELA PAULA ALVES PENA ANALISTA DO MP CONTAGEM - COMARCA; CONTAGEM-PJ-APO TECNICO 20.533,67 8.213,47 0,00 0,00 0,00 0,00 2.402,51 2.105,00 33.254,65 4.380,49 5.815,87 0,00 0,00 10.196,36 23.058,29 30/11/2023
695 604700 DANIELA PEIXOTO NOGUEIRA COORDENADOR II BELO HORIZONTE - COMARCA; DIRET DE FORMACAO, APERFEIC. E POS-GRADUACAO 20.533,67 4.106,73 0,00 0,00 0,00 0,00 3.295,65 3.055,00 30.991,05 1.550,77 6.029,37 0,00 142,92 7.723,06 23.267,99 30/11/2023
696 755700 DANIELA PIMENTEL PEREIRA ASSESSOR ADMINISTRATIVO I BELO HORIZONTE - COMARCA; DIRET DE ESTAGIOS E CONVENIOS ACADEMICOS 0,00 0,00 4.872,71 0,00 0,00 0,00 0,00 2.105,00 6.977,71 718,08 670,06 0,00 0,00 1.388,14 5.589,57 30/11/2023
697 662000 DANIELA RIBAS DE AVILA ASSESSOR ADMINISTRATIVO III BELO HORIZONTE - COMARCA; JUNTA RECURSAL DO PROCON ESTADUAL 0,00 0,00 10.858,90 0,00 0,00 0,00 477,80 2.105,00 13.441,70 876,95 2.272,58 0,00 0,00 3.149,53 10.292,17 30/11/2023
698 462000 DANIELA SOUSA GOMES DO AMARAL ANALISTA DO MP BETIM - COMARCA; BETIM-PJ-04PJ 15.447,01 3.089,40 0,00 0,00 0,00 0,00 1.645,59 2.105,00 22.287,00 2.746,77 3.384,80 0,00 263,25 6.394,82 15.892,18 30/11/2023
699 427000 DANIELA TEIXEIRA DINIZ ANDRADE ANALISTA DO MP BELO HORIZONTE - COMARCA; DIRETORIA DE PROJETOS DE EDIFICACOES 13.588,97 2.717,79 4.020,58 0,00 0,00 0,00 2.114,35 5.357,37 27.799,06 2.390,03 3.973,75 0,00 327,72 6.691,50 21.107,56 30/11/2023
700 337200 DANIELA TOLEDO SENIUK ANALISTA DO MP BELO HORIZONTE - COMARCA; GABINETE DE PROCURADOR DE JUSTIÇA - SALA 412 23.070,31 6.921,09 0,00 0,00 1.081,47 0,00 11.400,13 3.402,76 45.875,76 5.735,36 8.069,36 0,00 0,00 13.804,72 32.071,04 30/11/2023
701 605600 DANIELE ALZIRA SILVA CABRAL MOREIRA OFICIAL DO MP BELO HORIZONTE - COMARCA; BH-10PJ EXECUÇÃO PENAL-SECRETARIA 7.506,70 750,67 0,00 0,00 0,00 0,00 0,00 2.105,00 10.362,37 1.102,13 1.082,73 0,00 142,92 2.327,78 8.034,59 30/11/2023
702 195500 DANIELE CHAVES FONSECA OFICIAL DO MP BELO HORIZONTE - COMARCA; CGMP-DIR INSP CORR PROCED PROC DISC 23.070,31 9.228,12 0,00 0,00 0,00 0,00 2.635,15 2.105,00 37.038,58 4.948,70 6.636,22 0,00 0,00 11.584,92 25.453,66 30/11/2023
703 323400 DANIELE MEGALE SANTINI OFICIAL DO MP BELO HORIZONTE - COMARCA; CGMP-DIR INSP CORR PROCED PROC DISC 14.960,00 4.488,00 0,00 0,00 0,00 0,00 1.619,34 2.105,00 23.172,34 2.892,63 3.615,63 0,00 305,77 6.814,03 16.358,31 30/11/2023
704 357900 DANIELE REJANE PINTO VERSIEUX OFICIAL DO MP BELO HORIZONTE - COMARCA; BH-12PJ JUIZO CRIMINAL-SECRETARIA 12.343,61 3.703,08 0,00 0,00 0,00 0,00 1.630,07 2.105,00 19.781,76 2.348,42 2.882,06 0,00 277,74 5.508,22 14.273,54 30/11/2023
705 389500 DANIELE VASCONCELOS AMORIM OFICIAL DO MP SÃO SEBASTIÃO DO PARAÍSO - COMARCA; SAO SEBASTIAO DO PARAISO-PJ-04PJ 12.343,61 3.703,08 0,00 0,00 0,00 0,00 0,00 2.105,00 18.151,69 2.348,42 2.822,34 0,00 217,17 5.387,93 12.763,76 30/11/2023
706 629700 DANIELLA BASTOS MARTINS BICALHO OFICIAL DO MP GOVERNADOR VALADARES - COMARCA; GOVERNADOR VALADARES-PJ-16PJ 7.506,70 750,67 0,00 0,00 0,00 0,00 756,92 2.105,00 11.119,29 1.102,13 1.071,28 0,00 180,06 2.353,47 8.765,82 30/11/2023
707 725500 DANIELLE CAMILE OLIVEIRA FONSECA ASSESSOR PROCURADOR JUSTICA BELO HORIZONTE - COMARCA; PROC JUST ATUACAO TRIBUNAIS SUPERIORES-GAB007 0,00 0,00 8.810,89 0,00 0,00 0,00 807,66 2.105,00 11.723,55 876,95 1.709,37 0,00 0,00 2.586,32 9.137,23 30/11/2023
708 265000 DANIELLE CASTANHEIRA SCALABRINI OFICIAL DO MP BELO HORIZONTE - COMARCA; JUNTA RECURSAL DO PROCON ESTADUAL 12.343,61 4.937,44 0,00 0,00 0,00 0,00 0,00 2.105,00 19.386,05 2.545,92 3.115,06 0,00 277,74 5.938,72 13.447,33 30/11/2023
709 490100 DANIELLE DE AVILA SILVA LOPES ANALISTA DO MP BELO HORIZONTE - COMARCA; PROC. JUSTICA DIR. DIFUSOS E COLETIVOS-SEC 12.343,61 4.937,44 0,00 0,00 0,00 0,00 0,00 3.055,00 20.336,05 2.545,92 3.167,20 0,00 277,74 5.990,86 14.345,19 30/11/2023
710 549600 DANIELLE GOMES LOPES RODRIGUES OFICIAL DO MP BELO HORIZONTE - COMARCA; COORD DE GABINETE DO PGJ 7.506,70 1.501,34 0,00 0,00 0,00 0,00 0,00 2.105,00 11.113,04 1.222,23 1.256,14 0,00 142,92 2.621,29 8.491,75 30/11/2023
711 613000 DANIELLE SILVA OLIVEIRA FRANKLIN COORDENADOR II BELO HORIZONTE - COMARCA; DIRETORIA DE ADMINISTRACAO FINANCEIRA 20.533,67 2.053,37 0,00 0,00 0,00 0,00 0,00 3.055,00 25.642,04 1.235,43 4.986,73 0,00 147,58 6.369,74 19.272,30 30/11/2023
712 722800 DANIELLE VALENTIM SOUZA ASSESSOR PROCURADOR JUSTICA BELO HORIZONTE - COMARCA; GABINETE DE PROCURADOR DE JUSTIÇA - SALA 606 0,00 0,00 8.810,89 0,00 0,00 0,00 0,00 2.105,00 10.915,89 876,95 1.709,37 0,00 0,00 2.586,32 8.329,57 30/11/2023
713 736400 DANIELLY VITORIA MARIA RUELA ASSESSOR PROMOTOR JUSTICA PARACATU - COMARCA; COORD REG PP NOROESTE MINAS GERAIS PARACATU 0,00 0,00 8.810,89 0,00 0,00 0,00 0,00 2.105,00 10.915,89 876,95 1.709,37 0,00 0,00 2.586,32 8.329,57 30/11/2023
714 380800 DANILLO RIBEIRO ANTUNES ANALISTA DO MP MONTES CLAROS - COMARCA; MONTES CLAROS-PJ-SECRETARIA 20.533,67 6.160,10 0,00 0,00 0,00 0,00 4.515,23 7.798,09 39.007,09 4.051,95 5.745,45 0,00 113,30 9.910,70 29.096,39 30/11/2023
715 453700 DANILO BOTELHO DE CARVALHO SUPERINTENDENTE BELO HORIZONTE - COMARCA; SUPERINTENDENCIA DE FINANCAS 28.013,39 5.602,68 0,00 193,21 0,00 0,00 3.081,47 2.105,00 38.995,75 3.262,06 7.462,39 0,00 0,00 10.724,45 28.271,30 30/11/2023
716 391200 DANILO D'AVILA MENDES ANALISTA DO MP MONTES CLAROS - COMARCA; GAECO REGIONAL DE MONTES CLAROS 20.533,67 6.160,10 0,00 0,00 0,00 0,00 2.059,31 3.055,00 31.808,08 4.051,95 5.310,38 0,00 113,30 9.475,63 22.332,45 30/11/2023
717 710900 DANILO DE SOUZA RODRIGUES ASSESSOR PROMOTOR JUSTICA IPANEMA - COMARCA; IPANEMA-PJ-01PJ 0,00 0,00 8.810,89 0,00 0,00 0,00 0,00 2.105,00 10.915,89 876,95 1.709,37 0,00 0,00 2.586,32 8.329,57 30/11/2023
718 494900 DANILO GAVIAO AVELINO DE MELLO ANALISTA DO MP POUSO ALEGRE - COMARCA; GAECO REGIONAL DE POUSO ALEGRE 12.343,61 2.468,72 0,00 0,00 0,00 0,00 0,00 2.105,00 16.917,33 2.150,92 2.596,93 0,00 256,38 5.004,23 11.913,10 30/11/2023
719 604300 DANILO NASCIMENTO SALGADO ANALISTA DO MP JANAÚBA - COMARCA; JANAUBA-PJ-01PJ 12.343,61 2.468,72 0,00 0,00 0,00 0,00 2.479,01 2.105,00 19.396,34 2.348,42 2.844,99 0,00 355,26 5.548,67 13.847,67 30/11/2023
720 298300 DANUZA MONICA DE SOUZA DINIZ ANALISTA DO MP BELO HORIZONTE - COMARCA; CAO-FUNDACOES-ASSESSORIA JURIDICA 23.070,31 6.921,09 0,00 0,00 0,00 0,00 0,00 2.105,00 32.096,40 4.579,57 5.914,56 0,00 496,71 10.990,84 21.105,56 30/11/2023
721 398700 DARCY LUIZ MILEO GREGATTI OFICIAL DO MP LAMBARI - COMARCA; LAMBARI-PJ-SECRETARIA 12.343,61 3.703,08 0,00 0,00 0,00 0,00 0,00 2.105,00 18.151,69 2.348,42 2.862,17 0,00 312,83 5.523,42 12.628,27 30/11/2023
722 406200 DARIANA AUGUSTA DE TOLEDO PATROCINIO RUIZ OFICIAL DO MP BELO HORIZONTE - COMARCA; DIRETORIA GESTAO COMPRAS LICITACOES 12.070,61 3.621,18 5.723,55 0,00 0,00 0,00 2.258,70 3.055,00 26.729,04 2.291,63 4.358,44 0,00 289,67 6.939,74 19.789,30 30/11/2023
723 586901 DARIO VITORINO DE CARVALHO SILVA ASSESSOR ADM. ESPECIAL BELO HORIZONTE - COMARCA; NUCLEO DE OPERACOES DE SEGURANCA DE PESSOAL 0,00 0,00 28.013,39 0,00 0,00 0,00 2.567,89 2.105,00 32.686,28 876,95 6.937,92 0,00 0,00 7.814,87 24.871,41 30/11/2023
724 305000 DARLI LEITE DE OLIVEIRA OFICIAL DO MP ARAÇUAÍ - COMARCA; ARACUAI-PJ-01PJ 7.506,70 2.252,01 0,00 0,00 0,00 0,00 991,32 2.105,00 12.855,03 1.342,34 1.273,13 0,00 168,91 2.784,38 10.070,65 30/11/2023
725 729400 DAVI PIMENTA ASSESSOR PROMOTOR JUSTICA CANDEIAS - COMARCA; CANDEIAS-PJ-UNPJ 0,00 0,00 8.810,89 0,00 0,00 0,00 807,66 2.105,00 11.723,55 876,95 1.709,37 0,00 0,00 2.586,32 9.137,23 30/11/2023
726 122200 DAVID RIBEIRO DOS SANTOS ANALISTA DO MP BORDA DA MATA - COMARCA; BORDA DA MATA-PJ-UNPJ 23.070,31 23.070,31 0,00 0,00 0,00 5.795,34 3.751,86 2.105,00 57.792,82 5.795,34 9.452,28 8.550,66 0,00 23.798,28 33.994,54 30/11/2023
727 389400 DAWSON CANEDO MARQUES OFICIAL DO MP POUSO ALEGRE - COMARCA; POUSO ALEGRE-PJ-08PJ 12.343,61 3.703,08 0,00 0,00 0,00 0,00 0,00 3.055,00 19.101,69 2.348,42 1.139,66 0,00 0,00 3.488,08 15.613,61 30/11/2023
728 537200 DAYANE TEIXEIRA DE OLIVEIRA CASELLI ANALISTA DO MP BELO HORIZONTE - COMARCA; ASSESS TECNICO-JUR JUNTO AS PROC. DE JUST 11.212,54 1.121,25 0,00 0,00 0,00 0,00 0,00 2.105,00 14.438,79 1.754,35 2.024,39 0,00 196,90 3.975,64 10.463,15 30/11/2023
729 256100 DAYSE ROSALY PEREIRA BATISTA OFICIAL DO MP BELO HORIZONTE - COMARCA; BH-08PJ JUIZADO ESPECIAL-SECRETARIA 12.343,61 4.937,44 0,00 0,00 0,00 0,00 1.584,11 2.105,00 20.970,16 2.545,92 3.167,20 0,00 0,00 5.713,12 15.257,04 30/11/2023
730 311901 DEBORA APARECIDA DA SILVA ASSESSOR ADMINISTRATIVO I BELO HORIZONTE - COMARCA; BH-23PJ CIVEL-SETOR JURIDICO 0,00 0,00 4.872,71 0,00 0,00 0,00 0,00 2.105,00 6.977,71 718,08 670,06 0,00 0,00 1.388,14 5.589,57 30/11/2023
731 194301 DEBORA APARECIDA DOS SANTOS ANALISTA DO MP UBERLÂNDIA - COMARCA; UBERLANDIA-PJ-SEC FAMILIA 23.070,31 9.228,12 0,00 0,00 0,00 0,00 2.960,69 2.105,00 37.364,12 4.948,70 6.363,91 0,00 1.254,02 12.566,63 24.797,49 30/11/2023
732 518800 DEBORA CARVALHO FIORATTO COORDENADOR II BELO HORIZONTE - COMARCA; DIRETORIA MATERIAIS E SERVICOS 20.533,67 4.106,73 0,00 0,00 0,00 0,00 5.631,83 2.105,00 32.377,23 1.800,11 6.531,87 0,00 201,46 8.533,44 23.843,79 30/11/2023
733 444900 DEBORA CLAUDIA PEREIRA ALVES ANALISTA DO MP BELO HORIZONTE - COMARCA; BH-08PJ JUIZADO ESPECIAL-SECRETARIA 14.960,00 2.992,00 0,00 0,00 0,00 0,00 1.494,79 2.105,00 21.551,79 2.653,27 3.299,57 0,00 355,61 6.308,45 15.243,34 30/11/2023
734 617700 DEBORA COMANDUCI SCHREIDER ANALISTA DO MP BICAS - COMARCA; BICAS-PJ-UNPJ 12.343,61 1.234,36 0,00 0,00 0,00 0,00 0,00 2.105,00 15.682,97 1.953,42 2.259,65 0,00 220,43 4.433,50 11.249,47 30/11/2023
735 555700 DEBORA CRISTINA BUITRAGO PEREIRA ANALISTA DO MP BELO HORIZONTE - COMARCA; DIRETORIA GESTAO CONTRATOS CONVENIOS 12.343,61 2.468,72 4.020,58 0,00 0,00 0,00 552,43 9.081,53 28.466,87 2.150,92 3.702,59 0,00 122,41 5.975,92 22.490,95 30/11/2023
736 513100 DEBORA CRISTINA PEREIRA DE OLIVEIRA ANALISTA DO MP BELO HORIZONTE - COMARCA; BH-23PJ CIVEL-SETOR JURIDICO 14.960,00 2.992,00 0,00 0,00 0,00 0,00 0,00 3.530,00 21.482,00 2.653,27 3.322,19 0,00 282,24 6.257,70 15.224,30 30/11/2023
737 612100 DEBORA DUARTE SILVA DE SOUZA OFICIAL DO MP BELO HORIZONTE - COMARCA; BH-12PJ JUIZO CRIMINAL-SECRETARIA 7.506,70 3.002,68 0,00 0,00 0,00 0,00 963,37 2.105,00 13.577,75 1.462,45 1.498,67 0,00 168,91 3.130,03 10.447,72 30/11/2023
738 717500 DEBORA ENDREFFY ORSI PARENZI ASSESSOR PROMOTOR JUSTICA MATEUS LEME - COMARCA; MATEUS LEME-PJ-01PJ 0,00 0,00 8.810,89 0,00 0,00 0,00 0,00 2.105,00 10.915,89 876,95 1.709,37 0,00 0,00 2.586,32 8.329,57 30/11/2023
739 539700 DEBORA SALES CARVALHO ANALISTA DO MP PATOS DE MINAS - COMARCA; COORD REG PJ DEF EDU DIR CRI ADO AL PAR NOROE 12.343,61 2.468,72 0,00 0,00 0,00 0,00 0,00 2.105,00 16.917,33 982,16 2.767,68 0,00 0,00 3.749,84 13.167,49 30/11/2023
740 424100 DEBORA SANTOS E ALVES ANALISTA DO MP JANUÁRIA - COMARCA; JANUARIA-PJ-01PJ 18.720,84 3.744,17 0,00 0,00 0,00 0,00 0,00 3.403,33 25.868,34 3.375,35 4.364,70 0,00 0,00 7.740,05 18.128,29 30/11/2023
741 426301 DEBORA SCUCATO MACHADO SOARES OFICIAL DO MP ITABIRA - COMARCA; ITABIRA-PJ-01PJ 7.506,70 1.501,34 0,00 0,00 0,00 0,00 915,06 3.055,00 12.978,10 1.222,23 1.256,14 0,00 155,91 2.634,28 10.343,82 30/11/2023
742 678100 DEBORA SOUZA COSTA ASSESSOR PROMOTOR JUSTICA BOTELHOS - COMARCA; BOTELHOS-PJ-UNPJ 0,00 0,00 8.810,89 0,00 0,00 0,00 0,00 2.105,00 10.915,89 876,95 1.657,24 0,00 0,00 2.534,19 8.381,70 30/11/2023
743 550200 DEBORA TRINDADE LEITE ANALISTA DO MP MANHUAÇU - COMARCA; MANHUACU-PJ-05PJ 12.343,61 2.468,72 0,00 0,00 0,00 0,00 1.244,64 2.105,00 18.161,97 2.150,92 2.492,65 0,00 70,57 4.714,14 13.447,83 30/11/2023
744 438000 DEBORAH COSTA LAGE ANALISTA DO MP BELO HORIZONTE - COMARCA; PROC JUST ATUACAO TRIBUNAIS SUPERIORES-GAB006 18.720,84 3.744,17 0,00 0,00 0,00 0,00 0,00 2.105,00 24.570,01 3.375,35 4.334,51 0,00 109,78 7.819,64 16.750,37 30/11/2023
745 613700 DEISER MARIA FERREIRA ROSCOE OFICIAL DO MP BELO HORIZONTE - COMARCA; DIVISÃO DE EDUCAÇÃO PARA O CONSUMO 7.506,70 750,67 0,00 0,00 0,00 0,00 756,93 2.105,00 11.119,30 1.102,13 1.082,73 0,00 142,92 2.327,78 8.791,52 30/11/2023
746 753300 DEISIANE MARA DE OLIVEIRA OFICIAL DO MP CONSELHEIRO PENA - COMARCA; CONSELHEIRO PENA-PJ-01PJ 4.570,25 0,00 0,00 0,00 0,00 0,00 0,00 2.105,00 6.675,25 526,88 257,78 0,00 0,00 784,66 5.890,59 30/11/2023
747 551900 DEISY ROCHA DA SILVA ANALISTA DO MP JANAÚBA - COMARCA; JANAUBA-PJ-02PJ 12.343,61 2.468,72 0,00 0,00 0,00 0,00 497,86 2.105,00 17.415,19 2.150,92 2.544,79 0,00 235,01 4.930,72 12.484,47 30/11/2023
748 736800 DELANZIA APARECIDA JUNHO ASSESSOR DE CAO BELO HORIZONTE - COMARCA; CAO-FUNDACOES 0,00 0,00 7.506,70 0,00 0,00 0,00 0,00 2.105,00 9.611,70 876,95 1.350,72 0,00 0,00 2.227,67 7.384,03 30/11/2023
749 501900 DELI RAQUEL RODRIGUES ANALISTA DO MP ITUIUTABA - COMARCA; ITUIUTABA-PJ-04PJ 12.343,61 2.468,72 0,00 0,00 0,00 0,00 0,00 2.105,00 16.917,33 2.150,92 2.596,93 0,00 256,38 5.004,23 11.913,10 30/11/2023
750 378600 DELIANE LOPES VIEIRA BREIJAO ANALISTA DO MP JUIZ DE FORA - COMARCA; JUIZ DE FORA-PJ-14PJ 20.533,67 6.160,10 0,00 0,00 0,00 0,00 2.059,29 2.105,00 30.858,06 4.051,95 5.258,25 0,00 113,30 9.423,50 21.434,56 30/11/2023
751 730100 DELIENE FRACETE GUTIERREZ ASSESSOR ADMINISTRATIVO I TEÓFILO OTONI - COMARCA; COORD REG APOIO COM INC MOB SOC VALE MUCURI 0,00 0,00 4.872,71 0,00 0,00 0,00 0,00 2.105,00 6.977,71 718,08 670,06 0,00 0,00 1.388,14 5.589,57 30/11/2023
752 756600 DELZIRA DE OLIVEIRA BALDOINO ASSESSOR DE CAO BELO HORIZONTE - COMARCA; CENTRO ESTADUAL DE APOIO AS VITIMAS 0,00 0,00 7.506,70 0,00 0,00 0,00 3.002,68 3.323,64 13.833,02 876,95 2.345,21 0,00 0,00 3.222,16 10.610,86 30/11/2023
753 487700 DENIA FERREIRA MAIA SILVA OFICIAL DO MP TRÊS CORACOES - COMARCA; TRES CORACOES-PJ-04PJ 8.264,07 1.652,81 0,00 0,00 0,00 0,00 704,31 2.105,00 12.726,19 1.367,65 1.361,80 0,00 166,24 2.895,69 9.830,50 30/11/2023
754 726300 DENILZA RODRIGUES MORAES ASSESSOR ADMINISTRATIVO I BELO HORIZONTE - COMARCA; CENT DE ATENDIMENTO AS PROMOTORIAS DE JUSTICA 0,00 0,00 4.872,71 0,00 0,00 0,00 446,67 2.105,00 7.424,38 718,08 670,06 0,00 0,00 1.388,14 6.036,24 30/11/2023
755 424800 DENIS APARECIDO CAMPOS DELFINO ANALISTA DO MP LUZ - COMARCA; LUZ-PJ-UNPJ 18.130,77 3.626,15 0,00 0,00 0,00 0,00 1.931,49 2.105,00 25.793,41 3.262,06 3.907,61 0,00 308,96 7.478,63 18.314,78 30/11/2023
756 381400 DENISE ANGELICA MELLO DE PAULA OFICIAL DO MP BELO HORIZONTE - COMARCA; BH-18PJ DIREITOS HUMANOS-SECRETARIA 12.343,61 3.703,08 4.346,47 0,00 0,00 0,00 0,00 607,82 21.000,98 2.348,42 4.077,34 0,00 224,32 6.650,08 14.350,90 30/11/2023
757 702100 DENISE CANDIDO LIMA MACEDO KATOPODIS ASSESSOR PROCURADOR JUSTICA BELO HORIZONTE - COMARCA; GABINETE DE PROCURADOR DE JUSTIÇA - SALA 308 0,00 0,00 8.810,89 0,00 0,00 0,00 0,00 2.105,00 10.915,89 876,95 1.709,37 0,00 0,00 2.586,32 8.329,57 30/11/2023
758 196300 DENISE DE ALMEIDA VILELA FURTADO OFICIAL DO MP BELO HORIZONTE - COMARCA; CENTRAL DE APOIO TECNICO-SECRETARIA 21.346,53 8.538,61 0,00 0,00 0,00 0,00 2.635,15 3.530,00 36.050,29 4.562,57 5.967,07 0,00 406,08 10.935,72 25.114,57 30/11/2023
759 271100 DENISE ELOY PEIXOTO OFICIAL DO MP BELO HORIZONTE - COMARCA; DIRETORIA DE INTELIGENCIA 18.130,77 7.252,31 5.538,92 0,00 0,00 0,00 2.092,45 2.105,00 35.119,45 3.842,24 6.469,93 0,00 334,71 10.646,88 24.472,57 30/11/2023
760 385400 DENISE FREITAS DE ASSIS OFICIAL DO MP CARATINGA - COMARCA; CARATINGA-PJ-SECRETARIA 12.343,61 3.703,08 3.004,68 0,00 0,00 0,00 0,00 2.105,00 21.156,37 2.348,42 3.689,68 0,00 293,44 6.331,54 14.824,83 30/11/2023
761 437100 DENISE NOGUEIRA MAGRI MENDES ANALISTA DO MP BELO HORIZONTE - COMARCA; LAB TECNOLOGIA CONTRA LAVAGEM DINHEIRO 18.720,84 7.488,34 0,00 0,00 0,00 0,00 0,00 2.105,00 28.314,18 3.974,42 5.090,10 0,00 128,08 9.192,60 19.121,58 30/11/2023
762 524700 DENISE RAMOS GUIMARAES OFICIAL DO MP BELO HORIZONTE - COMARCA; BH-07PJ 01 TRIBUNAL JURI-SECRETARIA 7.506,70 1.501,34 0,00 0,00 0,00 0,00 0,00 2.105,00 11.113,04 1.222,23 1.256,14 0,00 155,91 2.634,28 8.478,76 30/11/2023
763 239100 DENISE RIBEIRO DOS SANTOS CAETANO OFICIAL DO MP ITANHANDU - COMARCA; ITANHANDU-PJ-SECRETARIA 18.130,77 7.252,31 0,00 0,00 103,27 0,00 11.767,37 4.072,88 41.326,60 5.088,31 6.814,05 0,00 0,00 11.902,36 29.424,24 30/11/2023
764 325500 DENISE ROSA TORRES OFICIAL DO MP BELO HORIZONTE - COMARCA; DIRETORIA DE PESSOAL ADMINISTRATIVO - DPAD 14.960,00 4.488,00 0,00 0,00 0,00 0,00 1.619,36 2.105,00 23.172,36 2.892,63 3.667,77 0,00 305,77 6.866,17 16.306,19 30/11/2023
765 437200 DENISE VIVIANE DOS SANTOS ANALISTA DO MP BELO HORIZONTE - COMARCA; CGMP-DIR ESTAGIO PROBATORIO E ORIENT 15.949,86 3.189,97 0,00 0,00 0,00 0,00 0,00 3.530,00 22.669,83 2.843,32 3.518,73 0,00 404,24 6.766,29 15.903,54 30/11/2023
766 267900 DENISIA ALMEIDA SALES OFICIAL DO MP BELO HORIZONTE - COMARCA; BH-18PJ DIREITOS HUMANOS-SECRETARIA 12.343,61 4.937,44 0,00 0,00 0,00 0,00 1.470,95 2.105,00 20.857,00 2.545,92 3.115,06 0,00 277,74 5.938,72 14.918,28 30/11/2023
767 755500 DENNER GUEDES NEIVA ASSESSOR PROMOTOR JUSTICA NOVO CRUZEIRO - COMARCA; NOVO CRUZEIRO-PJ-UNPJ 0,00 0,00 8.810,89 0,00 0,00 0,00 0,00 2.105,00 10.915,89 876,95 1.709,37 0,00 0,00 2.586,32 8.329,57 30/11/2023
768 355300 DEYSE CRISTINA MORAIS OFICIAL DO MP PASSOS - COMARCA; PASSOS-PJ-02PJ 12.343,61 3.703,08 0,00 0,00 0,00 0,00 1.470,95 2.105,00 19.622,64 2.348,42 2.882,06 0,00 277,74 5.508,22 14.114,42 30/11/2023
769 523700 DIANA CAMPOS RESENDE OFICIAL DO MP SÃO JOÃO DEL REI - COMARCA; SAO JOAO DEL REI-PJ-04PJ 10.516,49 7.361,54 0,00 0,00 0,00 0,00 0,00 2.105,00 19.983,03 2.641,43 3.232,78 0,00 73,41 5.947,62 14.035,41 30/11/2023
770 241900 DIANA CARDOSO MARTINS OFICIAL DO MP BELO HORIZONTE - COMARCA; CAO-DH CONT EXT ATIV POLIC E AP COMUNIT 12.343,61 4.937,44 0,00 0,00 0,00 0,00 0,00 2.105,00 19.386,05 2.545,92 3.167,20 0,00 299,11 6.012,23 13.373,82 30/11/2023
771 410100 DIANA GORDILHO SILVEIRA SENA ANALISTA DO MP BELO HORIZONTE - COMARCA; BH-14PJ DEFESA CONSUMIDOR-GAB 112PJ 18.720,84 5.616,25 0,00 0,00 0,00 0,00 3.866,48 2.105,00 30.308,57 3.974,42 5.229,60 0,00 0,00 9.204,02 21.104,55 30/11/2023
772 553000 DIANA MARIA MARQUES ANALISTA DO MP BETIM - COMARCA; BETIM-PJ-07PJ 12.343,61 2.468,72 0,00 0,00 0,00 0,00 0,00 2.105,00 16.917,33 2.150,92 2.544,79 0,00 0,00 4.695,71 12.221,62 30/11/2023
773 520000 DIARLE TOSTE DOS SANTOS ANALISTA DO MP RIO POMBA - COMARCA; RIO POMBA-PJ-UNPJ 12.343,61 2.468,72 0,00 0,00 0,00 0,00 1.357,79 2.105,00 18.275,12 2.150,92 1.870,93 0,00 256,38 4.278,23 13.996,89 30/11/2023
774 539800 DIEGO CAMARGOS RODRIGUES OFICIAL DO MP CONTAGEM - COMARCA; CONTAGEM-PJ-05PJ 7.506,70 1.501,34 0,00 0,00 0,00 0,00 264,24 4.987,57 14.259,85 1.222,23 1.256,14 0,00 142,92 2.621,29 11.638,56 30/11/2023
775 607300 DIEGO CERVEIRA DE SOUZA ANALISTA DO MP PATOS DE MINAS - COMARCA; COORD REG BACIAS PARACATU,URUCUIA E ABAETE 12.343,61 1.234,36 0,00 0,00 0,00 0,00 1.379,30 2.105,00 17.062,27 982,16 2.453,68 0,00 0,00 3.435,84 13.626,43 30/11/2023
776 446900 DIEGO DE FREITAS OFICIAL DO MP UBERABA - COMARCA; UBERABA-PJ-06PJ 11.577,56 2.315,51 0,00 0,00 0,00 0,00 1.156,82 2.105,00 17.154,89 2.003,84 2.375,35 0,00 248,35 4.627,54 12.527,35 30/11/2023
777 288800 DILENE NEPOMUCENO ALVES OFICIAL DO MP BELO HORIZONTE - COMARCA; DIRETORIA DE PESSOAL ADMINISTRATIVO - DPAD 12.343,61 3.703,08 0,00 0,00 0,00 0,00 1.470,95 2.105,00 19.622,64 2.348,42 2.882,06 0,00 277,74 5.508,22 14.114,42 30/11/2023
778 270101 DILSON DO AMARAL ANALISTA DO MP RIO CASCA - COMARCA; RIO CASCA-PJ-UNPJ 12.343,61 3.703,08 0,00 0,00 0,00 0,00 0,00 2.105,00 18.151,69 2.348,42 2.882,06 0,00 235,01 5.465,49 12.686,20 30/11/2023
779 466000 DIMITRI GUDE MARCIAL ANALISTA DO MP NANUQUE - COMARCA; NANUQUE-PJ-02PJ 12.343,61 2.468,72 0,00 0,00 0,00 0,00 1.357,79 4.005,00 20.175,12 2.150,92 2.440,52 0,00 256,38 4.847,82 15.327,30 30/11/2023
780 516300 DINORA APARECIDA MACEDO BRANDAO ANALISTA DO MP BELO HORIZONTE - COMARCA; BH-19PJ SAUDE-SECRETARIA 150PJ 12.343,61 2.468,72 0,00 0,00 0,00 0,00 1.357,79 2.105,00 18.275,12 2.150,92 2.576,38 0,00 323,01 5.050,31 13.224,81 30/11/2023
781 511700 DIOGENES HENRIQUES PEREIRA LOURENCO ANALISTA DO MP BELO HORIZONTE - COMARCA; BH-03PJ EMPRESARIAL-SECRETARIA 12.343,61 2.468,72 0,00 0,00 0,00 0,00 1.357,79 3.055,00 19.225,12 982,16 2.767,68 0,00 0,00 3.749,84 15.475,28 30/11/2023
782 604100 DIOGO CESAR DE OLIVEIRA HONORIO ASSESSOR ADMINISTRATIVO III PIUMHI - COMARCA; PIUMHI-PJ-02PJ 0,00 0,00 10.858,90 0,00 0,00 0,00 0,00 2.105,00 12.963,90 876,95 2.272,58 0,00 0,00 3.149,53 9.814,37 30/11/2023
783 259600 DIOGO MESQUITA MAIA ANALISTA DO MP BELO HORIZONTE - COMARCA; DIRET DE APOIO AS PROCURADORIAS DE JUSTICA 23.070,31 20.763,28 0,00 0,00 0,00 5.795,34 0,00 2.105,00 51.733,93 5.795,34 9.400,14 6.243,63 0,00 21.439,11 30.294,82 30/11/2023
784 386700 DIRCIMAR FERNANDES CARNEIRO OFICIAL DO MP BELO HORIZONTE - COMARCA; BH-16PJ HABITACAO URBANISMO-GAB 117PJ 12.343,61 9.874,89 0,00 0,00 0,00 0,00 1.923,54 2.105,00 26.247,04 3.335,91 4.223,15 0,00 307,66 7.866,72 18.380,32 30/11/2023
785 216700 DOMICIO VALDETE PEREIRA OFICIAL DO MP TEÓFILO OTONI - COMARCA; COORD REG PJ DEF EDU DIR CRIAN ADOL JEQUI MUC 21.346,53 8.538,61 0,00 0,00 0,00 0,00 2.905,45 2.105,00 34.895,59 4.562,57 5.862,80 0,00 406,08 10.831,45 24.064,14 30/11/2023
786 192701 DONIZETTI APARECIDO AMORIM ANALISTA DO MP PRATÁPOLIS - COMARCA; PRATAPOLIS-PJ-UNPJ 12.231,15 4.937,44 0,00 0,00 0,00 0,00 0,00 2.105,00 19.273,59 2.545,92 3.084,14 0,00 299,11 5.929,17 13.344,42 30/11/2023
787 558700 DORCILIA FATIMA DE OLIVEIRA OFICIAL DO MP DIVINÓPOLIS - COMARCA; DIVINOPOLIS-PJ-02PJ 7.506,70 1.501,34 0,00 142,92 0,00 1.222,23 856,77 2.105,00 13.334,96 1.222,23 1.540,11 0,00 142,92 2.905,26 10.429,70 30/11/2023
788 555300 DOUGLAS CUNHA DE SOUZA ANALISTA DO MP VARZEA DA PALMA - COMARCA; VARZEA DA PALMA-PJ-01PJ 12.343,61 2.468,72 0,00 0,00 0,00 0,00 1.244,66 3.055,00 19.111,99 982,16 2.767,68 0,00 0,00 3.749,84 15.362,15 30/11/2023
789 265900 DOUGLAS GOMES MOREIRA ANALISTA DO MP BELO HORIZONTE - COMARCA; CENTRAL DE APOIO TECNICO-SETOR DE ENGENHARIA 23.070,31 9.228,12 0,00 0,00 0,00 0,00 0,00 2.105,00 34.403,43 4.948,70 6.428,41 0,00 1.274,76 12.651,87 21.751,56 30/11/2023
790 241000 DOUGLAS MEIRELLES DE CASTRO OFICIAL DO MP CONCEIÇÃO DO RIO VERDE - COMARCA; CONCEICAO DO RIO VERDE-PJ-UNPJ 18.130,77 9.065,39 0,00 0,00 0,00 0,00 2.253,41 2.105,00 31.554,57 4.132,33 5.405,46 0,00 0,00 9.537,79 22.016,78 30/11/2023
791 534900 DOUGLAS SILVA E SOUZA ANALISTA DO MP CAMPOS GERAIS - COMARCA; CAMPOS GERAIS-PJ-02PJ 12.343,61 2.468,72 0,00 0,00 0,00 0,00 1.391,54 2.105,00 18.308,87 982,16 2.715,54 0,00 0,00 3.697,70 14.611,17 30/11/2023
792 638900 DOUGLAS WALLAS CONCEICAO NEVES OFICIAL DO MP RIBEIRÃO DAS NEVES - COMARCA; RIBEIRAO DAS NEVES-PJ-03PJ 6.818,83 681,88 0,00 0,00 0,00 0,00 0,00 2.105,00 9.605,71 987,75 932,06 0,00 0,00 1.919,81 7.685,90 30/11/2023
793 146800 DUCINALVA AMARAL LOPES REIS OFICIAL DO MP PARAISÓPOLIS - COMARCA; PARAISOPOLIS-PJ-UNPJ 23.070,31 18.456,25 0,00 0,00 0,00 5.950,68 3.700,24 -2.405,80 48.771,68 5.795,34 9.348,00 3.936,60 1.328,02 20.407,96 28.363,72 30/11/2023
794 122500 DUILIO CARLOS FERREIRA UTSCH OFICIAL DO MP CONCEIÇÃO DO MATO DENTRO - COMARCA; CONCEICAO DO MATO DENTRO-PJ-UNPJ 21.346,53 19.211,88 0,00 0,00 0,00 5.795,34 477,24 7.311,24 54.142,23 5.795,34 9.452,28 2.968,45 0,00 18.216,07 35.926,16 30/11/2023
795 201800 DULCINEIA ANDRE DE SOUZA OFICIAL DO MP JEQUITINHONHA - COMARCA; JEQUITINHONHA-PJ-SECRETARIA 21.346,53 8.538,61 0,00 0,00 0,00 0,00 1.054,06 2.105,00 33.044,20 4.562,57 5.810,66 0,00 406,08 10.779,31 22.264,89 30/11/2023
796 395800 DUVIDIER MEDIRCIO JUNIOR ANALISTA DO MP BELO HORIZONTE - COMARCA; CAO-PATRIMONIO PUBLICO 20.533,67 6.160,10 0,00 0,00 0,00 0,00 0,00 2.105,00 28.798,77 4.051,95 5.341,54 0,00 0,00 9.393,49 19.405,28 30/11/2023
797 604800 ECIA RAMILIS ISSA DE ABREU ANALISTA DO MP BRASÍLIA DE MINAS - COMARCA; BRASILIA DE MINAS-PJ-01PJ 12.343,61 1.234,36 0,00 0,00 0,00 0,00 0,00 3.055,00 16.632,97 1.953,42 2.274,71 0,00 355,26 4.583,39 12.049,58 30/11/2023
798 273000 EDELFINA APARECIDA GUIMARAES OFICIAL DO MP CACHOEIRA DE MINAS - COMARCA; CACHOEIRA DE MINAS-PJ-UNPJ 14.960,00 11.968,00 0,00 0,00 0,00 0,00 0,00 2.105,00 29.033,00 4.089,43 5.343,51 0,00 0,00 9.432,94 19.600,06 30/11/2023
799 523300 EDER DOS SANTOS PATRICIO ANALISTA DO MP NOVA SERRANA - COMARCA; NOVA SERRANA-PJ-03PJ 12.343,61 2.468,72 0,00 0,00 0,00 0,00 1.504,69 3.055,00 19.372,02 982,16 2.715,54 0,00 0,00 3.697,70 15.674,32 30/11/2023
800 356700 EDER JOSE PACHECO OFICIAL DO MP CAMPO BELO - COMARCA; CAMPO BELO-PJ-04PJ 12.343,61 3.703,08 0,00 0,00 0,00 0,00 3.242,60 2.105,00 21.394,29 2.348,42 3.317,13 0,00 277,74 5.943,29 15.451,00 30/11/2023
801 507900 EDERSON SILVA LOPES OFICIAL DO MP BELO HORIZONTE - COMARCA; LABORATORIO TECNOLOGIA INTELIGENCIA 10.015,59 2.003,12 0,00 0,00 0,00 0,00 1.000,76 2.105,00 15.124,47 1.703,94 1.847,33 0,00 188,96 3.740,23 11.384,24 30/11/2023
802 296200 EDGARD GOULART MATOSINHO DE LAET JR ANALISTA DO MP GOVERNADOR VALADARES - COMARCA; GOVERNADOR VALADARES-PJ-12PJ 23.070,31 6.921,09 0,00 0,00 0,00 0,00 2.930,58 2.105,00 35.026,98 4.579,57 5.999,02 0,00 0,00 10.578,59 24.448,39 30/11/2023
803 332300 EDILA MARILAC MIRANDA PRADO OFICIAL DO MP DIAMANTINA - COMARCA; DIAMANTINA-PJ-01PJ 12.343,61 8.640,53 0,00 0,00 0,00 0,00 2.235,84 7.980,56 31.200,54 3.138,41 3.918,34 0,00 320,48 7.377,23 23.823,31 30/11/2023
804 376600 EDILANE CONSOLACAO ROSA NAZARETH ANALISTA DO MP BETIM - COMARCA; BETIM-PJ-10PJ 20.533,67 6.160,10 0,00 0,00 0,00 0,00 0,00 2.105,00 28.798,77 982,16 5.790,02 0,00 0,00 6.772,18 22.026,59 30/11/2023
805 309800 EDILZA DOS REIS OFICIAL DO MP UBERLÂNDIA - COMARCA; UBERLANDIA-PJ-03PJ 12.343,61 3.703,08 0,00 0,00 0,00 0,00 1.470,95 2.105,00 19.622,64 2.348,42 2.829,93 0,00 277,74 5.456,09 14.166,55 30/11/2023
806 200500 EDINEIA MARIA DE OLIVEIRA ANTUNES OFICIAL DO MP MONTES CLAROS - COMARCA; MONTES CLAROS-PJ-10PJ 21.346,53 10.673,27 0,00 0,00 1.110,64 0,00 13.534,69 4.104,17 50.769,30 6.681,15 9.442,86 0,00 0,00 16.124,01 34.645,29 30/11/2023
807 427700 EDISANGELA SOARES LOPES OFICIAL DO MP PIRAPORA - COMARCA; PIRAPORA-PJ-02PJ 7.506,70 1.501,34 0,00 0,00 0,00 0,00 0,00 2.105,00 11.113,04 1.222,23 1.256,14 0,00 155,91 2.634,28 8.478,76 30/11/2023
808 555400 EDISON MONTEIRO SAMPAIO NETO ANALISTA DO MP BELO HORIZONTE - COMARCA; BH-12PJ JUIZO CRIMINAL-GAB 094PJ 12.343,61 2.468,72 0,00 0,00 0,00 0,00 1.244,65 2.105,00 18.161,98 2.150,92 2.596,93 0,00 0,00 4.747,85 13.414,13 30/11/2023
809 517700 EDMILSON TADEU FERNANDES OFICIAL DO MP POUSO ALEGRE - COMARCA; GAECO REGIONAL DE POUSO ALEGRE 9.699,77 1.939,95 0,00 0,00 0,00 0,00 1.033,34 3.055,00 15.728,06 1.643,30 1.864,06 0,00 195,11 3.702,47 12.025,59 30/11/2023
810 358400 EDNA APARECIDA SILVA FERREIRA OFICIAL DO MP CORONEL FABRICIANO - COMARCA; CORONEL FABRICIANO-PJ-02PJ 14.960,00 4.488,00 0,00 0,00 0,00 0,00 1.619,35 2.105,00 23.172,35 2.892,63 3.538,99 0,00 385,23 6.816,85 16.355,50 30/11/2023
811 331800 EDNA MARCIA CAMILO DA SILVA OFICIAL DO MP SETE LAGOAS - COMARCA; SETE LAGOAS-PJ-SEC CRIMINAIS 12.343,61 3.703,08 0,00 0,00 0,00 0,00 0,00 2.105,00 18.151,69 2.348,42 2.829,93 0,00 277,74 5.456,09 12.695,60 30/11/2023
812 327900 EDRIEL SANTANA PEREIRA OFICIAL DO MP TUPACIGUARA - COMARCA; TUPACIGUARA-PJ-02PJ 12.343,61 3.703,08 0,00 0,00 0,00 0,00 1.470,95 3.055,00 20.572,64 2.348,42 2.882,06 0,00 277,74 5.508,22 15.064,42 30/11/2023
813 482400 EDSON GARCIA OFICIAL DO MP MACHADO - COMARCA; MACHADO-PJ-02PJ 7.506,70 1.501,34 0,00 0,00 0,00 0,00 0,00 2.105,00 11.113,04 1.222,23 1.151,86 0,00 155,91 2.530,00 8.583,04 30/11/2023
814 225601 EDSON LABRE FILHO ANALISTA DO MP VARGINHA - COMARCA; VARGINHA-PJ-01PJ 23.070,31 9.228,12 0,00 0,00 0,00 0,00 6.040,05 2.777,18 41.115,66 5.109,07 6.815,62 0,00 0,00 11.924,69 29.190,97 30/11/2023
815 602700 EDSON NOGUEIRA BUENO OFICIAL DO MP PITANGUI - COMARCA; PITANGUI-PJ-02PJ 7.506,70 1.501,34 0,00 0,00 0,00 0,00 915,82 4.151,56 14.075,42 1.342,34 1.396,25 0,00 250,90 2.989,49 11.085,93 30/11/2023
816 716500 EDUARDA CORREA MOREIRA ASSESSOR ADMINISTRATIVO I BELO HORIZONTE - COMARCA; DIRET DE FORMACAO, APERFEIC. E POS-GRADUACAO 0,00 0,00 4.860,19 0,00 0,00 0,00 0,00 3.055,00 7.915,19 716,33 667,10 0,00 0,00 1.383,43 6.531,76 30/11/2023
817 414400 EDUARDO ABRANTES CAMPOS ANALISTA DO MP SÃO JOÃO DEL REI - COMARCA; SAO JOAO DEL REI-PJ-02PJ 18.720,84 3.744,17 0,00 0,00 0,00 0,00 2.210,14 2.105,00 26.780,15 3.375,35 4.364,70 0,00 0,00 7.740,05 19.040,10 30/11/2023
818 476800 EDUARDO ALVES DE MOURA ANALISTA DO MP UBERLÂNDIA - COMARCA; UBERLANDIA-PJ-01PJ 12.343,61 2.468,72 0,00 0,00 0,00 0,00 1.357,80 3.055,00 19.225,13 982,16 2.611,26 0,00 0,00 3.593,42 15.631,71 30/11/2023
819 390800 EDUARDO AMORIM PETTERSEN OFICIAL DO MP CARANGOLA - COMARCA; CARANGOLA-PJ-SECRETARIA 12.343,61 3.703,08 0,00 0,00 0,00 0,00 1.233,38 2.105,00 19.385,07 2.348,42 2.863,39 0,00 293,45 5.505,26 13.879,81 30/11/2023
820 461600 EDUARDO ANTONIO DE ASSIS FARIA ASSESSOR ADMINISTRATIVO III BELO HORIZONTE - COMARCA; ASSESS EXECUTIVA DO CONSELHO SUPERIOR DO MP 0,00 0,00 10.858,90 0,00 0,00 0,00 995,40 2.105,00 13.959,30 876,95 2.220,44 0,00 0,00 3.097,39 10.861,91 30/11/2023
821 248800 EDUARDO DE CASTRO AMORIM ANALISTA DO MP BELO HORIZONTE - COMARCA; SUPER DE GESTAO DE PESSOAS-LOTACAO TEMPORARIA 23.070,31 9.228,12 0,00 0,00 0,00 0,00 0,00 2.105,00 34.403,43 4.948,70 6.379,07 0,00 935,08 12.262,85 22.140,58 30/11/2023
822 209100 EDUARDO DE SOUZA MAIA ANALISTA DO MP BELO HORIZONTE - COMARCA; SUPER DE GESTAO DE PESSOAS-LOTACAO TEMPORARIA 23.070,31 9.228,12 0,00 0,00 0,00 0,00 2.960,68 2.105,00 37.364,11 4.948,70 6.259,64 0,00 1.477,63 12.685,97 24.678,14 30/11/2023
823 633900 EDUARDO GONCALVES PIRES OFICIAL DO MP BELO HORIZONTE - COMARCA; DIRETORIA DE PAGAMENTO DE PESSOAL-DPAG 9.097,81 3.639,12 0,00 0,00 0,00 0,00 1.060,56 2.105,00 15.902,49 1.818,86 2.117,51 0,00 185,95 4.122,32 11.780,17 30/11/2023
824 350500 EDUARDO GONCALVES RIBEIRO OFICIAL DO MP VESPASIANO - COMARCA; VESPASIANO-PJ-SECRETARIA 12.343,61 3.703,08 3.004,68 0,00 0,00 0,00 1.379,66 2.105,00 22.536,03 2.348,42 3.708,35 0,00 260,50 6.317,27 16.218,76 30/11/2023
825 115800 EDUARDO HENRIQUE DE CAMPOS MAIA OFICIAL DO MP BELO HORIZONTE - COMARCA; DIV FISCAL ADM CONT TERCEIRIZACAO 23.070,31 16.149,22 0,00 0,00 0,00 0,00 3.250,70 2.105,00 44.575,23 5.795,34 7.454,99 1.629,57 898,76 15.778,66 28.796,57 30/11/2023
826 392600 EDUARDO HENRIQUE DOS SANTOS COSTA ELIAZAR OFICIAL DO MP MATOZINHOS - COMARCA; MATOZINHOS-PJ-01PJ 11.212,54 3.363,76 0,00 0,00 0,00 0,00 1.194,49 2.105,00 17.875,79 2.113,16 2.438,13 0,00 225,54 4.776,83 13.098,96 30/11/2023
827 99101 EDUARDO JOSE DE FREITAS NUNES ASSESSOR ADMINISTRATIVO II BELO HORIZONTE - COMARCA; JUNTA RECURSAL DO PROCON ESTADUAL 0,00 3.753,35 7.506,70 0,00 0,00 0,00 0,00 2.105,00 13.365,05 876,95 2.382,89 0,00 0,00 3.259,84 10.105,21 30/11/2023
828 407500 EDUARDO MASCARENHAS CURI AZEVEDO ANALISTA DO MP BELO HORIZONTE - COMARCA; DIR CONTEUDO JORNALISTICO 12.343,61 3.703,08 0,00 0,00 0,00 0,00 1.234,36 3.055,00 20.336,05 2.545,92 3.167,20 0,00 256,38 5.969,50 14.366,55 30/11/2023
829 754700 EDUARDO NOBRE LEITE OFICIAL DO MP MANGA - COMARCA; MANGA-PJ-02PJ 4.570,25 0,00 0,00 0,00 0,00 0,00 0,00 3.159,89 7.730,14 526,88 257,78 0,00 0,00 784,66 6.945,48 30/11/2023
830 752000 EDUARDO SOUZA PRADO JUNIOR OFICIAL DO MP ITAMONTE - COMARCA; ITAMONTE-PJ-UNPJ 4.570,25 0,00 0,00 0,00 0,00 0,00 0,00 2.105,00 6.675,25 526,88 257,78 0,00 0,00 784,66 5.890,59 30/11/2023
831 257600 EDUARDO VALADARES CABRAL ANALISTA DO MP BELO HORIZONTE - COMARCA; COORD DE INCLUSAO E MOBILIZACAO SOCIAIS 23.070,31 9.228,12 0,00 0,00 0,00 0,00 0,00 2.105,00 34.403,43 4.948,70 6.276,06 0,00 1.309,65 12.534,41 21.869,02 30/11/2023
832 746800 EDUARDO XAVIER ARAUJO OFICIAL DO MP RIBEIRÃO DAS NEVES - COMARCA; RIBEIRAO DAS NEVES-PJ-02PJ 4.570,25 0,00 0,00 0,00 0,00 0,00 0,00 2.105,00 6.675,25 526,88 257,78 0,00 0,00 784,66 5.890,59 30/11/2023
833 545700 EDVAIR FERREIRA DE CARVALHO OFICIAL DO MP ARAGUARI - COMARCA; ARAGUARI-PJ-06PJ 7.506,70 1.501,34 0,00 0,00 0,00 0,00 756,93 2.105,00 11.869,97 1.222,23 1.204,00 0,00 142,92 2.569,15 9.300,82 30/11/2023
834 401700 EDWANIA AMORIM DO CARMO OFICIAL DO MP BELO HORIZONTE - COMARCA; BH-12PJ JUIZO CRIMINAL-SECRETARIA 12.343,61 3.703,08 0,00 0,00 0,00 0,00 1.357,80 2.105,00 19.509,49 2.348,42 2.822,35 0,00 217,16 5.387,93 14.121,56 30/11/2023
835 303600 EFIGENIO SARAIVA LOPES ANALISTA DO MP BELO HORIZONTE - COMARCA; DIRETORIA DE PAGAMENTO DE PESSOAL-DPAG 23.070,31 6.921,09 5.538,92 0,00 0,00 0,00 3.250,70 2.105,00 40.886,02 4.579,57 7.428,30 0,00 341,55 12.349,42 28.536,60 30/11/2023
836 286000 ELAINE APARECIDA SILVA BERZOINI OFICIAL DO MP JUIZ DE FORA - COMARCA; JUIZ DE FORA-PJ-07PJ 12.343,61 3.703,08 0,00 0,00 0,00 0,00 882,57 2.105,00 19.034,26 2.348,42 2.882,06 0,00 277,74 5.508,22 13.526,04 30/11/2023
837 509000 ELAINE CANDIDA PONTES OFICIAL DO MP BELO HORIZONTE - COMARCA; BH-02PJ FAMILIA-SECRETARIA 10.516,49 2.103,30 0,00 0,00 0,00 0,00 682,56 2.105,00 15.407,35 1.800,11 2.073,23 0,00 270,65 4.143,99 11.263,36 30/11/2023
838 283601 ELAINE CRISTINA MEQUELINO DUARTE ANALISTA DO MP ALFENAS - COMARCA; ALFENAS-PJ-02PJ 20.533,67 7.392,12 0,00 0,00 0,00 0,00 2.059,29 2.105,00 32.090,08 4.249,07 5.490,71 0,00 113,30 9.853,08 22.237,00 30/11/2023
839 535500 ELAINE DE OLIVEIRA CAMPOS REIS OFICIAL DO MP SANTA LUZIA - COMARCA; SANTA LUZIA-PJ-SECRETARIA 7.506,70 1.501,34 0,00 0,00 0,00 0,00 302,77 2.105,00 11.415,81 1.222,23 1.256,14 0,00 142,92 2.621,29 8.794,52 30/11/2023
840 455700 ELAINE DE OLIVEIRA CASTRO ANALISTA DO MP POMPÉU - COMARCA; POMPEU-PJ-UNPJ 12.343,61 2.468,72 0,00 0,00 0,00 0,00 0,00 3.055,00 17.867,33 2.150,92 2.492,65 0,00 256,38 4.899,95 12.967,38 30/11/2023
841 367200 ELAINE MUNIZ BARBOSA ANALISTA DO MP BELO HORIZONTE - COMARCA; DIRETORIA DE SISTEMAS DE INFORMACAO 21.346,53 6.403,96 0,00 0,00 0,00 0,00 0,00 3.055,00 30.805,49 4.221,03 5.533,50 0,00 0,00 9.754,53 21.050,96 30/11/2023
842 679200 ELAINE RIBEIRO CHAVES ASSESSOR PROCURADOR JUSTICA BELO HORIZONTE - COMARCA; GABINETE DE PROCURADOR DE JUSTIÇA - SALA 614 0,00 0,00 8.810,89 0,00 0,00 0,00 0,00 2.105,00 10.915,89 876,95 1.657,24 0,00 0,00 2.534,19 8.381,70 30/11/2023
843 176900 ELAINE RIBEIRO TAVEIRA OFICIAL DO MP BELO HORIZONTE - COMARCA; DIVISAO FROTA 18.720,84 7.488,34 0,00 0,00 0,00 0,00 2.182,36 2.105,00 30.496,54 3.974,42 5.229,60 0,00 0,00 9.204,02 21.292,52 30/11/2023
844 496200 ELAINE SABRINA MOREIRA SCHUWARTEN ANALISTA DO MP CORONEL FABRICIANO - COMARCA; CORONEL FABRICIANO-PJ-SECRETARIA 14.960,00 2.992,00 0,00 0,00 0,00 0,00 0,00 2.105,00 20.057,00 2.653,27 3.322,19 0,00 282,24 6.257,70 13.799,30 30/11/2023
845 489200 ELAINE VICENTINO ANALISTA DO MP BELO HORIZONTE - COMARCA; CENTRAL DE APOIO TECNICO-SETOR CONTABIL 12.343,61 4.937,44 0,00 0,00 0,00 0,00 950,45 2.105,00 20.336,50 2.545,92 3.062,93 0,00 0,00 5.608,85 14.727,65 30/11/2023
846 731400 ELBERT MENDES PINHEIRO ASSESSOR PROMOTOR JUSTICA BELO HORIZONTE - COMARCA; COORD ESTADUAL DAS PJS DE HAB. E URBANISMO 0,00 0,00 8.810,89 0,00 2.936,96 0,00 0,00 2.105,00 13.852,85 876,95 2.517,04 0,00 0,00 3.393,99 10.458,86 30/11/2023
847 244500 ELCI ALVES DE SOUZA ASSESSOR ADMINISTRATIVO II BELO HORIZONTE - COMARCA; CAO-CONFLITOS AGRARIOS-SECRETARIA 0,00 3.002,68 7.506,70 0,00 0,00 0,00 0,00 2.105,00 12.614,38 876,95 2.124,32 0,00 0,00 3.001,27 9.613,11 30/11/2023
848 472500 ELCI VAZ DE OLIVEIRA FILHO ANALISTA DO MP PIUMHI - COMARCA; PIUMHI-PJ-02PJ 12.343,61 6.171,81 0,00 0,00 0,00 0,00 0,00 2.105,00 20.620,42 2.743,42 3.452,34 0,00 320,48 6.516,24 14.104,18 30/11/2023
849 385200 ELCI VIANA REIS OFICIAL DO MP RIO PARDO DE MINAS - COMARCA; RIO PARDO DE MINAS-PJ-SECRETARIA 12.343,61 6.171,81 0,00 0,00 0,00 0,00 1.697,25 2.105,00 22.317,67 2.743,42 3.452,34 0,00 0,00 6.195,76 16.121,91 30/11/2023
850 289801 ELCIO JOSE DOS SANTOS ANALISTA DO MP BELO HORIZONTE - COMARCA; DIVISAO DE TERCEIRIZACAO 12.343,61 3.703,08 5.538,92 0,00 0,00 0,00 0,00 2.105,00 23.690,61 2.348,42 4.405,27 0,00 256,38 7.010,07 16.680,54 30/11/2023
851 319600 ELEN TULER DE ALBERGARIA ANALISTA DO MP BELO HORIZONTE - COMARCA; BH-19PJ SAUDE-SECRETARIA 130PJ 23.070,31 11.535,16 0,00 0,00 0,00 0,00 2.960,69 2.105,00 39.671,16 5.317,82 6.795,33 0,00 1.846,75 13.959,90 25.711,26 30/11/2023
852 205500 ELIANA ALVES DE SOUSA OFICIAL DO MP GOVERNADOR VALADARES - COMARCA; GOVERNADOR VALADARES-PJ-07PJ 12.343,61 4.937,44 0,00 0,00 0,00 0,00 0,00 2.105,00 19.386,05 2.545,92 3.167,20 0,00 299,11 6.012,23 13.373,82 30/11/2023
853 628800 ELIANA APARECIDA PEREIRA ANALISTA DO MP EXTREMA - COMARCA; EXTREMA-PJ-01PJ 11.577,56 1.157,76 0,00 0,00 0,00 0,00 0,00 2.105,00 14.840,32 1.818,60 2.056,54 0,00 227,66 4.102,80 10.737,52 30/11/2023
854 301700 ELIANA DA SILVEIRA ANALISTA DO MP BELO HORIZONTE - COMARCA; BH-11PJ COMB CRIME ORGANIZ-GAB 081PJ 22.191,68 6.657,50 0,00 0,00 0,00 0,00 0,00 2.105,00 30.954,18 4.396,82 5.702,56 0,00 497,75 10.597,13 20.357,05 30/11/2023
855 251500 ELIANA DE LIMA MILAGRES FONSECA ANALISTA DO MP CONTAGEM - COMARCA; CONTAGEM-PJ-16PJ 23.070,31 9.228,12 0,00 0,00 0,00 0,00 2.960,68 2.105,00 37.364,11 4.948,70 6.230,49 0,00 1.285,76 12.464,95 24.899,16 30/11/2023
856 503900 ELIANA DIAS DUTRA FERREIRA OFICIAL DO MP BELO HORIZONTE - COMARCA; DIRETORIA DE CONTABILIDADE 10.858,90 2.171,78 0,00 0,00 0,00 0,00 0,00 2.105,00 15.135,68 1.865,86 2.090,11 0,00 358,28 4.314,25 10.821,43 30/11/2023
857 413900 ELIANA PINTO DE OLIVEIRA NEVES ANALISTA DO MP CAMPO BELO - COMARCA; CAMPO BELO-PJ-04PJ 18.130,77 5.439,23 0,00 0,00 0,00 0,00 3.744,58 2.105,00 29.419,58 3.842,24 4.953,81 0,00 308,96 9.105,01 20.314,57 30/11/2023
858 228200 ELIANA RODRIGUES DA CUNHA PINHEIRO OFICIAL DO MP BELO HORIZONTE - COMARCA; DIRETORIA DE PROJETOS DE EDIFICACOES 18.130,77 7.252,31 0,00 341,85 858,95 5.358,65 12.559,49 4.046,29 48.548,31 5.171,13 8.615,63 0,00 0,00 13.786,76 34.761,55 30/11/2023
859 386600 ELIANA SABINO CHAVES PESSOA ANALISTA DO MP CARATINGA - COMARCA; CARATINGA-PJ-06PJ 18.130,77 12.691,55 0,00 0,00 0,00 4.845,47 3.256,19 2.105,00 41.028,98 4.712,52 7.539,04 0,00 132,95 12.384,51 28.644,47 30/11/2023
860 677500 ELIANA SILVA ANDRADE ASSESSOR PROMOTOR JUSTICA TRÊS CORACOES - COMARCA; TRES CORACOES-PJ-06PJ 0,00 0,00 8.810,89 0,00 0,00 0,00 807,66 2.105,00 11.723,55 876,95 1.709,37 0,00 0,00 2.586,32 9.137,23 30/11/2023
861 297400 ELIANE AUGUSTA RIBEIRO COSTA ANALISTA DO MP CONSELHEIRO LAFAIETE - COMARCA; CONSELHEIRO LAFAIETE-PJ-05PJ 23.070,31 6.921,09 0,00 0,00 0,00 0,00 1.099,69 2.105,00 33.196,09 4.579,57 5.762,34 0,00 860,66 11.202,57 21.993,52 30/11/2023
862 510600 ELIANE CAROLINA MAIA ANALISTA DO MP IGARAPÉ - COMARCA; IGARAPE-PJ-03PJ 12.343,61 3.703,08 0,00 0,00 0,00 0,00 1.357,79 2.105,00 19.509,48 2.348,42 2.725,65 0,00 256,38 5.330,45 14.179,03 30/11/2023
863 262600 ELIANE FERREIRA SOARES ASSESSOR ADMINISTRATIVO II BELO HORIZONTE - COMARCA; BH-18PJ DIREITOS HUMANOS-SECRETARIA 0,00 3.753,35 7.506,70 0,00 0,00 0,00 0,00 2.105,00 13.365,05 876,95 2.382,89 0,00 0,00 3.259,84 10.105,21 30/11/2023
864 204400 ELIANE GLAUCE DE QUEIROS MAIA OFICIAL DO MP GUANHÃES - COMARCA; GUANHAES-PJ-02PJ 21.346,53 8.538,61 0,00 0,00 0,00 0,00 2.477,17 2.726,96 35.089,27 4.632,44 6.067,95 0,00 406,08 11.106,47 23.982,80 30/11/2023
865 91800 ELIANE KAPLER ALVES OFICIAL DO MP BELO HORIZONTE - COMARCA; DIVISAO DE CONTROLE IMOBILIARIO 23.070,31 16.149,22 0,00 77,67 0,00 6.343,40 1.950,42 2.105,00 49.696,02 5.795,34 9.348,00 1.629,57 625,73 17.398,64 32.297,38 30/11/2023
866 334200 ELIANE MARCIA DE OLIVEIRA BRITO OFICIAL DO MP BELO HORIZONTE - COMARCA; BH-08PJ JUIZADO ESPECIAL-SECRETARIA 7.506,70 2.252,01 0,00 0,00 0,00 0,00 0,00 2.105,00 11.863,71 1.342,34 1.429,54 0,00 168,91 2.940,79 8.922,92 30/11/2023
867 365900 ELIANE MARIA DE OLIVEIRA FERREIRA OFICIAL DO MP SETE LAGOAS - COMARCA; SETE LAGOAS-PJ-SEC CRIMINAIS 12.343,61 8.640,53 0,00 0,00 6.994,71 0,00 0,00 2.105,00 30.083,85 3.138,41 5.946,16 0,00 320,48 9.405,05 20.678,80 30/11/2023
868 320600 ELIANE STADLER DE SOUZA OFICIAL DO MP MONTES CLAROS - COMARCA; MONTES CLAROS-PJ-13PJ 11.954,43 3.586,33 0,00 0,00 0,00 0,00 0,00 2.105,00 17.645,76 2.267,47 2.713,06 0,00 260,50 5.241,03 12.404,73 30/11/2023
869 448900 ELIAS PEREIRA OTONI ASSESSOR ADMINISTRATIVO II BELO HORIZONTE - COMARCA; BH-18PJ DIREITOS HUMANOS-SECRETARIA 0,00 0,00 7.506,70 0,00 0,00 0,00 0,00 2.105,00 9.611,70 876,95 1.246,45 0,00 0,00 2.123,40 7.488,30 30/11/2023
870 495400 ELICA SOUZA GASPARONI MATTOS OFICIAL DO MP UBÁ - COMARCA; UBA-PJ-06PJ 10.858,90 2.171,78 0,00 0,00 0,00 0,00 1.156,82 2.105,00 16.292,50 1.865,86 2.142,24 0,00 358,29 4.366,39 11.926,11 30/11/2023
871 86600 ELIENE FERREIRA DA SILVA OFICIAL DO MP BELO HORIZONTE - COMARCA; BH-22PJ PES COM DEF E IDOSOS-SECRETARIA 25.920,35 20.736,29 0,00 0,00 0,00 5.795,34 3.751,86 2.105,00 58.308,84 5.795,34 9.295,87 9.066,68 0,00 24.157,89 34.150,95 30/11/2023
872 183800 ELIENE MARIA CUNHA OFICIAL DO MP BELO HORIZONTE - COMARCA; DIRETORIA DE PESSOAL ADMINISTRATIVO - DPAD 22.191,68 8.876,67 0,00 0,00 0,00 0,00 2.739,45 2.105,00 35.912,80 4.751,88 6.167,54 0,00 481,42 11.400,84 24.511,96 30/11/2023
873 172300 ELINA APARECIDA SILVA ASSESSOR ADMINISTRATIVO I BELO HORIZONTE - COMARCA; BH-19PJ SAUDE-SECRETARIA 130PJ 0,00 1.949,08 4.872,71 0,00 0,00 0,00 0,00 2.105,00 8.926,79 876,95 1.110,23 0,00 0,00 1.987,18 6.939,61 30/11/2023
874 492501 ELINE CAMPOS DA FONSECA CUNHA ANALISTA DO MP PONTE NOVA - COMARCA; PONTE NOVA-PJ-05PJ 12.343,61 2.468,72 0,00 0,00 0,00 0,00 1.357,79 2.105,00 18.275,12 2.150,92 2.596,93 0,00 256,38 5.004,23 13.270,89 30/11/2023
875 618900 ELISA MOURA VIEIRA MARCATTI OFICIAL DO MP BELO HORIZONTE - COMARCA; GRUPO ESP PROM JUST DEF PROB ADM PAT PUB 7.506,70 750,67 0,00 0,00 0,00 0,00 0,00 3.055,00 11.312,37 1.096,97 1.082,73 0,00 142,92 2.322,62 8.989,75 30/11/2023
876 256500 ELISABETE NOGUEIRA ANALISTA DO MP RIBEIRÃO DAS NEVES - COMARCA; RIBEIRAO NEVES-SEC PJ EXECUCAO PENAL 18.720,84 9.360,42 0,00 0,00 0,00 0,00 0,00 2.105,00 30.186,26 4.273,95 5.453,50 0,00 486,05 10.213,50 19.972,76 30/11/2023
877 355000 ELISANGELA DARLANTONI RIBEIRO OFICIAL DO MP ARAXÁ - COMARCA; ARAXA-PJ-05PJ 12.343,61 3.703,08 0,00 0,00 0,00 0,00 1.424,58 2.105,00 19.576,27 2.348,42 2.808,37 0,00 338,90 5.495,69 14.080,58 30/11/2023
878 604400 ELISANGELA DEMASI FERREIRA MOREIRA ANALISTA DO MP CABO VERDE - COMARCA; CABO VERDE-PJ-UNPJ 12.343,61 1.234,36 0,00 0,00 0,00 0,00 1.448,18 2.105,00 17.131,15 982,16 2.453,68 0,00 0,00 3.435,84 13.695,31 30/11/2023
879 323800 ELISANGELA GONCALVES DE JESUS OFICIAL DO MP BELO HORIZONTE - COMARCA; DIRETORIA DE PESSOAL ADMINISTRATIVO - DPAD 12.343,61 3.703,08 0,00 0,00 0,00 0,00 1.470,95 2.105,00 19.622,64 2.348,42 2.829,93 0,00 277,74 5.456,09 14.166,55 30/11/2023
880 507400 ELISANGELA MIGUEL DA ROCHA SILVA ASSESSOR ADMINISTRATIVO II BELO HORIZONTE - COMARCA; CGMP-DIR INSP CORR PROCED PROC DISC 0,00 0,00 7.506,70 0,00 0,00 0,00 688,12 2.105,00 10.299,82 876,95 1.298,58 0,00 0,00 2.175,53 8.124,29 30/11/2023
881 261400 ELISANGELA REZENDE MENDES OFICIAL DO MP POUSO ALEGRE - COMARCA; POUSO ALEGRE-PJ-05PJ 12.343,61 4.937,44 0,00 0,00 0,00 0,00 1.470,96 2.105,00 20.857,01 2.545,92 3.167,20 0,00 277,74 5.990,86 14.866,15 30/11/2023
882 534100 ELISANGELA ROSINE SILVA OFICIAL DO MP UBERABA - COMARCA; UBERABA-PJ-06PJ 7.506,70 1.501,34 0,00 0,00 0,00 0,00 756,94 2.105,00 11.869,98 1.222,23 1.256,14 0,00 142,92 2.621,29 9.248,69 30/11/2023
883 634300 ELIUDE GRACA DAMASIO ROSARIO FRANCELINO OFICIAL DO MP BELO HORIZONTE - COMARCA; BH-18PJ VIOLENCIA DOMESTICA-SECRETARIA 6.818,83 681,88 0,00 0,00 0,00 0,00 0,00 4.005,00 11.505,71 981,10 907,93 0,00 122,69 2.011,72 9.493,99 30/11/2023
884 461700 ELIZABETH ALEIXO DA PAZ ANALISTA DO MP JUIZ DE FORA - COMARCA; JUIZ DE FORA-PJ-18PJ 12.343,61 2.468,72 0,00 0,00 0,00 0,00 1.357,79 2.105,00 18.275,12 2.150,92 2.596,93 0,00 256,38 5.004,23 13.270,89 30/11/2023
885 227300 ELIZABETH COIMBRA FELIX OFICIAL DO MP JABOTICATUBAS - COMARCA; JABOTICATUBAS-PJ-UNPJ 18.720,84 9.360,42 0,00 0,00 0,00 0,00 2.492,99 2.105,00 32.679,25 4.273,95 5.557,78 0,00 0,00 9.831,73 22.847,52 30/11/2023
886 354800 ELIZABETH DOS REIS OFICIAL DO MP BELO HORIZONTE - COMARCA; DIVISAO DE MATERIAIS 12.343,61 3.703,08 0,00 0,00 0,00 0,00 0,00 2.105,00 18.151,69 2.348,42 2.829,93 0,00 277,74 5.456,09 12.695,60 30/11/2023
887 612000 ELIZABETH MARIA DE QUEIROZ TANIGUCHI OFICIAL DO MP BELO HORIZONTE - COMARCA; SUPERINTENDENCIA GESTÃO DE PESSOAS 7.506,70 750,67 0,00 0,00 0,00 0,00 0,00 2.105,00 10.362,37 1.102,13 1.082,73 0,00 127,83 2.312,69 8.049,68 30/11/2023
888 452800 ELIZANGELA MARIA DAVI OFICIAL DO MP ARCOS - COMARCA; ARCOS-PJ-01PJ 7.506,70 1.501,34 0,00 0,00 0,00 0,00 0,00 2.105,00 11.113,04 1.222,23 1.204,00 0,00 155,91 2.582,14 8.530,90 30/11/2023
889 496300 ELIZANGELA MARQUES PINTO COELHO OFICIAL DO MP BELO HORIZONTE - COMARCA; DIRETORIA DE PESSOAL ADMINISTRATIVO - DPAD 10.858,90 2.171,78 0,00 0,00 0,00 0,00 1.156,82 2.105,00 16.292,50 1.865,86 2.142,24 0,00 261,16 4.269,26 12.023,24 30/11/2023
890 422500 ELIZETE FORTES DA CUNHA ANALISTA DO MP RIBEIRÃO DAS NEVES - COMARCA; RIBEIRAO DAS NEVES-PJ-07PJ 18.720,84 3.744,17 0,00 0,00 0,00 0,00 1.994,39 2.105,00 26.564,40 3.375,35 4.282,37 0,00 109,78 7.767,50 18.796,90 30/11/2023
891 506100 ELLEM CRISTINA ROCHA FONSECA BOWEN ANALISTA DO MP GOVERNADOR VALADARES - COMARCA; COORD REG PJ DEF EDU DIR CRIANCA ADOL RIODOCE 12.343,61 2.468,72 0,00 0,00 0,00 0,00 0,00 3.055,00 17.867,33 2.150,92 2.596,93 0,00 256,38 5.004,23 12.863,10 30/11/2023
892 468200 ELLEN CRISTINA BERNARDES DARE ANALISTA DO MP TRÊS PONTAS - COMARCA; TRES PONTAS-PJ-02PJ 12.343,61 2.468,72 0,00 0,00 0,00 0,00 1.357,80 3.055,00 19.225,13 2.150,92 2.544,79 0,00 256,38 4.952,09 14.273,04 30/11/2023
893 418800 ELLEN CRISTINA DE QUEIROZ FERREIRA ANALISTA DO MP BELO HORIZONTE - COMARCA; CENTRAL DE APOIO TECNICO-SETOR CONTABIL 18.130,77 3.626,15 0,00 0,00 0,00 0,00 1.931,50 3.530,00 27.218,42 982,16 4.534,20 0,00 0,00 5.516,36 21.702,06 30/11/2023
894 328401 ELLEN CRISTINA FERREIRA MORAIS MONTEIRO ANALISTA DO MP CAMANDUCAIA - COMARCA; CAMANDUCAIA-PJ-UNPJ 18.130,77 6.527,08 0,00 0,00 0,00 0,00 1.813,08 2.105,00 28.575,93 4.016,30 5.185,79 0,00 0,00 9.202,09 19.373,84 30/11/2023
895 556100 ELLEN CRISTINE BIANCHIN DA SILVA OFICIAL DO MP SÃO GONÇALO DO SAPUCAÍ - COMARCA; SAO GONCALO DO SAPUCAI-PJ-02PJ 7.506,70 1.501,34 0,00 0,00 0,00 0,00 0,00 2.105,00 11.113,04 1.217,43 1.204,00 0,00 142,92 2.564,35 8.548,69 30/11/2023
896 714500 ELLEN PROENCA CARVALHO DE ARAUJO ASSESSOR PROMOTOR JUSTICA MARIANA - COMARCA; MARIANA-PJ-02PJ 0,00 0,00 8.810,89 0,00 0,00 0,00 0,00 2.105,00 10.915,89 876,95 1.709,37 0,00 0,00 2.586,32 8.329,57 30/11/2023
897 447100 ELLEN ROSANA DE MACEDO BORGES OFICIAL DO MP UBERLÂNDIA - COMARCA; UBERLANDIA-PJ-17PJ 11.212,54 2.242,51 0,00 0,00 0,00 0,00 1.194,48 2.105,00 16.754,53 1.933,76 2.283,39 0,00 225,54 4.442,69 12.311,84 30/11/2023
898 477700 ELMA JACOB OFICIAL DO MP BELO HORIZONTE - COMARCA; COORD DE GABINETE DO PGJ 10.858,90 8.687,12 0,00 0,00 0,00 2.908,31 0,00 2.105,00 24.559,33 2.908,31 4.490,20 0,00 0,00 7.398,51 17.160,82 30/11/2023
899 123300 ELMA PAULA DOS SANTOS COELHO OFICIAL DO MP BELO HORIZONTE - COMARCA; BH-19PJ SAUDE-SECRETARIA 130PJ 23.070,31 23.070,31 0,00 0,00 0,00 5.795,34 0,00 2.105,00 54.040,96 5.795,34 9.452,28 8.550,66 0,00 23.798,28 30.242,68 30/11/2023
900 728200 ELMITA XISTO DO VALLE ASSESSOR ADMINISTRATIVO I BELO HORIZONTE - COMARCA; DIRET DE FORMACAO, APERFEIC. E POS-GRADUACAO 0,00 0,00 4.872,71 0,00 0,00 0,00 446,67 2.105,00 7.424,38 718,08 670,06 0,00 0,00 1.388,14 6.036,24 30/11/2023
901 356500 ELOISA CARDOSO SILVA FRANCA OFICIAL DO MP PEÇANHA - COMARCA; PECANHA-PJ-SECRETARIA 7.506,70 2.252,01 0,00 0,00 0,00 0,00 0,00 2.105,00 11.863,71 1.342,34 1.377,40 0,00 168,91 2.888,65 8.975,06 30/11/2023
902 251901 ELOISA COSTA E SILVA ANALISTA DO MP BELO HORIZONTE - COMARCA; CENT ESTAD COOPERACAO TECNICO-JURIDICA 12.343,61 4.937,44 0,00 0,00 0,00 0,00 0,00 2.105,00 19.386,05 2.545,92 3.115,06 0,00 277,75 5.938,73 13.447,32 30/11/2023
903 400400 ELOIZA MARIA FERRI PIRES DA SILVA OFICIAL DO MP BELO HORIZONTE - COMARCA; ASSESSORIA DE COMUNICACAO INTEGRADA 11.212,54 3.363,76 4.020,58 0,00 0,00 0,00 1.739,99 8.056,00 28.392,87 2.113,16 3.629,98 0,00 284,16 6.027,30 22.365,57 30/11/2023
904 258000 ELSO CECIANO PALMEIRA OFICIAL DO MP BELO HORIZONTE - COMARCA; DIRET DE PESSOAL DO MINISTERIO PUBLICO - DPMP 17.559,01 14.047,21 5.928,90 0,00 0,00 0,00 3.029,01 2.105,00 42.669,13 4.837,94 8.106,76 0,00 0,00 12.944,70 29.724,43 30/11/2023
905 206900 ELVIRA RITA DOS SANTOS ANALISTA DO MP BELO HORIZONTE - COMARCA; CENTRAL DE APOIO TECNICO-SETOR CONTABIL 23.070,31 9.228,12 0,00 0,00 0,00 5.956,99 0,00 -1.770,81 36.484,61 4.948,70 7.997,11 0,00 2.011,85 14.957,66 21.526,95 30/11/2023
906 506800 ELVIS FERREIRA DA SILVA ANALISTA DO MP BELO HORIZONTE - COMARCA; DIRETORIA DE SISTEMAS DE INFORMACAO 12.343,61 2.468,72 0,00 0,00 0,00 0,00 1.357,79 3.055,00 19.225,12 2.150,92 2.440,52 0,00 256,38 4.847,82 14.377,30 30/11/2023
907 602400 ELZA MARIA MOREIRA MUNIZ ANALISTA DO MP RIO PARANAÍBA - COMARCA; RIO PARANAIBA-PJ-UNPJ 12.343,61 3.703,08 0,00 0,00 0,00 0,00 0,00 2.105,00 18.151,69 2.348,42 2.777,79 0,00 235,01 5.361,22 12.790,47 30/11/2023
908 368401 ELZIRA SIMOES DOS SANTOS ASSESSOR DE GABINETE I BELO HORIZONTE - COMARCA; ASSESSORIA DE COMUNICACAO INTEGRADA 0,00 7.252,31 18.130,77 0,00 0,00 0,00 0,00 2.105,00 27.488,08 876,95 6.266,73 0,00 0,00 7.143,68 20.344,40 30/11/2023
909 437400 EMANOELLE DA SILVA RODRIGUES OFICIAL DO MP UNAÍ - COMARCA; UNAI-PJ-03PJ 10.341,72 2.068,34 0,00 0,00 0,00 0,00 1.101,73 3.055,00 16.566,79 1.766,56 1.989,87 0,00 208,02 3.964,45 12.602,34 30/11/2023
910 458900 EMANUELLE CONRAD SILVA FREDERICO NAVES ANALISTA DO MP ALFENAS - COMARCA; ALFENAS-PJ-05PJ 18.130,77 3.626,15 0,00 0,00 0,00 0,00 772,60 3.055,00 25.584,52 3.262,06 4.064,03 0,00 308,96 7.635,05 17.949,47 30/11/2023
911 284100 EMERSON MAGNO ALMEIDA PEDROSA DA FONSECA ANALISTA DO MP BELO HORIZONTE - COMARCA; CENTRAL DE APOIO TECNICO-SETOR CONTABIL 23.070,31 6.921,09 0,00 0,00 0,00 0,00 0,00 3.055,00 33.046,40 4.579,57 4.337,28 0,00 541,95 9.458,80 23.587,60 30/11/2023
912 179900 EMERSON MORAIS DIAS OFICIAL DO MP BELO HORIZONTE - COMARCA; SUPERINTENDÊNCIA DE ENGENHARIA E ARQUITETURA 22.191,68 11.095,84 0,00 0,00 0,00 0,00 3.035,82 2.105,00 38.428,34 5.106,95 6.737,55 0,00 462,35 12.306,85 26.121,49 30/11/2023
913 488700 EMERSON SIQUEIRA DE SOUSA TEIXEIRA ANALISTA DO MP ITANHOMI - COMARCA; ITANHOMI-PJ-UNPJ 12.343,61 3.209,34 0,00 0,00 0,00 0,00 1.357,79 2.105,00 19.015,74 2.269,42 2.611,60 0,00 256,38 5.137,40 13.878,34 30/11/2023
914 194200 EMILIA ALVES FERREIRA RAMOS OFICIAL DO MP UBERLÂNDIA - COMARCA; UBERLANDIA-PJ-SEC CIVEIS CRIMINAIS 15.447,01 6.178,80 0,00 0,00 0,00 0,00 1.919,87 2.105,00 25.650,68 3.241,08 4.086,39 0,00 307,11 7.634,58 18.016,10 30/11/2023
915 679500 EMILY DIAS LEMOS E SILVA ASSESSOR PROCURADOR JUSTICA BELO HORIZONTE - COMARCA; GABINETE DE PROCURADOR DE JUSTIÇA - SALA 307 0,00 0,00 8.810,89 0,00 0,00 0,00 0,00 3.055,00 11.865,89 876,95 1.605,10 0,00 0,00 2.482,05 9.383,84 30/11/2023
916 620700 EMILY FONTANA DE SIQUEIRA ANALISTA DO MP BELO HORIZONTE - COMARCA; BH-18PJ VIOLENCIA DOMESTICA-SECRETARIA 12.343,61 1.234,36 0,00 0,00 0,00 0,00 0,00 3.055,00 16.632,97 1.953,42 2.259,65 0,00 220,43 4.433,50 12.199,47 30/11/2023
917 755400 EMMANUELLE PINHEIRO PAIVA QUINTAS ASSESSOR PROMOTOR JUSTICA SABARÁ - COMARCA; SABARA-PJ-03PJ 0,00 0,00 8.810,89 0,00 0,00 0,00 0,00 2.105,00 10.915,89 876,95 1.709,37 0,00 0,00 2.586,32 8.329,57 30/11/2023
918 297000 ENEIDA SOARES COSTA MELO ANALISTA DO MP PIUMHI - COMARCA; PIUMHI-PJ-01PJ 23.070,31 6.921,09 0,00 0,00 0,00 0,00 0,00 2.105,00 32.096,40 4.579,57 5.921,30 0,00 661,79 11.162,66 20.933,74 30/11/2023
919 276000 ENEZIO RODRIGUES DE SOUZA FILHO OFICIAL DO MP UBERLÂNDIA - COMARCA; UBERLANDIA-PJ-10PJ 12.343,61 4.937,44 0,00 0,00 0,00 0,00 0,00 2.105,00 19.386,05 2.545,92 3.167,20 0,00 277,74 5.990,86 13.395,19 30/11/2023
920 387700 ENI MARIA DOS REIS OFICIAL DO MP POUSO ALEGRE - COMARCA; POUSO ALEGRE-PJ-07PJ 12.343,61 3.703,08 0,00 0,00 0,00 0,00 2.000,49 7.881,81 25.928,99 2.348,42 2.822,34 0,00 217,17 5.387,93 20.541,06 30/11/2023
921 605100 ENIA MAIA ASSESSOR ADMINISTRATIVO IV BELO HORIZONTE - COMARCA; DIRETORIA DE ORCAMENTO-DIOR/SPC 14.488,22 1.448,82 0,00 0,00 0,00 0,00 1.460,91 2.105,00 19.502,95 1.102,13 3.194,64 0,00 142,92 4.439,69 15.063,26 30/11/2023
922 612200 ENILDO GOMES MEIRA FILHO ANALISTA DO MP BELO HORIZONTE - COMARCA; BH-23PJ INFRACIONAL-ASS JURIDICA 12.343,61 1.234,36 0,00 0,00 0,00 0,00 3.960,59 3.055,00 20.593,56 2.400,33 2.800,60 0,00 220,43 5.421,36 15.172,20 30/11/2023
923 553700 ENIVALDO NOVATO PUBLIO ANALISTA DO MP DIVINÓPOLIS - COMARCA; DIVINOPOLIS-PJ-09PJ 12.343,61 2.468,72 0,00 0,00 0,00 0,00 0,00 2.105,00 16.917,33 2.150,92 2.544,79 0,00 235,01 4.930,72 11.986,61 30/11/2023
924 680600 ENZO JOSE FERES SOUZA JABER ASSESSOR PROMOTOR JUSTICA ARAÇUAÍ - COMARCA; ARACUAI-PJ-02PJ 0,00 0,00 8.810,89 0,00 0,00 0,00 0,00 2.105,00 10.915,89 876,95 1.709,37 0,00 0,00 2.586,32 8.329,57 30/11/2023
925 417300 ERIC BARATTI DA SILVA ANALISTA DO MP BELO HORIZONTE - COMARCA; SUPER DE GESTAO DE PESSOAS-LOTACAO TEMPORARIA 13.588,97 2.717,79 0,00 0,00 0,00 0,00 0,00 3.055,00 19.361,76 2.390,03 2.919,52 0,00 355,61 5.665,16 13.696,60 30/11/2023
926 637600 ERIC DA ROCHA CHEHUEN ANALISTA DO MP LIMA DUARTE - COMARCA; LIMA DUARTE-PJ-UNPJ 11.577,56 1.157,76 0,00 0,00 0,00 0,00 0,00 2.105,00 14.840,32 982,16 2.347,16 0,00 0,00 3.329,32 11.511,00 30/11/2023
927 398900 ERIC TEIXEIRA SILVA OFICIAL DO MP UBERLÂNDIA - COMARCA; UBERLANDIA-PJ-SEC CIVEIS CRIMINAIS 12.343,61 3.703,08 0,00 0,00 0,00 0,00 0,00 2.105,00 18.151,69 2.348,42 2.862,17 0,00 312,83 5.523,42 12.628,27 30/11/2023
928 751300 ERIC VINICIUS PONTES ALLGAYER OFICIAL DO MP RIO VERMELHO - COMARCA; RIO VERMELHO-PJ-UNPJ 4.570,25 0,00 0,00 0,00 0,00 0,00 0,00 2.105,00 6.675,25 526,88 257,78 0,00 0,00 784,66 5.890,59 30/11/2023
929 754300 ERICA APARECIDA FERREIRA OFICIAL DO MP BARÃO DE COCAIS - COMARCA; BARAO DE COCAIS-PJ-UNPJ 4.570,25 0,00 0,00 0,00 0,00 0,00 0,00 2.193,08 6.763,33 526,88 257,78 0,00 0,00 784,66 5.978,67 30/11/2023
930 703600 ERICA CORDEIRO SANTOS ASSESSOR PROMOTOR JUSTICA MINAS NOVAS - COMARCA; MINAS NOVAS-PJ-UNPJ 0,00 0,00 8.810,89 0,00 0,00 0,00 0,00 2.105,00 10.915,89 876,95 1.709,37 0,00 0,00 2.586,32 8.329,57 30/11/2023
931 274200 ERICA DE SOUZA ANDRADE OFICIAL DO MP CURVELO - COMARCA; CURVELO-PJ-03PJ 15.447,01 6.178,80 0,00 0,00 0,00 0,00 1.782,73 2.105,00 25.513,54 3.241,08 4.040,28 0,00 285,18 7.566,54 17.947,00 30/11/2023
932 225700 ERICA GOMES DO COUTO OFICIAL DO MP BELO HORIZONTE - COMARCA; BH-21PJ TUTELA FUNDACOES-SECRETARIA 20.533,67 8.213,47 0,00 0,00 0,00 0,00 0,00 3.055,00 31.802,14 4.380,49 5.779,52 0,00 132,18 10.292,19 21.509,95 30/11/2023
933 632600 ERICA LEONOR MARTINS OFICIAL DO MP RESENDE COSTA - COMARCA; RESENDE COSTA-PJ-UNPJ 7.506,70 750,67 0,00 0,00 0,00 0,00 487,42 2.105,00 10.849,79 1.102,13 1.082,73 0,00 138,42 2.323,28 8.526,51 30/11/2023
934 524800 ERICA MACHADO DA COSTA E SOUZA ANALISTA DO MP BELO HORIZONTE - COMARCA; ASSESS TECNICO-JUR JUNTO AS PROC. DE JUST 14.960,00 2.992,00 0,00 0,00 0,00 0,00 597,92 2.105,00 20.654,92 2.653,27 3.322,19 0,00 282,24 6.257,70 14.397,22 30/11/2023
935 249500 ERICA RODRIGUES ANDRADE OFICIAL DO MP SÃO FRANCISCO - COMARCA; SAO FRANCISCO-PJ-02PJ 12.343,61 4.937,44 0,00 0,00 0,00 0,00 1.584,10 2.105,00 20.970,15 2.545,92 3.115,06 0,00 0,00 5.660,98 15.309,17 30/11/2023
936 260800 ERICA VIANA GIARDINI DE OLIVEIRA OFICIAL DO MP BELO HORIZONTE - COMARCA; DIRETORIA GESTAO COMPRAS LICITACOES 13.588,97 5.435,59 4.940,75 0,00 0,00 0,00 0,00 2.105,00 26.070,31 2.824,88 4.904,92 0,00 373,11 8.102,91 17.967,40 30/11/2023
937 299800 ERICH DOUGLAS RIBEIRO GARCIA ANALISTA DO MP BELO HORIZONTE - COMARCA; CENTRAL DE APOIO TECNICO-SETOR CONTABIL 23.070,31 6.921,09 0,00 0,00 0,00 0,00 2.644,50 2.105,00 34.740,90 4.579,57 6.103,29 0,00 0,00 10.682,86 24.058,04 30/11/2023
938 365000 ERICK EDUARDO JOSE DA SILVA OFICIAL DO MP JUIZ DE FORA - COMARCA; JUIZ DE FORA-PJ-12PJ 7.506,70 2.252,01 0,00 0,00 0,00 0,00 894,55 -627,44 10.025,82 1.342,34 1.429,54 0,00 419,38 3.191,26 6.834,56 30/11/2023
939 227400 ERIKA DE LAET GOULART BOECHAT OFICIAL DO MP BELO HORIZONTE - COMARCA; BH-17PJ PATRIMONIO PUBLICO-SECRETARIA 20.533,67 8.213,47 0,00 0,00 0,00 0,00 0,00 2.105,00 30.852,14 4.380,49 5.729,98 0,00 122,74 10.233,21 20.618,93 30/11/2023
940 681301 ERIKA FERNANDA ELISEU FERREIRA ASSESSOR PROCURADOR JUSTICA BELO HORIZONTE - COMARCA; GABINETE DE PROCURADOR DE JUSTIÇA - SALA 411 0,00 0,00 8.810,89 0,00 0,00 0,00 895,05 2.105,00 11.810,94 876,95 1.709,37 0,00 0,00 2.586,32 9.224,62 30/11/2023
941 285100 ERIKA FERREIRA DA SILVA OFICIAL DO MP JUIZ DE FORA - COMARCA; JUIZ DE FORA-PJ-11PJ 12.343,61 4.937,44 0,00 0,00 0,00 0,00 2.705,31 2.105,00 22.091,36 2.743,41 3.452,34 0,00 277,74 6.473,49 15.617,87 30/11/2023
942 420100 ERIKA JEANINE VERSIANI DE CASTRO ANALISTA DO MP BELO HORIZONTE - COMARCA; CAO-EDUCACAO 18.720,84 3.744,17 0,00 0,00 0,00 0,00 1.994,40 2.105,00 26.564,41 3.375,35 4.364,70 0,00 0,00 7.740,05 18.824,36 30/11/2023
943 677100 ERIKA LAYS CARDOSO FERNANDES ASSESSOR PROMOTOR JUSTICA GRAO MOGOL - COMARCA; GRAO MOGOL-PJ-UNPJ 0,00 0,00 8.810,89 0,00 0,00 0,00 323,06 2.105,00 11.238,95 876,95 1.709,37 0,00 0,00 2.586,32 8.652,63 30/11/2023
944 606900 ERIKA MARIA BARBOSA ANALISTA DO MP BELO HORIZONTE - COMARCA; CAO-SAUDE 11.954,43 1.195,44 0,00 0,00 0,00 0,00 530,38 7.890,94 21.571,19 1.884,93 2.109,41 0,00 186,75 4.181,09 17.390,10 30/11/2023
945 491000 ERIKA ROCHA PEREIRA E SILVA COORDENADOR II BELO HORIZONTE - COMARCA; DIR GOVERNANCA TECNOLOGIA INFORMACAO 20.533,67 4.106,73 0,00 0,00 0,00 0,00 2.258,70 2.105,00 29.004,10 2.390,03 5.233,89 0,00 273,35 7.897,27 21.106,83 30/11/2023
946 283201 ERIKA STEHLING COORDENADOR I BELO HORIZONTE - COMARCA; CENTRAL DE APOIO TECNICO-SETOR DE ENGENHARIA 16.469,17 4.940,75 0,00 0,00 0,00 0,00 0,00 2.105,00 23.514,92 2.348,42 4.356,95 0,00 256,38 6.961,75 16.553,17 30/11/2023
947 254000 ERLANDIA DA SILVA MENDES OFICIAL DO MP IPATINGA - COMARCA; IPATINGA-PJ-03PJ 18.130,77 9.065,39 0,00 386,50 805,20 5.953,14 14.371,86 4.110,87 52.823,73 5.773,21 9.479,26 0,00 0,00 15.252,47 37.571,26 30/11/2023
948 348500 ERNILANDIA DE OLIVEIRA DIAS OFICIAL DO MP MONTES CLAROS - COMARCA; MONTES CLAROS-PJ-16PJ 12.343,61 3.703,08 0,00 0,00 0,00 0,00 1.470,95 2.105,00 19.622,64 2.348,42 2.817,37 0,00 235,26 5.401,05 14.221,59 30/11/2023
949 199300 ERTON PORTINARI DE ANDRADE OFICIAL DO MP SETE LAGOAS - COMARCA; SETE LAGOAS-PJ-05PJ 21.346,53 10.673,27 0,00 0,00 945,09 0,00 15.351,60 4.059,74 52.376,23 6.921,55 9.308,82 0,00 0,00 16.230,37 36.145,86 30/11/2023
950 618800 ESLY DE CARLA AYALLA BARBOSA MENDES OFICIAL DO MP NOVA LIMA - COMARCA; NOVA LIMA-PJ-SECRETARIA 7.506,70 750,67 0,00 0,00 0,00 0,00 0,00 2.105,00 10.362,37 1.097,41 1.082,73 0,00 127,83 2.307,97 8.054,40 30/11/2023
951 537000 ESTANISLAU CORREIA ALMEIDA JUNIOR OFICIAL DO MP UBERLÂNDIA - COMARCA; UBERLANDIA-PJ-25PJ 7.506,70 1.501,34 0,00 0,00 0,00 0,00 0,00 2.105,00 11.113,04 1.222,23 1.256,14 0,00 142,92 2.621,29 8.491,75 30/11/2023
952 692100 ESTEFANIA FARIA FERREIRA ASSESSOR PROCURADOR JUSTICA BELO HORIZONTE - COMARCA; GABINETE DE PROCURADOR DE JUSTIÇA - SALA 814 0,00 0,00 10.106,34 0,00 0,00 0,00 537,02 1.759,55 12.402,91 876,95 1.709,37 0,00 0,00 2.586,32 9.816,59 30/11/2023
953 326900 ESTER ALICE PIMENTA OFICIAL DO MP BELO HORIZONTE - COMARCA; COORD DE INCLUSAO E MOBILIZACAO SOCIAIS 12.343,61 3.703,08 0,00 0,00 0,00 0,00 0,00 2.105,00 18.151,69 2.348,42 2.882,06 0,00 277,74 5.508,22 12.643,47 30/11/2023
954 503700 ESTHER GONCALVES FONSECA ANALISTA DO MP BELO HORIZONTE - COMARCA; DIR CRIACAO E MIDIAS 12.343,61 2.468,72 0,00 0,00 0,00 0,00 0,00 2.105,00 16.917,33 2.150,92 2.596,93 0,00 256,38 5.004,23 11.913,10 30/11/2023
955 475600 ETIENE DE FATIMA OLIVEIRA PEREIRA ANALISTA DO MP PATROCÍNIO - COMARCA; PATROCINIO-PJ-04PJ 12.343,61 2.468,72 0,00 0,00 0,00 0,00 1.357,79 2.105,00 18.275,12 982,16 2.703,58 0,00 0,00 3.685,74 14.589,38 30/11/2023
956 428800 EUGENIA RODRIGUES TRAJANO BORGES ANALISTA DO MP UBERABA - COMARCA; UBERABA-PJ-10PJ 18.130,77 3.626,15 0,00 0,00 0,00 0,00 558,43 9.146,94 31.462,29 3.262,06 4.201,13 0,00 0,00 7.463,19 23.999,10 30/11/2023
957 272700 EUGENIO DE BARCELOS FILHO OFICIAL DO MP FRUTAL - COMARCA; FRUTAL-PJ-SECRETARIA 12.343,61 4.937,44 0,00 0,00 0,00 0,00 0,00 2.105,00 19.386,05 2.545,92 3.102,50 0,00 235,26 5.883,68 13.502,37 30/11/2023
958 254100 EULALIA ALVES MIRANDA LUCAS OFICIAL DO MP ALMENARA - COMARCA; ALMENARA-PJ-02PJ 17.559,01 8.779,51 0,00 0,00 0,00 0,00 7.038,05 4.230,73 37.607,30 4.826,88 6.356,06 0,00 342,00 11.524,94 26.082,36 30/11/2023
959 641200 EUNICE ELVIRA DA SILVA MATOS OFICIAL DO MP BELO HORIZONTE - COMARCA; BH-14PJ DEFESA CONSUMIDOR-SECRETARIA 6.818,83 681,88 0,00 0,00 0,00 0,00 0,00 2.105,00 9.605,71 981,10 907,93 0,00 122,68 2.011,71 7.594,00 30/11/2023
960 557900 EURIPEDES JOSUE PERES OFICIAL DO MP IBIÁ - COMARCA; IBIA-PJ-UNPJ 7.506,70 1.501,34 0,00 0,00 0,00 0,00 0,00 2.105,00 11.113,04 1.222,23 1.256,14 0,00 142,92 2.621,29 8.491,75 30/11/2023
961 225800 EURO CESAR VIEIRA BARBOSA ANALISTA DO MP BELO HORIZONTE - COMARCA; BH-17PJ PATRIMONIO PUBLICO-SECRETARIA 23.070,31 9.228,12 0,00 0,00 0,00 0,00 2.960,68 2.105,00 37.364,11 4.948,70 6.259,64 0,00 1.142,21 12.350,55 25.013,56 30/11/2023
962 199400 EUSTAQUIO ADAILTON LIMA E SILVA OFICIAL DO MP MONTES CLAROS - COMARCA; MONTES CLAROS-PJ-15PJ 21.346,53 14.942,57 0,00 0,00 1.258,73 0,00 18.470,74 3.917,57 59.936,14 8.003,97 11.237,00 0,00 0,00 19.240,97 40.695,17 30/11/2023
963 548000 EVA VILMA LEAO REIS JULIO OFICIAL DO MP BELO HORIZONTE - COMARCA; BH-07PJ 01 TRIBUNAL JURI-SECRETARIA 7.506,70 3.002,68 0,00 0,00 0,00 0,00 0,00 2.105,00 12.614,38 1.462,45 1.602,95 0,00 181,90 3.247,30 9.367,08 30/11/2023
964 517000 EVALDO SENA COSTA FILHO ANALISTA DO MP BELO HORIZONTE - COMARCA; BH-08PJ JUIZADO ESPECIAL 12.343,61 4.937,44 0,00 0,00 0,00 0,00 1.584,09 2.105,00 20.970,14 2.545,92 3.062,93 0,00 299,11 5.907,96 15.062,18 30/11/2023
965 217500 EVELANGE LEAO RABELO ASSESSOR ADMINISTRATIVO II BELO HORIZONTE - COMARCA; CAO-PESSOAS IDOSAS E PESSOAS COM DEFICIENCIA 0,00 3.002,68 7.506,70 0,00 0,00 0,00 385,34 -3.359,88 7.534,84 876,95 2.176,46 0,00 500,95 3.554,36 3.980,48 30/11/2023
966 679600 EVERTON BARBOSA DA SILVA ASSESSOR PROCURADOR JUSTICA BELO HORIZONTE - COMARCA; GABINETE DE PROCURADOR DE JUSTIÇA - SALA 510 0,00 0,00 8.810,89 0,00 0,00 0,00 0,00 2.105,00 10.915,89 876,95 1.709,37 0,00 0,00 2.586,32 8.329,57 30/11/2023
967 540400 EVIE SARAMELLA DE RESENDE OFICIAL DO MP BARBACENA - COMARCA; BARBACENA-PJ-08PJ 7.506,70 1.501,34 0,00 0,00 0,00 0,00 0,00 2.105,00 11.113,04 1.222,23 1.256,14 0,00 142,92 2.621,29 8.491,75 30/11/2023
968 469000 EWERTON CARDOSO DE SA RODRIGUES ANALISTA DO MP CAMPO BELO - COMARCA; CAMPO BELO-PJ-02PJ 12.343,61 2.468,72 0,00 0,00 0,00 0,00 1.357,81 2.105,00 18.275,14 2.150,92 2.492,65 0,00 256,38 4.899,95 13.375,19 30/11/2023
969 368900 FABIANA BARBOSA SIQUEIRA OFICIAL DO MP BELO HORIZONTE - COMARCA; CAO-ORDEM ECONOMICA E TRIBUTARIA-SECRETARIA 14.960,00 4.488,00 0,00 0,00 0,00 0,00 1.619,35 2.105,00 23.172,35 2.892,63 3.591,12 0,00 385,23 6.868,98 16.303,37 30/11/2023
970 273800 FABIANA CARNEIRO AMORIM OFICIAL DO MP BELO HORIZONTE - COMARCA; BH-23PJ CIVEL-COORD ADM CIVEL 15.949,86 6.379,94 4.346,47 0,00 0,00 0,00 2.239,19 2.105,00 31.020,46 3.353,72 5.448,75 0,00 101,30 8.903,77 22.116,69 30/11/2023
971 519300 FABIANA DE OLIVEIRA LOUREIRO ANALISTA DO MP BELO HORIZONTE - COMARCA; BH-09PJ AUDITORIA MILITAR-GAB 002PJ 12.343,61 2.468,72 0,00 0,00 0,00 0,00 1.357,79 2.105,00 18.275,12 2.150,92 2.596,93 0,00 256,38 5.004,23 13.270,89 30/11/2023
972 363400 FABIANA DOURADO DUPIN VIEGAS ANALISTA DO MP BELO HORIZONTE - COMARCA; GABINETE DE PROCURADOR DE JUSTIÇA - SALA 705 22.191,68 6.657,50 0,00 0,00 0,00 0,00 0,00 2.105,00 30.954,18 4.396,82 5.650,42 0,00 497,75 10.544,99 20.409,19 30/11/2023
973 410800 FABIANA DUARTE QUITITE ANALISTA DO MP BELO HORIZONTE - COMARCA; BH-15PJ M AMB PAT HIST CULT-GAB 116PJ 18.720,84 5.616,25 0,00 0,00 0,00 0,00 3.866,48 2.105,00 30.308,57 3.974,42 5.229,60 0,00 0,00 9.204,02 21.104,55 30/11/2023
974 419500 FABIANA EULALIA DOS SANTOS ANALISTA DO MP SÃO JOÃO DEL REI - COMARCA; SAO JOAO DEL REI-PJ-01PJ 18.720,84 3.744,17 0,00 0,00 0,00 0,00 1.994,38 2.105,00 26.564,39 3.375,35 4.334,51 0,00 109,78 7.819,64 18.744,75 30/11/2023
975 725200 FABIANA LOPES DE JESUS ASSESSOR PROMOTOR JUSTICA CONTAGEM - COMARCA; CONTAGEM-PJ-01PJ 0,00 0,00 8.810,89 0,00 0,00 0,00 0,00 2.105,00 10.915,89 876,95 1.709,37 0,00 0,00 2.586,32 8.329,57 30/11/2023
976 700300 FABIANA MARCIA DE SOUZA ASSESSOR ADMINISTRATIVO II BELO HORIZONTE - COMARCA; DIRET DE CONTROLE E DE MANUTENCAO DE IMOVEIS 0,00 0,00 7.506,70 0,00 0,00 0,00 762,56 2.105,00 10.374,26 876,95 1.350,72 0,00 0,00 2.227,67 8.146,59 30/11/2023
977 331500 FABIANA PACHECO OFICIAL DO MP GUAXUPÉ - COMARCA; GUAXUPE-PJ-01PJ 12.343,61 3.703,08 0,00 0,00 0,00 0,00 0,00 3.055,00 19.101,69 2.348,42 2.777,79 0,00 277,74 5.403,95 13.697,74 30/11/2023
978 510700 FABIANA PEREIRA SANTOS BORGES ANALISTA DO MP BELO HORIZONTE - COMARCA; DIRETORIA DE SISTEMAS DE INFORMACAO 12.343,61 2.468,72 5.538,92 0,00 0,00 0,00 1.865,53 2.105,00 24.321,78 2.150,92 4.067,99 0,00 256,38 6.475,29 17.846,49 30/11/2023
979 749400 FABIANA SANTOS DE OLIVEIRA CARVALHO ASSESSOR ADMINISTRATIVO I BELO HORIZONTE - COMARCA; CAO-CRIANCAS E ADOLESCENTES-ASS TECNICA 0,00 0,00 4.872,71 0,00 0,00 0,00 0,00 2.105,00 6.977,71 718,08 670,06 0,00 0,00 1.388,14 5.589,57 30/11/2023
980 181700 FABIANA SOUZA FERREIRA OFICIAL DO MP BELO HORIZONTE - COMARCA; BH-19PJ SAUDE-SECRETARIA 150PJ 7.506,70 3.002,68 0,00 0,00 0,00 0,00 0,00 2.105,00 12.614,38 1.462,45 1.498,67 0,00 181,90 3.143,02 9.471,36 30/11/2023
981 272900 FABIANA STOCKLER LEITE OFICIAL DO MP LAJINHA - COMARCA; LAJINHA-PJ-SECRETARIA 12.343,61 6.171,81 0,00 0,00 0,00 0,00 1.697,24 2.105,00 22.317,66 2.743,42 3.400,20 0,00 320,48 6.464,10 15.853,56 30/11/2023
982 225500 FABIANE DE FATIMA PORTELLA ANALISTA DO MP BELO HORIZONTE - COMARCA; BH-18PJ DIREITOS HUMANOS-SECRETARIA 23.070,31 9.228,12 0,00 0,00 0,00 0,00 0,00 2.105,00 34.403,43 4.948,70 6.450,27 0,00 676,18 12.075,15 22.328,28 30/11/2023
983 433800 FABIANE DINIZ MATTOS ANALISTA DO MP BELO HORIZONTE - COMARCA; BH-23PJ INFRACIONAL-ASS JURIDICA 18.720,84 3.744,17 0,00 0,00 0,00 0,00 3.960,26 9.396,60 35.821,87 3.929,91 5.125,84 0,00 143,66 9.199,41 26.622,46 30/11/2023
984 455000 FABIANO CARVALHO DA SILVA ANALISTA DO MP LAVRAS - COMARCA; LAVRAS-PJ-05PJ 12.343,61 2.468,72 0,00 0,00 0,00 0,00 1.504,68 2.105,00 18.422,01 2.150,92 2.596,93 0,00 256,38 5.004,23 13.417,78 30/11/2023
985 498800 FABIANO FURTADO PESSOA COELHO ANALISTA DO MP BELO HORIZONTE - COMARCA; DIRETORIA DE REDES E BANCOS DE DADOS 12.343,61 2.468,72 0,00 0,00 0,00 0,00 0,00 2.105,00 16.917,33 2.150,92 2.492,65 0,00 256,38 4.899,95 12.017,38 30/11/2023
986 663000 FABIANO MARQUES CORREA ASSESSOR ADMINISTRATIVO II BELO HORIZONTE - COMARCA; DIRETORIA DE SUPORTE E MANUTENCAO 0,00 0,00 7.506,70 0,00 0,00 0,00 0,00 2.105,00 9.611,70 876,95 1.350,72 0,00 0,00 2.227,67 7.384,03 30/11/2023
987 394600 FABIANO PALHARES SILVA ANALISTA DO MP BELO HORIZONTE - COMARCA; CENTRAL DE APOIO TECN-SETOR DE MEIO AMBIENTE 20.533,67 6.160,10 0,00 0,00 0,00 0,00 0,00 2.105,00 28.798,77 4.051,95 5.258,25 0,00 113,30 9.423,50 19.375,27 30/11/2023
988 676600 FABIANO RESENDE VELOSO ASSESSOR PROCURADOR JUSTICA BELO HORIZONTE - COMARCA; GABINETE DE PROCURADOR DE JUSTIÇA - SALA 1002 0,00 0,00 8.810,89 0,00 0,00 0,00 0,00 2.105,00 10.915,89 876,95 1.709,37 0,00 0,00 2.586,32 8.329,57 30/11/2023
989 444400 FABIANO SARAIVA MEDEIROS ANALISTA DO MP BETIM - COMARCA; BETIM-PJ-11PJ 18.130,77 3.626,15 0,00 0,00 0,00 0,00 1.931,50 2.105,00 25.793,42 3.262,06 4.011,89 0,00 308,96 7.582,91 18.210,51 30/11/2023
990 408700 FABIANO SOARES PORTILHO ANALISTA DO MP JUIZ DE FORA - COMARCA; GAECO REGIONAL DA ZONA DA MATA-JUIZ DE FORA 18.720,84 5.616,25 0,00 0,00 0,00 0,00 3.866,46 2.105,00 30.308,55 3.974,42 5.199,41 0,00 109,78 9.283,61 21.024,94 30/11/2023
991 442600 FABIO CARVALHO VIEIRA ANALISTA DO MP MONTES CLAROS - COMARCA; MONTES CLAROS-PJ-06PJ 12.343,61 2.468,72 0,00 0,00 0,00 0,00 814,67 2.105,00 17.732,00 2.150,92 2.596,93 0,00 256,38 5.004,23 12.727,77 30/11/2023
992 716601 FABIO DAMASCENA MONTEIRO DE CARVALHO OFICIAL DO MP JACINTO - COMARCA; JACINTO-PJ-UNPJ 4.570,25 0,00 0,00 0,00 0,00 0,00 0,00 2.105,00 6.675,25 526,88 257,78 0,00 0,00 784,66 5.890,59 30/11/2023
993 702700 FABIO JUNIOR COSTA BARREIROS ASSESSOR ADMINISTRATIVO II BELO HORIZONTE - COMARCA; DIVISAO DE MANUTENCAO PREDIAL 0,00 0,00 7.506,70 0,00 0,00 0,00 325,65 3.055,00 10.887,35 876,95 903,70 0,00 0,00 1.780,65 9.106,70 30/11/2023
994 240101 FABIO JUNQUEIRA DE ASSIS FONSECA OFICIAL DO MP BELO HORIZONTE - COMARCA; BH-17PJ PATRIMONIO PUBLICO-SECRETARIA 10.341,72 3.102,52 0,00 0,00 0,00 0,00 0,00 2.105,00 15.549,24 1.932,03 2.280,90 0,00 232,70 4.445,63 11.103,61 30/11/2023
995 271500 FABIO LUIZ VIEIRA OFICIAL DO MP SANTA VITÓRIA - COMARCA; SANTA VITORIA-PJ-UNPJ 12.343,61 4.937,44 0,00 0,00 0,00 0,00 1.470,95 2.187,74 20.939,74 2.545,92 3.115,06 0,00 277,74 5.938,72 15.001,02 30/11/2023
996 213100 FABIO PRATES GONCALVES ASSESSOR ADMINISTRATIVO IV BELO HORIZONTE - COMARCA; DIR RELACOES INSTITUCIONAIS 0,00 5.795,29 14.488,22 0,00 0,00 0,00 0,00 2.105,00 22.388,51 876,95 4.707,93 0,00 0,00 5.584,88 16.803,63 30/11/2023
997 436700 FABIO SANTIAGO DE CARVALHO OFICIAL DO MP POÇO FUNDO - COMARCA; POCO FUNDO-PJ-UNPJ 12.343,61 2.468,72 0,00 0,00 0,00 0,00 1.233,38 2.105,00 18.150,71 2.150,92 2.578,26 0,00 293,44 5.022,62 13.128,09 30/11/2023
998 208400 FABIOLA DE SOUSA CARDOSO ANALISTA DO MP BELO HORIZONTE - COMARCA; CGMP-DIR ESTAGIO PROBATORIO E ORIENT 23.070,31 9.228,12 6.160,10 0,00 0,00 0,00 3.250,70 2.105,00 43.814,23 4.948,70 7.709,27 868,57 1.575,76 15.102,30 28.711,93 30/11/2023
999 392200 FABIOLA LEROY COSTA ANALISTA DO MP ESMERALDAS - COMARCA; ESMERALDAS-PJ-01PJ 12.343,61 3.703,08 0,00 0,00 0,00 0,00 0,00 4.005,00 20.051,69 2.348,42 2.882,06 0,00 256,38 5.486,86 14.564,83 30/11/2023
1000 409000 FABIOLA MONTEIRO DE CARVALHO CASTRO ANALISTA DO MP BOM SUCESSO - COMARCA; BOM SUCESSO-PJ-UNPJ 15.949,86 4.784,96 0,00 0,00 0,00 0,00 1.594,99 2.105,00 24.434,81 3.353,72 4.333,46 0,00 243,06 7.930,24 16.504,57 30/11/2023
1001 525800 FABRICIA ALVES DANTAS OFICIAL DO MP MONTES CLAROS - COMARCA; MONTES CLAROS-PJ-01PJ 10.516,49 2.103,30 0,00 0,00 0,00 0,00 1.066,98 2.105,00 15.791,77 1.800,11 2.022,17 0,00 253,82 4.076,10 11.715,67 30/11/2023
1002 263400 FABRICIA PINTO TEIXEIRA SANTIAGO OFICIAL DO MP BELO HORIZONTE - COMARCA; CAO-FUNDACOES-SECRETARIA 18.130,77 7.252,31 0,00 0,00 0,00 0,00 2.092,44 2.105,00 29.580,52 3.842,24 4.842,45 0,00 334,70 9.019,39 20.561,13 30/11/2023
1003 420800 FABRICIO BERNARDES DE OLIVEIRA OFICIAL DO MP ITURAMA - COMARCA; ITURAMA-PJ-02PJ 12.343,61 2.468,72 0,00 0,00 0,00 0,00 1.233,39 3.066,01 19.111,73 2.150,92 2.526,12 0,00 293,44 4.970,48 14.141,25 30/11/2023
1004 474000 FABRICIO DE FREITAS SALES ANALISTA DO MP MONTES CLAROS - COMARCA; COORD REG DEF ORDEM ECON TRIB MONTES CLAROS 12.343,61 2.468,72 0,00 0,00 0,00 0,00 1.357,79 2.105,00 18.275,12 2.150,92 2.596,93 0,00 256,38 5.004,23 13.270,89 30/11/2023
1005 510100 FABRICIO FURTADO ASSIS DO CARMO ANALISTA DO MP BELO HORIZONTE - COMARCA; SERVICO MEDICO-DEPTO PERIC MEDICA SAUDE OCUP 12.343,61 2.468,72 0,00 0,00 0,00 0,00 1.181,10 4.005,00 19.998,43 2.150,92 2.921,73 0,00 256,38 5.329,03 14.669,40 30/11/2023
1006 519600 FABRICIO GONTIJO SALVATI ANALISTA DO MP BELO HORIZONTE - COMARCA; CENTRAL DE APOIO TECNICO-SETOR CONTABIL 12.343,61 2.468,72 0,00 0,00 0,00 0,00 0,00 2.105,00 16.917,33 2.150,92 2.596,93 0,00 256,38 5.004,23 11.913,10 30/11/2023
1007 637400 FABRICIO HENRIQUE DA SILVA PASSOS ANALISTA DO MP BELO HORIZONTE - COMARCA; DIR CRIACAO E MIDIAS 12.343,61 1.234,36 4.020,58 0,00 0,00 0,00 0,00 2.105,00 19.703,55 1.953,42 3.417,45 0,00 235,02 5.605,89 14.097,66 30/11/2023
1008 428200 FABRICIO ORZIL VIANA ANALISTA DO MP SANTA LUZIA - COMARCA; SANTA LUZIA-PJ-04PJ 12.343,61 2.468,72 0,00 0,00 0,00 0,00 1.357,79 3.055,00 19.225,12 2.150,92 2.596,93 0,00 256,38 5.004,23 14.220,89 30/11/2023
1009 455600 FABRICIO PAIVA DA ROCHA ANALISTA DO MP SÃO JOÃO DEL REI - COMARCA; SAO JOAO DEL REI-PJ-06PJ 12.343,61 2.468,72 0,00 0,00 0,00 0,00 1.357,80 3.055,00 19.225,13 2.150,92 2.544,79 0,00 256,38 4.952,09 14.273,04 30/11/2023
1010 511500 FABRICIO RENE CARDOSO DE PADUA ANALISTA DO MP SÃO SEBASTIÃO DO PARAÍSO - COMARCA; SAO SEBASTIAO DO PARAISO-PJ-03PJ 12.343,61 2.468,72 0,00 0,00 0,00 0,00 0,00 2.105,00 16.917,33 2.150,92 2.596,93 0,00 256,38 5.004,23 11.913,10 30/11/2023
1011 496100 FABRICIO RESENDE GONCALVES OFICIAL DO MP ENTRE-RIOS DE MINAS - COMARCA; ENTRE RIOS DE MINAS-PJ-UNPJ 10.516,49 2.103,30 0,00 0,00 0,00 0,00 462,73 2.105,00 15.187,52 1.800,11 2.074,30 0,00 253,83 4.128,24 11.059,28 30/11/2023
1012 650300 FABRICIO ROBERTO AZEVEDO OFICIAL DO MP NOVA SERRANA - COMARCA; NOVA SERRANA-PJ-04PJ 7.270,07 727,01 0,00 0,00 0,00 0,00 0,00 2.105,00 10.102,08 1.059,42 1.013,30 0,00 140,85 2.213,57 7.888,51 30/11/2023
1013 514900 FADUA MARIA DRUMOND CHEQUER ANALISTA DO MP BETIM - COMARCA; BETIM-PJ-12PJ 12.343,61 2.468,72 0,00 0,00 0,00 0,00 0,00 2.105,00 16.917,33 2.150,92 2.492,65 0,00 256,38 4.899,95 12.017,38 30/11/2023
1014 282500 FANNY FERREIRA MELO OFICIAL DO MP ARAXÁ - COMARCA; ARAXA-PJ-03PJ 13.588,97 4.076,69 0,00 0,00 0,00 0,00 0,00 2.105,00 19.770,66 2.607,45 3.232,31 0,00 373,12 6.212,88 13.557,78 30/11/2023
1015 692500 FARID JUNIOR NUNES DA SILVA ASSESSOR PROCURADOR JUSTICA BELO HORIZONTE - COMARCA; GABINETE DE PROCURADOR DE JUSTIÇA - SALA 912 0,00 0,00 8.810,89 0,00 0,00 0,00 807,68 2.105,00 11.723,57 876,95 1.605,10 0,00 0,00 2.482,05 9.241,52 30/11/2023
1016 744000 FARLEY LOPES DE ALCANTARA OFICIAL DO MP RIBEIRÃO DAS NEVES - COMARCA; RIBEIRAO DAS NEVES-PJ-SEC CIVEL 4.570,25 0,00 0,00 0,00 0,00 0,00 0,00 3.055,00 7.625,25 526,88 257,78 0,00 0,00 784,66 6.840,59 30/11/2023
1017 382800 FATIMA DE OLIVEIRA COELHO E SILVA OFICIAL DO MP BELO HORIZONTE - COMARCA; DIRETORIA DE ADMINISTRACAO FINANCEIRA 12.343,61 4.937,44 4.020,58 0,00 0,00 0,00 1.807,50 2.105,00 25.214,13 2.545,92 4.220,72 0,00 252,29 7.018,93 18.195,20 30/11/2023
1018 398601 FELIPE ANTONIO HORTA DE PAULA ANALISTA DO MP BELO HORIZONTE - COMARCA; PROC. JUSTICA DIR. DIFUSOS E COLETIVOS-SEC 12.343,61 3.209,34 0,00 0,00 0,00 0,00 1.379,29 2.105,00 19.037,24 2.269,42 2.768,01 0,00 0,00 5.037,43 13.999,81 30/11/2023
1019 430900 FELIPE BOY VIEIRA ANALISTA DO MP BELO HORIZONTE - COMARCA; DIRETORIA DE SEGURANCA 17.559,01 3.511,80 6.160,10 0,00 0,00 0,00 0,00 2.105,00 29.335,91 982,16 5.926,65 0,00 0,00 6.908,81 22.427,10 30/11/2023
1020 631700 FELIPE DE MORAIS SIMOES COELHO ANALISTA DO MP BELO HORIZONTE - COMARCA; BH-18PJ VIOLENCIA DOMESTICA-SECRETARIA 11.577,56 1.157,76 0,00 0,00 0,00 0,00 0,00 2.105,00 14.840,32 1.818,60 2.108,68 0,00 227,66 4.154,94 10.685,38 30/11/2023
1021 549100 FELIPE FERNANDES ALVIM ANALISTA DO MP LAJINHA - COMARCA; LAJINHA-PJ-UNPJ 12.343,61 2.468,72 0,00 0,00 0,00 0,00 1.244,65 3.055,00 19.111,98 2.150,92 2.596,93 0,00 0,00 4.747,85 14.364,13 30/11/2023
1022 693100 FELIPE FROIS DO AMARAL ASSESSOR PROMOTOR JUSTICA RIBEIRÃO DAS NEVES - COMARCA; RIBEIRAO NEVES-SEC PJ EXECUCAO PENAL 0,00 0,00 8.810,89 0,00 0,00 0,00 895,05 2.105,00 11.810,94 876,95 1.657,24 0,00 0,00 2.534,19 9.276,75 30/11/2023
1023 620100 FELIPE GOMES DE AZEVEDO OFICIAL DO MP BELO HORIZONTE - COMARCA; DIVISAO DE SERVICOS 7.506,70 750,67 4.020,58 0,00 0,00 0,00 0,00 2.105,00 14.382,95 1.102,13 2.188,39 0,00 129,82 3.420,34 10.962,61 30/11/2023
1024 601600 FELIPE RODRIGUES DE SIQUEIRA ANALISTA DO MP BELO HORIZONTE - COMARCA; BH-02PJ FAMILIA-SECRETARIA 12.343,61 2.468,72 0,00 0,00 0,00 0,00 0,00 2.105,00 16.917,33 982,16 2.332,08 0,00 0,00 3.314,24 13.603,09 30/11/2023
1025 628900 FELIX FERNANDO JUNIO VIEIRA ANALISTA DO MP BELO HORIZONTE - COMARCA; BH-21PJ TUTELA DAS FUNDACOES-ASS CURADORES 12.343,61 1.974,98 0,00 0,00 0,00 0,00 1.167,41 3.055,00 18.541,00 2.071,92 2.378,60 0,00 220,43 4.670,95 13.870,05 30/11/2023
1026 544500 FELLIPE LEMOS MARCONDES BUENO ANALISTA DO MP SÃO SEBASTIÃO DO PARAÍSO - COMARCA; SAO SEBASTIAO DO PARAISO-PJ-04PJ 12.343,61 2.468,72 0,00 0,00 0,00 0,00 0,00 2.105,00 16.917,33 2.150,92 2.596,93 0,00 235,01 4.982,86 11.934,47 30/11/2023
1027 688500 FELLIPE TADEU DE ANDRADE RAMOS ASSESSOR PROCURADOR JUSTICA BELO HORIZONTE - COMARCA; GABINETE DE PROCURADOR DE JUSTIÇA - SALA 907 0,00 0,00 8.810,89 0,00 0,00 0,00 0,00 2.105,00 10.915,89 876,95 1.709,37 0,00 0,00 2.586,32 8.329,57 30/11/2023
1028 612600 FERNANDA ADRIANA DE PAULA GUIDO ANALISTA DO MP BELO HORIZONTE - COMARCA; CENT ESTAD COOPERACAO TECNICO-JURIDICA 12.343,61 1.234,36 0,00 0,00 0,00 0,00 1.167,41 3.055,00 17.800,38 1.953,42 2.311,79 0,00 220,43 4.485,64 13.314,74 30/11/2023
1029 508400 FERNANDA AGANETTI MATTOS DE OLIVEIRA ANALISTA DO MP BELO HORIZONTE - COMARCA; CENT ESTAD COOPERACAO TECNICO-JURIDICA 12.343,61 2.468,72 0,00 0,00 0,00 0,00 0,00 4.005,00 18.817,33 982,16 2.918,34 0,00 0,00 3.900,50 14.916,83 30/11/2023
1030 453600 FERNANDA ALBERNAZ RABELO ANALISTA DO MP BELO HORIZONTE - COMARCA; GABINETE DE PROCURADOR DE JUSTIÇA - SALA 616 12.343,61 2.468,72 0,00 0,00 0,00 0,00 0,00 3.055,00 17.867,33 2.150,92 2.596,93 0,00 256,38 5.004,23 12.863,10 30/11/2023
1031 255600 FERNANDA ALINA DE ALMEIDA ANDRADE OFICIAL DO MP BELO HORIZONTE - COMARCA; DIRETORIA DE CONTABILIDADE 12.343,61 4.937,44 0,00 0,00 0,00 0,00 0,00 2.105,00 19.386,05 2.545,92 3.167,20 0,00 277,75 5.990,87 13.395,18 30/11/2023
1032 443200 FERNANDA ALMEIDA LOPES ANALISTA DO MP CONTAGEM - COMARCA; CONTAGEM-PJ-10PJ 18.130,77 3.626,15 0,00 0,00 0,00 0,00 1.931,49 3.878,33 27.566,74 3.262,06 4.096,85 0,00 0,00 7.358,91 20.207,83 30/11/2023
1033 281100 FERNANDA ANANIAS MEIRA ANALISTA DO MP BELO HORIZONTE - COMARCA; BH-23PJ INFRACIONAL-ASS JURIDICA 23.070,31 9.228,12 0,00 0,00 0,00 0,00 10.375,05 2.105,00 44.778,48 6.608,71 9.013,08 0,00 71,90 15.693,69 29.084,79 30/11/2023
1034 539000 FERNANDA BARBOSA ALVES ANALISTA DO MP UBERLÂNDIA - COMARCA; GAECO REGIONAL DE UBERLANDIA 12.343,61 2.468,72 0,00 0,00 0,00 0,00 0,00 3.055,00 17.867,33 2.150,92 2.596,93 0,00 235,01 4.982,86 12.884,47 30/11/2023
1035 451200 FERNANDA BLOISE PRADO OFICIAL DO MP BELO HORIZONTE - COMARCA; GAECO - SECRETARIA 11.577,56 2.315,51 0,00 0,00 0,00 0,00 0,00 2.105,00 15.998,07 2.003,84 2.375,35 0,00 248,35 4.627,54 11.370,53 30/11/2023
1036 427900 FERNANDA BRAGA CARNEIRO BICALHO ANALISTA DO MP PEÇANHA - COMARCA; PECANHA-PJ-02PJ 12.343,61 2.468,72 0,00 0,00 0,00 0,00 0,00 2.105,00 16.917,33 2.150,92 2.544,79 0,00 256,38 4.952,09 11.965,24 30/11/2023
1037 507100 FERNANDA CABRINI VAZ MOTA ANALISTA DO MP BELO HORIZONTE - COMARCA; DIVISAO DE MATERIAIS 12.343,61 2.468,72 4.020,58 0,00 0,00 0,00 0,00 4.005,00 22.837,91 982,16 3.790,41 0,00 0,00 4.772,57 18.065,34 30/11/2023
1038 259800 FERNANDA CALZAVARA DE SOUSA OFICIAL DO MP BELO HORIZONTE - COMARCA; DIRET DE INFORMACAO E CONHECIMENTO-DINC/CEAF 18.130,77 7.252,31 6.160,10 106,62 0,00 0,00 3.133,01 3.055,00 37.837,81 3.842,24 6.588,62 0,00 334,70 10.765,56 27.072,25 30/11/2023
1039 494400 FERNANDA CAMPOS BARATA OFICIAL DO MP JUIZ DE FORA - COMARCA; JUIZ DE FORA-PJ-08PJ 7.506,70 1.501,34 0,00 0,00 0,00 0,00 825,73 2.105,00 11.938,77 1.222,23 1.256,14 0,00 155,91 2.634,28 9.304,49 30/11/2023
1040 555600 FERNANDA CAROLINE RIBEIRO ANALISTA DO MP BELO HORIZONTE - COMARCA; DIRETORIA GESTAO CONTRATOS CONVENIOS 12.343,61 2.468,72 0,00 0,00 0,00 0,00 0,00 2.105,00 16.917,33 2.150,92 2.596,93 0,00 201,45 4.949,30 11.968,03 30/11/2023
1041 692000 FERNANDA CESAR SILVA ASSESSOR PROCURADOR JUSTICA BELO HORIZONTE - COMARCA; GABINETE DE PROCURADOR DE JUSTIÇA - SALA 809 0,00